<?xml version="1.0" encoding="UTF-8" standalone="no" ?>
<gpx xmlns="http://www.topografix.com/GPX/1/1" xmlns:xsi="http://www.w3.org/2001/XMLSchema-instance" xsi:schemaLocation="http://www.topografix.com/GPX/1/1 http://www.topografix.com/GPX/1/1/gpx.xsd" version="1.1" creator="VisuGPX - https://www.visugpx.com">
  <metadata>
    <name>HRP - PEDESTRE - 64/Espagne - Du refuge de Pombie aux lacs d'Arriel</name>
    <desc><![CDATA[Notre deuxième étape]]></desc>
  </metadata>
  <trk>
    <name><![CDATA[ACTIVE LOG 003]]></name>
    <trkseg>
      <trkpt lat="42.83541" lon="-0.42716">
        <ele>2003.5249023438</ele>
        <time>2015-09-07T07:04:31Z</time>
      </trkpt>
      <trkpt lat="42.83541" lon="-0.42716">
        <ele>2003.0441894531</ele>
        <time>2015-09-07T07:04:32Z</time>
      </trkpt>
      <trkpt lat="42.83542" lon="-0.42716">
        <ele>2006.8894042969</ele>
        <time>2015-09-07T07:04:35Z</time>
      </trkpt>
      <trkpt lat="42.83542" lon="-0.42716">
        <ele>2010.25390625</ele>
        <time>2015-09-07T07:04:38Z</time>
      </trkpt>
      <trkpt lat="42.83542" lon="-0.42716">
        <ele>2014.0993652344</ele>
        <time>2015-09-07T07:04:42Z</time>
      </trkpt>
      <trkpt lat="42.83541" lon="-0.42716">
        <ele>2016.9833984375</ele>
        <time>2015-09-07T07:04:48Z</time>
      </trkpt>
      <trkpt lat="42.83541" lon="-0.42715">
        <ele>2018.9060058594</ele>
        <time>2015-09-07T07:04:50Z</time>
      </trkpt>
      <trkpt lat="42.8354" lon="-0.42715">
        <ele>2022.2705078125</ele>
        <time>2015-09-07T07:04:56Z</time>
      </trkpt>
      <trkpt lat="42.83541" lon="-0.42715">
        <ele>2025.154296875</ele>
        <time>2015-09-07T07:05:03Z</time>
      </trkpt>
      <trkpt lat="42.83542" lon="-0.42716">
        <ele>2028.5192871094</ele>
        <time>2015-09-07T07:05:09Z</time>
      </trkpt>
      <trkpt lat="42.83542" lon="-0.42716">
        <ele>2031.4030761719</ele>
        <time>2015-09-07T07:05:26Z</time>
      </trkpt>
      <trkpt lat="42.83546" lon="-0.42718">
        <ele>2032.3645019531</ele>
        <time>2015-09-07T07:06:06Z</time>
      </trkpt>
      <trkpt lat="42.83537" lon="-0.42708">
        <ele>2031.8837890625</ele>
        <time>2015-09-07T07:06:21Z</time>
      </trkpt>
      <trkpt lat="42.83535" lon="-0.42704">
        <ele>2032.8449707031</ele>
        <time>2015-09-07T07:06:38Z</time>
      </trkpt>
      <trkpt lat="42.83534" lon="-0.42699">
        <ele>2033.3256835938</ele>
        <time>2015-09-07T07:07:01Z</time>
      </trkpt>
      <trkpt lat="42.83533" lon="-0.42696">
        <ele>2033.8063964844</ele>
        <time>2015-09-07T07:07:03Z</time>
      </trkpt>
      <trkpt lat="42.83529" lon="-0.42675">
        <ele>2031.4030761719</ele>
        <time>2015-09-07T07:07:23Z</time>
      </trkpt>
      <trkpt lat="42.83532" lon="-0.42668">
        <ele>2032.3645019531</ele>
        <time>2015-09-07T07:07:45Z</time>
      </trkpt>
      <trkpt lat="42.83536" lon="-0.42658">
        <ele>2029.9611816406</ele>
        <time>2015-09-07T07:07:58Z</time>
      </trkpt>
      <trkpt lat="42.83538" lon="-0.42643">
        <ele>2027.5576171875</ele>
        <time>2015-09-07T07:08:12Z</time>
      </trkpt>
      <trkpt lat="42.83544" lon="-0.42628">
        <ele>2026.1157226562</ele>
        <time>2015-09-07T07:08:29Z</time>
      </trkpt>
      <trkpt lat="42.83543" lon="-0.42624">
        <ele>2023.7124023438</ele>
        <time>2015-09-07T07:08:45Z</time>
      </trkpt>
      <trkpt lat="42.83538" lon="-0.42624">
        <ele>2021.7897949219</ele>
        <time>2015-09-07T07:08:58Z</time>
      </trkpt>
      <trkpt lat="42.83532" lon="-0.42624">
        <ele>2020.3479003906</ele>
        <time>2015-09-07T07:09:11Z</time>
      </trkpt>
      <trkpt lat="42.83522" lon="-0.42621">
        <ele>2017.4638671875</ele>
        <time>2015-09-07T07:09:25Z</time>
      </trkpt>
      <trkpt lat="42.83513" lon="-0.4262">
        <ele>2014.0993652344</ele>
        <time>2015-09-07T07:09:40Z</time>
      </trkpt>
      <trkpt lat="42.8351" lon="-0.4262">
        <ele>2013.6186523438</ele>
        <time>2015-09-07T07:09:50Z</time>
      </trkpt>
      <trkpt lat="42.83501" lon="-0.4262">
        <ele>2011.6960449219</ele>
        <time>2015-09-07T07:10:04Z</time>
      </trkpt>
      <trkpt lat="42.83491" lon="-0.42618">
        <ele>2009.2927246094</ele>
        <time>2015-09-07T07:10:19Z</time>
      </trkpt>
      <trkpt lat="42.83485" lon="-0.42619">
        <ele>2005.9279785156</ele>
        <time>2015-09-07T07:10:26Z</time>
      </trkpt>
      <trkpt lat="42.83474" lon="-0.42619">
        <ele>2002.5634765625</ele>
        <time>2015-09-07T07:10:40Z</time>
      </trkpt>
      <trkpt lat="42.83462" lon="-0.42617">
        <ele>2000.1604003906</ele>
        <time>2015-09-07T07:10:56Z</time>
      </trkpt>
      <trkpt lat="42.83455" lon="-0.42617">
        <ele>1998.7182617188</ele>
        <time>2015-09-07T07:11:05Z</time>
      </trkpt>
      <trkpt lat="42.83441" lon="-0.42611">
        <ele>1996.3151855469</ele>
        <time>2015-09-07T07:11:22Z</time>
      </trkpt>
      <trkpt lat="42.83438" lon="-0.42608">
        <ele>1994.3920898438</ele>
        <time>2015-09-07T07:11:26Z</time>
      </trkpt>
      <trkpt lat="42.83423" lon="-0.42605">
        <ele>1992.4697265625</ele>
        <time>2015-09-07T07:11:42Z</time>
      </trkpt>
      <trkpt lat="42.83408" lon="-0.42603">
        <ele>1991.5083007812</ele>
        <time>2015-09-07T07:11:57Z</time>
      </trkpt>
      <trkpt lat="42.83404" lon="-0.426">
        <ele>1990.06640625</ele>
        <time>2015-09-07T07:12:03Z</time>
      </trkpt>
      <trkpt lat="42.83391" lon="-0.42583">
        <ele>1988.1437988281</ele>
        <time>2015-09-07T07:12:22Z</time>
      </trkpt>
      <trkpt lat="42.83376" lon="-0.4257">
        <ele>1985.7404785156</ele>
        <time>2015-09-07T07:12:39Z</time>
      </trkpt>
      <trkpt lat="42.83364" lon="-0.42552">
        <ele>1984.2985839844</ele>
        <time>2015-09-07T07:12:55Z</time>
      </trkpt>
      <trkpt lat="42.83357" lon="-0.4253">
        <ele>1985.7404785156</ele>
        <time>2015-09-07T07:13:11Z</time>
      </trkpt>
      <trkpt lat="42.83356" lon="-0.42527">
        <ele>1985.7404785156</ele>
        <time>2015-09-07T07:13:13Z</time>
      </trkpt>
      <trkpt lat="42.83356" lon="-0.42521">
        <ele>1985.259765625</ele>
        <time>2015-09-07T07:13:17Z</time>
      </trkpt>
      <trkpt lat="42.83354" lon="-0.42514">
        <ele>1984.779296875</ele>
        <time>2015-09-07T07:13:21Z</time>
      </trkpt>
      <trkpt lat="42.83346" lon="-0.42507">
        <ele>1983.3371582031</ele>
        <time>2015-09-07T07:13:34Z</time>
      </trkpt>
      <trkpt lat="42.83343" lon="-0.42507">
        <ele>1982.8564453125</ele>
        <time>2015-09-07T07:13:39Z</time>
      </trkpt>
      <trkpt lat="42.8333" lon="-0.42504">
        <ele>1981.8952636719</ele>
        <time>2015-09-07T07:13:54Z</time>
      </trkpt>
      <trkpt lat="42.83333" lon="-0.42491">
        <ele>1980.9340820312</ele>
        <time>2015-09-07T07:14:06Z</time>
      </trkpt>
      <trkpt lat="42.83339" lon="-0.42471">
        <ele>1977.5690917969</ele>
        <time>2015-09-07T07:14:21Z</time>
      </trkpt>
      <trkpt lat="42.83342" lon="-0.42445">
        <ele>1974.6853027344</ele>
        <time>2015-09-07T07:14:40Z</time>
      </trkpt>
      <trkpt lat="42.83342" lon="-0.42423">
        <ele>1972.2819824219</ele>
        <time>2015-09-07T07:14:56Z</time>
      </trkpt>
      <trkpt lat="42.83343" lon="-0.42414">
        <ele>1970.8400878906</ele>
        <time>2015-09-07T07:15:03Z</time>
      </trkpt>
      <trkpt lat="42.83339" lon="-0.4239">
        <ele>1967.4753417969</ele>
        <time>2015-09-07T07:15:20Z</time>
      </trkpt>
      <trkpt lat="42.83338" lon="-0.4237">
        <ele>1964.5915527344</ele>
        <time>2015-09-07T07:15:36Z</time>
      </trkpt>
      <trkpt lat="42.83343" lon="-0.42355">
        <ele>1961.2268066406</ele>
        <time>2015-09-07T07:15:52Z</time>
      </trkpt>
      <trkpt lat="42.83348" lon="-0.42347">
        <ele>1960.74609375</ele>
        <time>2015-09-07T07:16:00Z</time>
      </trkpt>
      <trkpt lat="42.83353" lon="-0.42344">
        <ele>1958.8234863281</ele>
        <time>2015-09-07T07:16:06Z</time>
      </trkpt>
      <trkpt lat="42.83361" lon="-0.42341">
        <ele>1956.4201660156</ele>
        <time>2015-09-07T07:16:16Z</time>
      </trkpt>
      <trkpt lat="42.83375" lon="-0.42344">
        <ele>1953.5363769531</ele>
        <time>2015-09-07T07:16:32Z</time>
      </trkpt>
      <trkpt lat="42.83382" lon="-0.42352">
        <ele>1951.1330566406</ele>
        <time>2015-09-07T07:16:47Z</time>
      </trkpt>
      <trkpt lat="42.83385" lon="-0.42358">
        <ele>1948.7297363281</ele>
        <time>2015-09-07T07:16:54Z</time>
      </trkpt>
      <trkpt lat="42.83391" lon="-0.42365">
        <ele>1947.2875976562</ele>
        <time>2015-09-07T07:17:00Z</time>
      </trkpt>
      <trkpt lat="42.834" lon="-0.42372">
        <ele>1946.3264160156</ele>
        <time>2015-09-07T07:17:11Z</time>
      </trkpt>
      <trkpt lat="42.83408" lon="-0.42368">
        <ele>1945.3649902344</ele>
        <time>2015-09-07T07:17:20Z</time>
      </trkpt>
      <trkpt lat="42.83414" lon="-0.42363">
        <ele>1942.4812011719</ele>
        <time>2015-09-07T07:17:27Z</time>
      </trkpt>
      <trkpt lat="42.8342" lon="-0.42361">
        <ele>1943.4423828125</ele>
        <time>2015-09-07T07:17:32Z</time>
      </trkpt>
      <trkpt lat="42.83431" lon="-0.4236">
        <ele>1939.5971679688</ele>
        <time>2015-09-07T07:17:45Z</time>
      </trkpt>
      <trkpt lat="42.83432" lon="-0.42361">
        <ele>1939.5971679688</ele>
        <time>2015-09-07T07:17:46Z</time>
      </trkpt>
      <trkpt lat="42.83435" lon="-0.4236">
        <ele>1937.6745605469</ele>
        <time>2015-09-07T07:17:54Z</time>
      </trkpt>
      <trkpt lat="42.83437" lon="-0.42335">
        <ele>1935.2712402344</ele>
        <time>2015-09-07T07:18:14Z</time>
      </trkpt>
      <trkpt lat="42.83436" lon="-0.42329">
        <ele>1932.3874511719</ele>
        <time>2015-09-07T07:18:19Z</time>
      </trkpt>
      <trkpt lat="42.83436" lon="-0.42328">
        <ele>1933.8293457031</ele>
        <time>2015-09-07T07:18:20Z</time>
      </trkpt>
      <trkpt lat="42.83432" lon="-0.4232">
        <ele>1932.3874511719</ele>
        <time>2015-09-07T07:18:37Z</time>
      </trkpt>
      <trkpt lat="42.8343" lon="-0.42318">
        <ele>1930.9453125</ele>
        <time>2015-09-07T07:18:40Z</time>
      </trkpt>
      <trkpt lat="42.8343" lon="-0.42317">
        <ele>1930.4645996094</ele>
        <time>2015-09-07T07:18:42Z</time>
      </trkpt>
      <trkpt lat="42.83434" lon="-0.42309">
        <ele>1929.0224609375</ele>
        <time>2015-09-07T07:18:54Z</time>
      </trkpt>
      <trkpt lat="42.83439" lon="-0.42308">
        <ele>1926.138671875</ele>
        <time>2015-09-07T07:19:10Z</time>
      </trkpt>
      <trkpt lat="42.83447" lon="-0.42309">
        <ele>1922.7741699219</ele>
        <time>2015-09-07T07:19:20Z</time>
      </trkpt>
      <trkpt lat="42.83449" lon="-0.42306">
        <ele>1921.33203125</ele>
        <time>2015-09-07T07:19:26Z</time>
      </trkpt>
      <trkpt lat="42.83456" lon="-0.42304">
        <ele>1917.9675292969</ele>
        <time>2015-09-07T07:19:36Z</time>
      </trkpt>
      <trkpt lat="42.83458" lon="-0.42292">
        <ele>1915.0834960938</ele>
        <time>2015-09-07T07:19:49Z</time>
      </trkpt>
      <trkpt lat="42.83455" lon="-0.42282">
        <ele>1912.1994628906</ele>
        <time>2015-09-07T07:19:58Z</time>
      </trkpt>
      <trkpt lat="42.83458" lon="-0.42266">
        <ele>1908.8349609375</ele>
        <time>2015-09-07T07:20:12Z</time>
      </trkpt>
      <trkpt lat="42.8346" lon="-0.42256">
        <ele>1905.4704589844</ele>
        <time>2015-09-07T07:20:22Z</time>
      </trkpt>
      <trkpt lat="42.83464" lon="-0.42252">
        <ele>1904.5090332031</ele>
        <time>2015-09-07T07:20:27Z</time>
      </trkpt>
      <trkpt lat="42.83469" lon="-0.42245">
        <ele>1903.5478515625</ele>
        <time>2015-09-07T07:20:35Z</time>
      </trkpt>
      <trkpt lat="42.83475" lon="-0.42232">
        <ele>1900.6638183594</ele>
        <time>2015-09-07T07:20:46Z</time>
      </trkpt>
      <trkpt lat="42.83487" lon="-0.42225">
        <ele>1900.1833496094</ele>
        <time>2015-09-07T07:20:57Z</time>
      </trkpt>
      <trkpt lat="42.83489" lon="-0.42223">
        <ele>1898.7409667969</ele>
        <time>2015-09-07T07:21:00Z</time>
      </trkpt>
      <trkpt lat="42.83494" lon="-0.4222">
        <ele>1896.818359375</ele>
        <time>2015-09-07T07:21:05Z</time>
      </trkpt>
      <trkpt lat="42.83498" lon="-0.42216">
        <ele>1894.4150390625</ele>
        <time>2015-09-07T07:21:10Z</time>
      </trkpt>
      <trkpt lat="42.83503" lon="-0.42214">
        <ele>1892.9731445312</ele>
        <time>2015-09-07T07:21:15Z</time>
      </trkpt>
      <trkpt lat="42.83504" lon="-0.42212">
        <ele>1892.0119628906</ele>
        <time>2015-09-07T07:21:17Z</time>
      </trkpt>
      <trkpt lat="42.83514" lon="-0.42204">
        <ele>1891.0505371094</ele>
        <time>2015-09-07T07:21:29Z</time>
      </trkpt>
      <trkpt lat="42.83521" lon="-0.42183">
        <ele>1886.724609375</ele>
        <time>2015-09-07T07:21:46Z</time>
      </trkpt>
      <trkpt lat="42.8352" lon="-0.42182">
        <ele>1886.724609375</ele>
        <time>2015-09-07T07:21:48Z</time>
      </trkpt>
      <trkpt lat="42.83511" lon="-0.42183">
        <ele>1885.2827148438</ele>
        <time>2015-09-07T07:21:55Z</time>
      </trkpt>
      <trkpt lat="42.83503" lon="-0.42183">
        <ele>1883.8405761719</ele>
        <time>2015-09-07T07:22:08Z</time>
      </trkpt>
      <trkpt lat="42.83494" lon="-0.42182">
        <ele>1881.91796875</ele>
        <time>2015-09-07T07:22:19Z</time>
      </trkpt>
      <trkpt lat="42.83483" lon="-0.42182">
        <ele>1878.5534667969</ele>
        <time>2015-09-07T07:22:32Z</time>
      </trkpt>
      <trkpt lat="42.8347" lon="-0.42182">
        <ele>1875.1887207031</ele>
        <time>2015-09-07T07:22:42Z</time>
      </trkpt>
      <trkpt lat="42.83461" lon="-0.4218">
        <ele>1873.7468261719</ele>
        <time>2015-09-07T07:22:51Z</time>
      </trkpt>
      <trkpt lat="42.83451" lon="-0.4218">
        <ele>1870.8630371094</ele>
        <time>2015-09-07T07:22:59Z</time>
      </trkpt>
      <trkpt lat="42.83437" lon="-0.42174">
        <ele>1869.9016113281</ele>
        <time>2015-09-07T07:23:14Z</time>
      </trkpt>
      <trkpt lat="42.83437" lon="-0.42171">
        <ele>1869.4211425781</ele>
        <time>2015-09-07T07:23:17Z</time>
      </trkpt>
      <trkpt lat="42.83439" lon="-0.42159">
        <ele>1866.0561523438</ele>
        <time>2015-09-07T07:23:34Z</time>
      </trkpt>
      <trkpt lat="42.83448" lon="-0.42133">
        <ele>1863.1723632812</ele>
        <time>2015-09-07T07:23:51Z</time>
      </trkpt>
      <trkpt lat="42.83448" lon="-0.42131">
        <ele>1863.1723632812</ele>
        <time>2015-09-07T07:23:52Z</time>
      </trkpt>
      <trkpt lat="42.83455" lon="-0.42104">
        <ele>1859.8076171875</ele>
        <time>2015-09-07T07:24:08Z</time>
      </trkpt>
      <trkpt lat="42.83455" lon="-0.42102">
        <ele>1859.3271484375</ele>
        <time>2015-09-07T07:24:09Z</time>
      </trkpt>
      <trkpt lat="42.83462" lon="-0.42077">
        <ele>1856.4431152344</ele>
        <time>2015-09-07T07:24:23Z</time>
      </trkpt>
      <trkpt lat="42.83474" lon="-0.42053">
        <ele>1854.5205078125</ele>
        <time>2015-09-07T07:24:41Z</time>
      </trkpt>
      <trkpt lat="42.8348" lon="-0.42039">
        <ele>1851.1557617188</ele>
        <time>2015-09-07T07:24:50Z</time>
      </trkpt>
      <trkpt lat="42.83478" lon="-0.42036">
        <ele>1850.1945800781</ele>
        <time>2015-09-07T07:24:53Z</time>
      </trkpt>
      <trkpt lat="42.83462" lon="-0.42033">
        <ele>1847.310546875</ele>
        <time>2015-09-07T07:25:08Z</time>
      </trkpt>
      <trkpt lat="42.83446" lon="-0.42034">
        <ele>1845.3879394531</ele>
        <time>2015-09-07T07:25:23Z</time>
      </trkpt>
      <trkpt lat="42.8344" lon="-0.42031">
        <ele>1842.9846191406</ele>
        <time>2015-09-07T07:25:30Z</time>
      </trkpt>
      <trkpt lat="42.83445" lon="-0.42013">
        <ele>1840.5812988281</ele>
        <time>2015-09-07T07:25:44Z</time>
      </trkpt>
      <trkpt lat="42.83448" lon="-0.42004">
        <ele>1838.1782226562</ele>
        <time>2015-09-07T07:25:51Z</time>
      </trkpt>
      <trkpt lat="42.8345" lon="-0.41988">
        <ele>1834.8134765625</ele>
        <time>2015-09-07T07:26:01Z</time>
      </trkpt>
      <trkpt lat="42.8345" lon="-0.41987">
        <ele>1834.8134765625</ele>
        <time>2015-09-07T07:26:02Z</time>
      </trkpt>
      <trkpt lat="42.83451" lon="-0.41973">
        <ele>1833.8520507812</ele>
        <time>2015-09-07T07:26:10Z</time>
      </trkpt>
      <trkpt lat="42.83452" lon="-0.41964">
        <ele>1831.9294433594</ele>
        <time>2015-09-07T07:26:16Z</time>
      </trkpt>
      <trkpt lat="42.83454" lon="-0.41936">
        <ele>1829.5261230469</ele>
        <time>2015-09-07T07:26:34Z</time>
      </trkpt>
      <trkpt lat="42.83448" lon="-0.41906">
        <ele>1827.123046875</ele>
        <time>2015-09-07T07:26:51Z</time>
      </trkpt>
      <trkpt lat="42.83444" lon="-0.41875">
        <ele>1824.7197265625</ele>
        <time>2015-09-07T07:27:10Z</time>
      </trkpt>
      <trkpt lat="42.83438" lon="-0.41845">
        <ele>1823.7583007812</ele>
        <time>2015-09-07T07:27:27Z</time>
      </trkpt>
      <trkpt lat="42.83429" lon="-0.41818">
        <ele>1823.2778320312</ele>
        <time>2015-09-07T07:27:43Z</time>
      </trkpt>
      <trkpt lat="42.83429" lon="-0.41792">
        <ele>1820.3937988281</ele>
        <time>2015-09-07T07:27:58Z</time>
      </trkpt>
      <trkpt lat="42.83429" lon="-0.41789">
        <ele>1820.8745117188</ele>
        <time>2015-09-07T07:28:00Z</time>
      </trkpt>
      <trkpt lat="42.83426" lon="-0.41772">
        <ele>1818.4709472656</ele>
        <time>2015-09-07T07:28:13Z</time>
      </trkpt>
      <trkpt lat="42.83424" lon="-0.41754">
        <ele>1817.990234375</ele>
        <time>2015-09-07T07:28:26Z</time>
      </trkpt>
      <trkpt lat="42.83419" lon="-0.41733">
        <ele>1817.5095214844</ele>
        <time>2015-09-07T07:28:41Z</time>
      </trkpt>
      <trkpt lat="42.83417" lon="-0.41723">
        <ele>1816.5483398438</ele>
        <time>2015-09-07T07:28:53Z</time>
      </trkpt>
      <trkpt lat="42.83412" lon="-0.41709">
        <ele>1814.1450195312</ele>
        <time>2015-09-07T07:29:05Z</time>
      </trkpt>
      <trkpt lat="42.83411" lon="-0.41696">
        <ele>1813.1838378906</ele>
        <time>2015-09-07T07:29:15Z</time>
      </trkpt>
      <trkpt lat="42.83412" lon="-0.41682">
        <ele>1812.703125</ele>
        <time>2015-09-07T07:29:27Z</time>
      </trkpt>
      <trkpt lat="42.83414" lon="-0.41674">
        <ele>1813.1838378906</ele>
        <time>2015-09-07T07:29:36Z</time>
      </trkpt>
      <trkpt lat="42.83413" lon="-0.41653">
        <ele>1810.7805175781</ele>
        <time>2015-09-07T07:29:50Z</time>
      </trkpt>
      <trkpt lat="42.83411" lon="-0.41636">
        <ele>1809.3386230469</ele>
        <time>2015-09-07T07:30:03Z</time>
      </trkpt>
      <trkpt lat="42.83412" lon="-0.41629">
        <ele>1808.8579101562</ele>
        <time>2015-09-07T07:30:08Z</time>
      </trkpt>
      <trkpt lat="42.83413" lon="-0.41621">
        <ele>1808.8579101562</ele>
        <time>2015-09-07T07:30:13Z</time>
      </trkpt>
      <trkpt lat="42.83411" lon="-0.41606">
        <ele>1808.8579101562</ele>
        <time>2015-09-07T07:30:22Z</time>
      </trkpt>
      <trkpt lat="42.83413" lon="-0.41582">
        <ele>1807.8967285156</ele>
        <time>2015-09-07T07:30:37Z</time>
      </trkpt>
      <trkpt lat="42.83412" lon="-0.41563">
        <ele>1804.5319824219</ele>
        <time>2015-09-07T07:30:49Z</time>
      </trkpt>
      <trkpt lat="42.83412" lon="-0.41562">
        <ele>1804.0515136719</ele>
        <time>2015-09-07T07:30:50Z</time>
      </trkpt>
      <trkpt lat="42.83411" lon="-0.41554">
        <ele>1804.0515136719</ele>
        <time>2015-09-07T07:30:56Z</time>
      </trkpt>
      <trkpt lat="42.83411" lon="-0.41539">
        <ele>1803.08984375</ele>
        <time>2015-09-07T07:31:08Z</time>
      </trkpt>
      <trkpt lat="42.8341" lon="-0.41526">
        <ele>1802.1284179688</ele>
        <time>2015-09-07T07:31:21Z</time>
      </trkpt>
      <trkpt lat="42.83412" lon="-0.41512">
        <ele>1801.1672363281</ele>
        <time>2015-09-07T07:31:35Z</time>
      </trkpt>
      <trkpt lat="42.83409" lon="-0.415">
        <ele>1797.802734375</ele>
        <time>2015-09-07T07:31:47Z</time>
      </trkpt>
      <trkpt lat="42.83409" lon="-0.41495">
        <ele>1797.802734375</ele>
        <time>2015-09-07T07:31:52Z</time>
      </trkpt>
      <trkpt lat="42.83408" lon="-0.41474">
        <ele>1796.3608398438</ele>
        <time>2015-09-07T07:32:07Z</time>
      </trkpt>
      <trkpt lat="42.83408" lon="-0.41471">
        <ele>1796.3608398438</ele>
        <time>2015-09-07T07:32:09Z</time>
      </trkpt>
      <trkpt lat="42.83405" lon="-0.41457">
        <ele>1795.8801269531</ele>
        <time>2015-09-07T07:32:18Z</time>
      </trkpt>
      <trkpt lat="42.8341" lon="-0.41441">
        <ele>1794.4379882812</ele>
        <time>2015-09-07T07:32:32Z</time>
      </trkpt>
      <trkpt lat="42.8341" lon="-0.41433">
        <ele>1792.515625</ele>
        <time>2015-09-07T07:32:47Z</time>
      </trkpt>
      <trkpt lat="42.83408" lon="-0.41425">
        <ele>1790.1123046875</ele>
        <time>2015-09-07T07:32:59Z</time>
      </trkpt>
      <trkpt lat="42.8341" lon="-0.41422">
        <ele>1792.515625</ele>
        <time>2015-09-07T07:33:03Z</time>
      </trkpt>
      <trkpt lat="42.83415" lon="-0.41406">
        <ele>1789.1508789062</ele>
        <time>2015-09-07T07:33:17Z</time>
      </trkpt>
      <trkpt lat="42.8341" lon="-0.41398">
        <ele>1786.7473144531</ele>
        <time>2015-09-07T07:33:27Z</time>
      </trkpt>
      <trkpt lat="42.8341" lon="-0.41394">
        <ele>1786.2668457031</ele>
        <time>2015-09-07T07:33:30Z</time>
      </trkpt>
      <trkpt lat="42.83409" lon="-0.41378">
        <ele>1784.3442382812</ele>
        <time>2015-09-07T07:33:44Z</time>
      </trkpt>
      <trkpt lat="42.83408" lon="-0.41366">
        <ele>1784.3442382812</ele>
        <time>2015-09-07T07:33:57Z</time>
      </trkpt>
      <trkpt lat="42.83408" lon="-0.41356">
        <ele>1782.9020996094</ele>
        <time>2015-09-07T07:34:07Z</time>
      </trkpt>
      <trkpt lat="42.83414" lon="-0.4134">
        <ele>1780.4990234375</ele>
        <time>2015-09-07T07:34:22Z</time>
      </trkpt>
      <trkpt lat="42.83418" lon="-0.41322">
        <ele>1778.095703125</ele>
        <time>2015-09-07T07:34:36Z</time>
      </trkpt>
      <trkpt lat="42.83426" lon="-0.41305">
        <ele>1774.7312011719</ele>
        <time>2015-09-07T07:34:50Z</time>
      </trkpt>
      <trkpt lat="42.83431" lon="-0.41295">
        <ele>1773.7697753906</ele>
        <time>2015-09-07T07:34:58Z</time>
      </trkpt>
      <trkpt lat="42.83434" lon="-0.41291">
        <ele>1772.80859375</ele>
        <time>2015-09-07T07:35:01Z</time>
      </trkpt>
      <trkpt lat="42.83439" lon="-0.41272">
        <ele>1769.9243164062</ele>
        <time>2015-09-07T07:35:15Z</time>
      </trkpt>
      <trkpt lat="42.83443" lon="-0.41258">
        <ele>1768.0017089844</ele>
        <time>2015-09-07T07:35:28Z</time>
      </trkpt>
      <trkpt lat="42.83443" lon="-0.41251">
        <ele>1766.0791015625</ele>
        <time>2015-09-07T07:35:34Z</time>
      </trkpt>
      <trkpt lat="42.83442" lon="-0.4123">
        <ele>1764.6372070312</ele>
        <time>2015-09-07T07:35:50Z</time>
      </trkpt>
      <trkpt lat="42.83444" lon="-0.41223">
        <ele>1764.6372070312</ele>
        <time>2015-09-07T07:35:56Z</time>
      </trkpt>
      <trkpt lat="42.83444" lon="-0.41196">
        <ele>1762.7145996094</ele>
        <time>2015-09-07T07:36:13Z</time>
      </trkpt>
      <trkpt lat="42.83447" lon="-0.41181">
        <ele>1761.7534179688</ele>
        <time>2015-09-07T07:36:23Z</time>
      </trkpt>
      <trkpt lat="42.83445" lon="-0.41168">
        <ele>1760.7919921875</ele>
        <time>2015-09-07T07:36:33Z</time>
      </trkpt>
      <trkpt lat="42.83448" lon="-0.41155">
        <ele>1758.388671875</ele>
        <time>2015-09-07T07:36:47Z</time>
      </trkpt>
      <trkpt lat="42.8345" lon="-0.4115">
        <ele>1756.9467773438</ele>
        <time>2015-09-07T07:36:54Z</time>
      </trkpt>
      <trkpt lat="42.83453" lon="-0.41142">
        <ele>1756.4660644531</ele>
        <time>2015-09-07T07:37:00Z</time>
      </trkpt>
      <trkpt lat="42.83454" lon="-0.41123">
        <ele>1755.5046386719</ele>
        <time>2015-09-07T07:37:14Z</time>
      </trkpt>
      <trkpt lat="42.83459" lon="-0.41105">
        <ele>1752.6206054688</ele>
        <time>2015-09-07T07:37:27Z</time>
      </trkpt>
      <trkpt lat="42.83459" lon="-0.41102">
        <ele>1752.1398925781</ele>
        <time>2015-09-07T07:37:29Z</time>
      </trkpt>
      <trkpt lat="42.83458" lon="-0.41097">
        <ele>1751.1787109375</ele>
        <time>2015-09-07T07:37:32Z</time>
      </trkpt>
      <trkpt lat="42.83461" lon="-0.41081">
        <ele>1749.7368164062</ele>
        <time>2015-09-07T07:37:43Z</time>
      </trkpt>
      <trkpt lat="42.83474" lon="-0.41058">
        <ele>1749.2561035156</ele>
        <time>2015-09-07T07:37:59Z</time>
      </trkpt>
      <trkpt lat="42.83475" lon="-0.41043">
        <ele>1747.3334960938</ele>
        <time>2015-09-07T07:38:11Z</time>
      </trkpt>
      <trkpt lat="42.83474" lon="-0.41035">
        <ele>1747.8142089844</ele>
        <time>2015-09-07T07:38:15Z</time>
      </trkpt>
      <trkpt lat="42.83475" lon="-0.41021">
        <ele>1746.8527832031</ele>
        <time>2015-09-07T07:38:25Z</time>
      </trkpt>
      <trkpt lat="42.83476" lon="-0.41006">
        <ele>1746.3723144531</ele>
        <time>2015-09-07T07:38:35Z</time>
      </trkpt>
      <trkpt lat="42.83474" lon="-0.41">
        <ele>1746.8527832031</ele>
        <time>2015-09-07T07:38:39Z</time>
      </trkpt>
      <trkpt lat="42.8347" lon="-0.40983">
        <ele>1747.3334960938</ele>
        <time>2015-09-07T07:38:50Z</time>
      </trkpt>
      <trkpt lat="42.83461" lon="-0.40962">
        <ele>1748.2946777344</ele>
        <time>2015-09-07T07:39:05Z</time>
      </trkpt>
      <trkpt lat="42.83459" lon="-0.40956">
        <ele>1748.775390625</ele>
        <time>2015-09-07T07:39:10Z</time>
      </trkpt>
      <trkpt lat="42.83462" lon="-0.40938">
        <ele>1751.6594238281</ele>
        <time>2015-09-07T07:39:27Z</time>
      </trkpt>
      <trkpt lat="42.83463" lon="-0.40933">
        <ele>1751.1787109375</ele>
        <time>2015-09-07T07:39:31Z</time>
      </trkpt>
      <trkpt lat="42.83461" lon="-0.40911">
        <ele>1749.7368164062</ele>
        <time>2015-09-07T07:39:49Z</time>
      </trkpt>
      <trkpt lat="42.83465" lon="-0.40894">
        <ele>1747.8142089844</ele>
        <time>2015-09-07T07:40:04Z</time>
      </trkpt>
      <trkpt lat="42.83467" lon="-0.40872">
        <ele>1746.8527832031</ele>
        <time>2015-09-07T07:40:20Z</time>
      </trkpt>
      <trkpt lat="42.83467" lon="-0.40856">
        <ele>1744.4494628906</ele>
        <time>2015-09-07T07:40:35Z</time>
      </trkpt>
      <trkpt lat="42.83467" lon="-0.40853">
        <ele>1744.9301757812</ele>
        <time>2015-09-07T07:40:37Z</time>
      </trkpt>
      <trkpt lat="42.83463" lon="-0.40841">
        <ele>1742.0463867188</ele>
        <time>2015-09-07T07:40:50Z</time>
      </trkpt>
      <trkpt lat="42.83462" lon="-0.40828">
        <ele>1739.162109375</ele>
        <time>2015-09-07T07:41:02Z</time>
      </trkpt>
      <trkpt lat="42.83461" lon="-0.40822">
        <ele>1738.681640625</ele>
        <time>2015-09-07T07:41:06Z</time>
      </trkpt>
      <trkpt lat="42.83467" lon="-0.40797">
        <ele>1735.3168945312</ele>
        <time>2015-09-07T07:41:24Z</time>
      </trkpt>
      <trkpt lat="42.83469" lon="-0.4079">
        <ele>1734.8364257812</ele>
        <time>2015-09-07T07:41:29Z</time>
      </trkpt>
      <trkpt lat="42.8347" lon="-0.40787">
        <ele>1734.3557128906</ele>
        <time>2015-09-07T07:41:31Z</time>
      </trkpt>
      <trkpt lat="42.83483" lon="-0.40764">
        <ele>1734.3557128906</ele>
        <time>2015-09-07T07:41:49Z</time>
      </trkpt>
      <trkpt lat="42.8349" lon="-0.40744">
        <ele>1731.9523925781</ele>
        <time>2015-09-07T07:42:04Z</time>
      </trkpt>
      <trkpt lat="42.83494" lon="-0.40729">
        <ele>1731.4716796875</ele>
        <time>2015-09-07T07:42:13Z</time>
      </trkpt>
      <trkpt lat="42.83504" lon="-0.40717">
        <ele>1727.6264648438</ele>
        <time>2015-09-07T07:42:25Z</time>
      </trkpt>
      <trkpt lat="42.83516" lon="-0.4071">
        <ele>1724.2619628906</ele>
        <time>2015-09-07T07:42:38Z</time>
      </trkpt>
      <trkpt lat="42.83517" lon="-0.4071">
        <ele>1724.2619628906</ele>
        <time>2015-09-07T07:42:39Z</time>
      </trkpt>
      <trkpt lat="42.8353" lon="-0.40714">
        <ele>1721.3776855469</ele>
        <time>2015-09-07T07:42:54Z</time>
      </trkpt>
      <trkpt lat="42.83548" lon="-0.40723">
        <ele>1718.974609375</ele>
        <time>2015-09-07T07:43:10Z</time>
      </trkpt>
      <trkpt lat="42.83553" lon="-0.40729">
        <ele>1718.0131835938</ele>
        <time>2015-09-07T07:43:17Z</time>
      </trkpt>
      <trkpt lat="42.83553" lon="-0.40735">
        <ele>1717.0520019531</ele>
        <time>2015-09-07T07:43:22Z</time>
      </trkpt>
      <trkpt lat="42.8355" lon="-0.40762">
        <ele>1715.1293945312</ele>
        <time>2015-09-07T07:43:43Z</time>
      </trkpt>
      <trkpt lat="42.83548" lon="-0.40781">
        <ele>1712.7260742188</ele>
        <time>2015-09-07T07:43:59Z</time>
      </trkpt>
      <trkpt lat="42.83548" lon="-0.40792">
        <ele>1711.2841796875</ele>
        <time>2015-09-07T07:44:11Z</time>
      </trkpt>
      <trkpt lat="42.83544" lon="-0.4081">
        <ele>1709.8420410156</ele>
        <time>2015-09-07T07:44:24Z</time>
      </trkpt>
      <trkpt lat="42.83543" lon="-0.40822">
        <ele>1709.3615722656</ele>
        <time>2015-09-07T07:44:34Z</time>
      </trkpt>
      <trkpt lat="42.83543" lon="-0.40829">
        <ele>1707.9194335938</ele>
        <time>2015-09-07T07:44:42Z</time>
      </trkpt>
      <trkpt lat="42.83553" lon="-0.4084">
        <ele>1708.4001464844</ele>
        <time>2015-09-07T07:44:56Z</time>
      </trkpt>
      <trkpt lat="42.83556" lon="-0.40838">
        <ele>1707.4387207031</ele>
        <time>2015-09-07T07:45:04Z</time>
      </trkpt>
      <trkpt lat="42.83559" lon="-0.40819">
        <ele>1705.9965820312</ele>
        <time>2015-09-07T07:45:16Z</time>
      </trkpt>
      <trkpt lat="42.83564" lon="-0.40816">
        <ele>1705.0354003906</ele>
        <time>2015-09-07T07:45:30Z</time>
      </trkpt>
      <trkpt lat="42.83568" lon="-0.4082">
        <ele>1703.1127929688</ele>
        <time>2015-09-07T07:45:37Z</time>
      </trkpt>
      <trkpt lat="42.83572" lon="-0.40821">
        <ele>1703.1127929688</ele>
        <time>2015-09-07T07:45:41Z</time>
      </trkpt>
      <trkpt lat="42.83584" lon="-0.40807">
        <ele>1699.7482910156</ele>
        <time>2015-09-07T07:45:56Z</time>
      </trkpt>
      <trkpt lat="42.83598" lon="-0.40791">
        <ele>1698.3061523438</ele>
        <time>2015-09-07T07:46:12Z</time>
      </trkpt>
      <trkpt lat="42.83596" lon="-0.40793">
        <ele>1697.8256835938</ele>
        <time>2015-09-07T07:46:37Z</time>
      </trkpt>
      <trkpt lat="42.83599" lon="-0.40784">
        <ele>1697.8256835938</ele>
        <time>2015-09-07T07:47:00Z</time>
      </trkpt>
      <trkpt lat="42.83603" lon="-0.40781">
        <ele>1697.8256835938</ele>
        <time>2015-09-07T07:47:17Z</time>
      </trkpt>
      <trkpt lat="42.83607" lon="-0.4078">
        <ele>1697.8256835938</ele>
        <time>2015-09-07T07:47:21Z</time>
      </trkpt>
      <trkpt lat="42.83618" lon="-0.40767">
        <ele>1696.3837890625</ele>
        <time>2015-09-07T07:47:34Z</time>
      </trkpt>
      <trkpt lat="42.83623" lon="-0.40753">
        <ele>1695.9030761719</ele>
        <time>2015-09-07T07:47:45Z</time>
      </trkpt>
      <trkpt lat="42.83624" lon="-0.40751">
        <ele>1695.9030761719</ele>
        <time>2015-09-07T07:47:47Z</time>
      </trkpt>
      <trkpt lat="42.83626" lon="-0.40745">
        <ele>1695.9030761719</ele>
        <time>2015-09-07T07:47:51Z</time>
      </trkpt>
      <trkpt lat="42.83634" lon="-0.40718">
        <ele>1693.0190429688</ele>
        <time>2015-09-07T07:48:08Z</time>
      </trkpt>
      <trkpt lat="42.83644" lon="-0.40703">
        <ele>1691.5769042969</ele>
        <time>2015-09-07T07:48:25Z</time>
      </trkpt>
      <trkpt lat="42.83656" lon="-0.40689">
        <ele>1690.1350097656</ele>
        <time>2015-09-07T07:48:44Z</time>
      </trkpt>
      <trkpt lat="42.83666" lon="-0.4068">
        <ele>1688.2124023438</ele>
        <time>2015-09-07T07:48:59Z</time>
      </trkpt>
      <trkpt lat="42.83676" lon="-0.40671">
        <ele>1686.2897949219</ele>
        <time>2015-09-07T07:49:14Z</time>
      </trkpt>
      <trkpt lat="42.83678" lon="-0.40669">
        <ele>1686.2897949219</ele>
        <time>2015-09-07T07:49:17Z</time>
      </trkpt>
      <trkpt lat="42.83684" lon="-0.40647">
        <ele>1682.9250488281</ele>
        <time>2015-09-07T07:49:34Z</time>
      </trkpt>
      <trkpt lat="42.83684" lon="-0.40635">
        <ele>1681.9638671875</ele>
        <time>2015-09-07T07:49:46Z</time>
      </trkpt>
      <trkpt lat="42.83685" lon="-0.40633">
        <ele>1680.5219726562</ele>
        <time>2015-09-07T07:49:49Z</time>
      </trkpt>
      <trkpt lat="42.83692" lon="-0.40624">
        <ele>1678.1186523438</ele>
        <time>2015-09-07T07:50:03Z</time>
      </trkpt>
      <trkpt lat="42.83698" lon="-0.40616">
        <ele>1676.6767578125</ele>
        <time>2015-09-07T07:50:14Z</time>
      </trkpt>
      <trkpt lat="42.83699" lon="-0.40611">
        <ele>1675.234375</ele>
        <time>2015-09-07T07:50:31Z</time>
      </trkpt>
      <trkpt lat="42.83697" lon="-0.40613">
        <ele>1675.7150878906</ele>
        <time>2015-09-07T07:51:02Z</time>
      </trkpt>
      <trkpt lat="42.83696" lon="-0.40601">
        <ele>1673.7924804688</ele>
        <time>2015-09-07T07:51:23Z</time>
      </trkpt>
      <trkpt lat="42.83695" lon="-0.40598">
        <ele>1674.2731933594</ele>
        <time>2015-09-07T07:51:25Z</time>
      </trkpt>
      <trkpt lat="42.83695" lon="-0.40576">
        <ele>1671.3891601562</ele>
        <time>2015-09-07T07:51:42Z</time>
      </trkpt>
      <trkpt lat="42.83702" lon="-0.40567">
        <ele>1669.947265625</ele>
        <time>2015-09-07T07:51:55Z</time>
      </trkpt>
      <trkpt lat="42.83713" lon="-0.40565">
        <ele>1668.9860839844</ele>
        <time>2015-09-07T07:52:10Z</time>
      </trkpt>
      <trkpt lat="42.8372" lon="-0.40564">
        <ele>1668.5053710938</ele>
        <time>2015-09-07T07:52:17Z</time>
      </trkpt>
      <trkpt lat="42.83724" lon="-0.40565">
        <ele>1668.5053710938</ele>
        <time>2015-09-07T07:52:21Z</time>
      </trkpt>
      <trkpt lat="42.83728" lon="-0.40565">
        <ele>1666.5827636719</ele>
        <time>2015-09-07T07:52:25Z</time>
      </trkpt>
      <trkpt lat="42.83735" lon="-0.40565">
        <ele>1666.1020507812</ele>
        <time>2015-09-07T07:52:31Z</time>
      </trkpt>
      <trkpt lat="42.83743" lon="-0.40563">
        <ele>1662.7375488281</ele>
        <time>2015-09-07T07:52:37Z</time>
      </trkpt>
      <trkpt lat="42.83761" lon="-0.40556">
        <ele>1660.3342285156</ele>
        <time>2015-09-07T07:52:55Z</time>
      </trkpt>
      <trkpt lat="42.83773" lon="-0.40536">
        <ele>1660.3342285156</ele>
        <time>2015-09-07T07:53:12Z</time>
      </trkpt>
      <trkpt lat="42.83784" lon="-0.40519">
        <ele>1659.3728027344</ele>
        <time>2015-09-07T07:53:27Z</time>
      </trkpt>
      <trkpt lat="42.83798" lon="-0.40496">
        <ele>1657.4501953125</ele>
        <time>2015-09-07T07:53:46Z</time>
      </trkpt>
      <trkpt lat="42.83813" lon="-0.40483">
        <ele>1656.9694824219</ele>
        <time>2015-09-07T07:54:01Z</time>
      </trkpt>
      <trkpt lat="42.8382" lon="-0.40479">
        <ele>1656.0080566406</ele>
        <time>2015-09-07T07:54:07Z</time>
      </trkpt>
      <trkpt lat="42.83828" lon="-0.40472">
        <ele>1656.0080566406</ele>
        <time>2015-09-07T07:54:16Z</time>
      </trkpt>
      <trkpt lat="42.83848" lon="-0.40453">
        <ele>1654.5661621094</ele>
        <time>2015-09-07T07:54:36Z</time>
      </trkpt>
      <trkpt lat="42.83854" lon="-0.40439">
        <ele>1652.6435546875</ele>
        <time>2015-09-07T07:54:49Z</time>
      </trkpt>
      <trkpt lat="42.83855" lon="-0.40435">
        <ele>1652.6435546875</ele>
        <time>2015-09-07T07:54:53Z</time>
      </trkpt>
      <trkpt lat="42.83859" lon="-0.40427">
        <ele>1652.6435546875</ele>
        <time>2015-09-07T07:54:59Z</time>
      </trkpt>
      <trkpt lat="42.83868" lon="-0.40398">
        <ele>1651.2016601562</ele>
        <time>2015-09-07T07:55:18Z</time>
      </trkpt>
      <trkpt lat="42.83875" lon="-0.40369">
        <ele>1648.7983398438</ele>
        <time>2015-09-07T07:55:36Z</time>
      </trkpt>
      <trkpt lat="42.83875" lon="-0.40366">
        <ele>1648.7983398438</ele>
        <time>2015-09-07T07:55:38Z</time>
      </trkpt>
      <trkpt lat="42.83885" lon="-0.40344">
        <ele>1646.8757324219</ele>
        <time>2015-09-07T07:55:55Z</time>
      </trkpt>
      <trkpt lat="42.83893" lon="-0.40321">
        <ele>1645.4338378906</ele>
        <time>2015-09-07T07:56:11Z</time>
      </trkpt>
      <trkpt lat="42.839" lon="-0.403">
        <ele>1643.9916992188</ele>
        <time>2015-09-07T07:56:28Z</time>
      </trkpt>
      <trkpt lat="42.83916" lon="-0.40282">
        <ele>1643.0302734375</ele>
        <time>2015-09-07T07:56:45Z</time>
      </trkpt>
      <trkpt lat="42.83928" lon="-0.40269">
        <ele>1641.1076660156</ele>
        <time>2015-09-07T07:57:00Z</time>
      </trkpt>
      <trkpt lat="42.83937" lon="-0.40263">
        <ele>1640.146484375</ele>
        <time>2015-09-07T07:57:10Z</time>
      </trkpt>
      <trkpt lat="42.83952" lon="-0.4025">
        <ele>1638.2238769531</ele>
        <time>2015-09-07T07:57:27Z</time>
      </trkpt>
      <trkpt lat="42.83959" lon="-0.40233">
        <ele>1637.2624511719</ele>
        <time>2015-09-07T07:57:44Z</time>
      </trkpt>
      <trkpt lat="42.83959" lon="-0.40231">
        <ele>1637.2624511719</ele>
        <time>2015-09-07T07:57:45Z</time>
      </trkpt>
      <trkpt lat="42.83959" lon="-0.4022">
        <ele>1636.3012695312</ele>
        <time>2015-09-07T07:57:52Z</time>
      </trkpt>
      <trkpt lat="42.83969" lon="-0.40202">
        <ele>1636.7817382812</ele>
        <time>2015-09-07T07:58:08Z</time>
      </trkpt>
      <trkpt lat="42.83969" lon="-0.40201">
        <ele>1636.7817382812</ele>
        <time>2015-09-07T07:58:09Z</time>
      </trkpt>
      <trkpt lat="42.83971" lon="-0.40191">
        <ele>1634.859375</ele>
        <time>2015-09-07T07:58:23Z</time>
      </trkpt>
      <trkpt lat="42.83972" lon="-0.40189">
        <ele>1634.859375</ele>
        <time>2015-09-07T07:58:26Z</time>
      </trkpt>
      <trkpt lat="42.83975" lon="-0.40182">
        <ele>1633.8979492188</ele>
        <time>2015-09-07T07:58:31Z</time>
      </trkpt>
      <trkpt lat="42.83983" lon="-0.40155">
        <ele>1632.9365234375</ele>
        <time>2015-09-07T07:58:49Z</time>
      </trkpt>
      <trkpt lat="42.83991" lon="-0.40134">
        <ele>1631.0141601562</ele>
        <time>2015-09-07T07:59:05Z</time>
      </trkpt>
      <trkpt lat="42.83997" lon="-0.40124">
        <ele>1627.6491699219</ele>
        <time>2015-09-07T07:59:19Z</time>
      </trkpt>
      <trkpt lat="42.83998" lon="-0.40122">
        <ele>1626.6879882812</ele>
        <time>2015-09-07T07:59:38Z</time>
      </trkpt>
      <trkpt lat="42.83997" lon="-0.40105">
        <ele>1623.8039550781</ele>
        <time>2015-09-07T07:59:55Z</time>
      </trkpt>
      <trkpt lat="42.83993" lon="-0.40086">
        <ele>1620.439453125</ele>
        <time>2015-09-07T08:00:09Z</time>
      </trkpt>
      <trkpt lat="42.83992" lon="-0.40081">
        <ele>1620.439453125</ele>
        <time>2015-09-07T08:00:12Z</time>
      </trkpt>
      <trkpt lat="42.83988" lon="-0.40075">
        <ele>1620.9201660156</ele>
        <time>2015-09-07T08:00:18Z</time>
      </trkpt>
      <trkpt lat="42.83984" lon="-0.40068">
        <ele>1620.439453125</ele>
        <time>2015-09-07T08:00:28Z</time>
      </trkpt>
      <trkpt lat="42.83987" lon="-0.40056">
        <ele>1620.9201660156</ele>
        <time>2015-09-07T08:00:44Z</time>
      </trkpt>
      <trkpt lat="42.83988" lon="-0.40044">
        <ele>1620.9201660156</ele>
        <time>2015-09-07T08:00:54Z</time>
      </trkpt>
      <trkpt lat="42.83994" lon="-0.40024">
        <ele>1620.9201660156</ele>
        <time>2015-09-07T08:01:07Z</time>
      </trkpt>
      <trkpt lat="42.83995" lon="-0.39999">
        <ele>1618.0361328125</ele>
        <time>2015-09-07T08:01:28Z</time>
      </trkpt>
      <trkpt lat="42.83975" lon="-0.39971">
        <ele>1615.15234375</ele>
        <time>2015-09-07T08:01:47Z</time>
      </trkpt>
      <trkpt lat="42.83974" lon="-0.39962">
        <ele>1611.7875976562</ele>
        <time>2015-09-07T08:02:00Z</time>
      </trkpt>
      <trkpt lat="42.83975" lon="-0.39948">
        <ele>1608.9035644531</ele>
        <time>2015-09-07T08:02:16Z</time>
      </trkpt>
      <trkpt lat="42.83971" lon="-0.39931">
        <ele>1605.5390625</ele>
        <time>2015-09-07T08:02:32Z</time>
      </trkpt>
      <trkpt lat="42.83971" lon="-0.39919">
        <ele>1602.6550292969</ele>
        <time>2015-09-07T08:02:42Z</time>
      </trkpt>
      <trkpt lat="42.83965" lon="-0.39912">
        <ele>1600.732421875</ele>
        <time>2015-09-07T08:02:48Z</time>
      </trkpt>
      <trkpt lat="42.83956" lon="-0.39911">
        <ele>1599.2905273438</ele>
        <time>2015-09-07T08:02:53Z</time>
      </trkpt>
      <trkpt lat="42.83949" lon="-0.39889">
        <ele>1597.3679199219</ele>
        <time>2015-09-07T08:03:06Z</time>
      </trkpt>
      <trkpt lat="42.83942" lon="-0.39876">
        <ele>1595.92578125</ele>
        <time>2015-09-07T08:03:17Z</time>
      </trkpt>
      <trkpt lat="42.83934" lon="-0.3987">
        <ele>1594.4836425781</ele>
        <time>2015-09-07T08:03:23Z</time>
      </trkpt>
      <trkpt lat="42.8392" lon="-0.39848">
        <ele>1592.0805664062</ele>
        <time>2015-09-07T08:03:31Z</time>
      </trkpt>
      <trkpt lat="42.83921" lon="-0.39847">
        <ele>1592.0805664062</ele>
        <time>2015-09-07T08:03:32Z</time>
      </trkpt>
      <trkpt lat="42.83931" lon="-0.39831">
        <ele>1590.6384277344</ele>
        <time>2015-09-07T08:03:43Z</time>
      </trkpt>
      <trkpt lat="42.83929" lon="-0.39813">
        <ele>1587.7546386719</ele>
        <time>2015-09-07T08:04:00Z</time>
      </trkpt>
      <trkpt lat="42.83935" lon="-0.3978">
        <ele>1584.8708496094</ele>
        <time>2015-09-07T08:04:13Z</time>
      </trkpt>
      <trkpt lat="42.83935" lon="-0.39765">
        <ele>1582.4675292969</ele>
        <time>2015-09-07T08:04:24Z</time>
      </trkpt>
      <trkpt lat="42.83936" lon="-0.39765">
        <ele>1581.9868164062</ele>
        <time>2015-09-07T08:04:27Z</time>
      </trkpt>
      <trkpt lat="42.83947" lon="-0.39753">
        <ele>1581.5061035156</ele>
        <time>2015-09-07T08:04:36Z</time>
      </trkpt>
      <trkpt lat="42.8396" lon="-0.39741">
        <ele>1579.5832519531</ele>
        <time>2015-09-07T08:04:52Z</time>
      </trkpt>
      <trkpt lat="42.8396" lon="-0.39728">
        <ele>1577.1801757812</ele>
        <time>2015-09-07T08:05:05Z</time>
      </trkpt>
      <trkpt lat="42.83963" lon="-0.3971">
        <ele>1576.21875</ele>
        <time>2015-09-07T08:05:16Z</time>
      </trkpt>
      <trkpt lat="42.83963" lon="-0.39701">
        <ele>1575.2573242188</ele>
        <time>2015-09-07T08:05:25Z</time>
      </trkpt>
      <trkpt lat="42.83966" lon="-0.39675">
        <ele>1572.8542480469</ele>
        <time>2015-09-07T08:05:41Z</time>
      </trkpt>
      <trkpt lat="42.83965" lon="-0.39662">
        <ele>1572.3735351562</ele>
        <time>2015-09-07T08:05:53Z</time>
      </trkpt>
      <trkpt lat="42.83967" lon="-0.3965">
        <ele>1570.931640625</ele>
        <time>2015-09-07T08:06:06Z</time>
      </trkpt>
      <trkpt lat="42.83968" lon="-0.39621">
        <ele>1569.0090332031</ele>
        <time>2015-09-07T08:06:24Z</time>
      </trkpt>
      <trkpt lat="42.8396" lon="-0.39589">
        <ele>1565.64453125</ele>
        <time>2015-09-07T08:07:01Z</time>
      </trkpt>
      <trkpt lat="42.83964" lon="-0.39571">
        <ele>1562.2795410156</ele>
        <time>2015-09-07T08:07:16Z</time>
      </trkpt>
      <trkpt lat="42.83961" lon="-0.3955">
        <ele>1560.3569335938</ele>
        <time>2015-09-07T08:07:34Z</time>
      </trkpt>
      <trkpt lat="42.83954" lon="-0.39537">
        <ele>1559.3957519531</ele>
        <time>2015-09-07T08:07:45Z</time>
      </trkpt>
      <trkpt lat="42.83955" lon="-0.39525">
        <ele>1556.0310058594</ele>
        <time>2015-09-07T08:07:55Z</time>
      </trkpt>
      <trkpt lat="42.83954" lon="-0.39514">
        <ele>1553.1472167969</ele>
        <time>2015-09-07T08:08:06Z</time>
      </trkpt>
      <trkpt lat="42.83954" lon="-0.39503">
        <ele>1550.7438964844</ele>
        <time>2015-09-07T08:08:17Z</time>
      </trkpt>
      <trkpt lat="42.83963" lon="-0.3949">
        <ele>1546.8984375</ele>
        <time>2015-09-07T08:08:27Z</time>
      </trkpt>
      <trkpt lat="42.83963" lon="-0.39489">
        <ele>1546.8984375</ele>
        <time>2015-09-07T08:08:28Z</time>
      </trkpt>
      <trkpt lat="42.83967" lon="-0.39472">
        <ele>1543.5339355469</ele>
        <time>2015-09-07T08:08:44Z</time>
      </trkpt>
      <trkpt lat="42.83966" lon="-0.39456">
        <ele>1540.6499023438</ele>
        <time>2015-09-07T08:08:58Z</time>
      </trkpt>
      <trkpt lat="42.83964" lon="-0.39442">
        <ele>1538.2468261719</ele>
        <time>2015-09-07T08:09:11Z</time>
      </trkpt>
      <trkpt lat="42.83963" lon="-0.39412">
        <ele>1535.3627929688</ele>
        <time>2015-09-07T08:09:32Z</time>
      </trkpt>
      <trkpt lat="42.83966" lon="-0.39392">
        <ele>1533.4401855469</ele>
        <time>2015-09-07T08:09:44Z</time>
      </trkpt>
      <trkpt lat="42.83957" lon="-0.39382">
        <ele>1531.5173339844</ele>
        <time>2015-09-07T08:10:01Z</time>
      </trkpt>
      <trkpt lat="42.83951" lon="-0.39369">
        <ele>1528.6335449219</ele>
        <time>2015-09-07T08:10:13Z</time>
      </trkpt>
      <trkpt lat="42.83952" lon="-0.39344">
        <ele>1526.2302246094</ele>
        <time>2015-09-07T08:10:46Z</time>
      </trkpt>
      <trkpt lat="42.8395" lon="-0.39325">
        <ele>1524.3076171875</ele>
        <time>2015-09-07T08:11:00Z</time>
      </trkpt>
      <trkpt lat="42.83944" lon="-0.39313">
        <ele>1521.4235839844</ele>
        <time>2015-09-07T08:11:13Z</time>
      </trkpt>
      <trkpt lat="42.83945" lon="-0.39296">
        <ele>1518.0590820312</ele>
        <time>2015-09-07T08:11:31Z</time>
      </trkpt>
      <trkpt lat="42.8394" lon="-0.39283">
        <ele>1516.1364746094</ele>
        <time>2015-09-07T08:11:40Z</time>
      </trkpt>
      <trkpt lat="42.83924" lon="-0.39265">
        <ele>1512.7717285156</ele>
        <time>2015-09-07T08:11:57Z</time>
      </trkpt>
      <trkpt lat="42.83918" lon="-0.39244">
        <ele>1509.8876953125</ele>
        <time>2015-09-07T08:12:15Z</time>
      </trkpt>
      <trkpt lat="42.83914" lon="-0.39211">
        <ele>1506.5231933594</ele>
        <time>2015-09-07T08:12:41Z</time>
      </trkpt>
      <trkpt lat="42.83911" lon="-0.39209">
        <ele>1506.0424804688</ele>
        <time>2015-09-07T08:12:44Z</time>
      </trkpt>
      <trkpt lat="42.83901" lon="-0.39191">
        <ele>1504.1201171875</ele>
        <time>2015-09-07T08:12:56Z</time>
      </trkpt>
      <trkpt lat="42.8389" lon="-0.39183">
        <ele>1502.197265625</ele>
        <time>2015-09-07T08:13:09Z</time>
      </trkpt>
      <trkpt lat="42.83883" lon="-0.39172">
        <ele>1501.2360839844</ele>
        <time>2015-09-07T08:13:22Z</time>
      </trkpt>
      <trkpt lat="42.83881" lon="-0.39171">
        <ele>1501.2360839844</ele>
        <time>2015-09-07T08:13:23Z</time>
      </trkpt>
      <trkpt lat="42.8387" lon="-0.39164">
        <ele>1498.8325195312</ele>
        <time>2015-09-07T08:13:35Z</time>
      </trkpt>
      <trkpt lat="42.83871" lon="-0.39163">
        <ele>1497.390625</ele>
        <time>2015-09-07T08:13:37Z</time>
      </trkpt>
      <trkpt lat="42.83878" lon="-0.39154">
        <ele>1494.9873046875</ele>
        <time>2015-09-07T08:13:45Z</time>
      </trkpt>
      <trkpt lat="42.8389" lon="-0.39149">
        <ele>1494.5065917969</ele>
        <time>2015-09-07T08:13:55Z</time>
      </trkpt>
      <trkpt lat="42.83898" lon="-0.39147">
        <ele>1491.1420898438</ele>
        <time>2015-09-07T08:14:05Z</time>
      </trkpt>
      <trkpt lat="42.83891" lon="-0.39145">
        <ele>1488.7390136719</ele>
        <time>2015-09-07T08:14:16Z</time>
      </trkpt>
      <trkpt lat="42.83884" lon="-0.3914">
        <ele>1486.3356933594</ele>
        <time>2015-09-07T08:14:24Z</time>
      </trkpt>
      <trkpt lat="42.83857" lon="-0.39142">
        <ele>1485.3742675781</ele>
        <time>2015-09-07T08:14:35Z</time>
      </trkpt>
      <trkpt lat="42.83839" lon="-0.39119">
        <ele>1481.0483398438</ele>
        <time>2015-09-07T08:14:46Z</time>
      </trkpt>
      <trkpt lat="42.83832" lon="-0.39103">
        <ele>1478.6450195312</ele>
        <time>2015-09-07T08:14:56Z</time>
      </trkpt>
      <trkpt lat="42.83832" lon="-0.39098">
        <ele>1477.68359375</ele>
        <time>2015-09-07T08:15:03Z</time>
      </trkpt>
      <trkpt lat="42.83833" lon="-0.39091">
        <ele>1474.7998046875</ele>
        <time>2015-09-07T08:15:12Z</time>
      </trkpt>
      <trkpt lat="42.83844" lon="-0.39086">
        <ele>1472.8771972656</ele>
        <time>2015-09-07T08:15:17Z</time>
      </trkpt>
      <trkpt lat="42.83849" lon="-0.39086">
        <ele>1472.8771972656</ele>
        <time>2015-09-07T08:15:19Z</time>
      </trkpt>
      <trkpt lat="42.83869" lon="-0.39091">
        <ele>1471.4350585938</ele>
        <time>2015-09-07T08:15:30Z</time>
      </trkpt>
      <trkpt lat="42.83894" lon="-0.39089">
        <ele>1468.5512695312</ele>
        <time>2015-09-07T08:15:41Z</time>
      </trkpt>
      <trkpt lat="42.83897" lon="-0.39089">
        <ele>1467.5895996094</ele>
        <time>2015-09-07T08:15:46Z</time>
      </trkpt>
      <trkpt lat="42.83891" lon="-0.39088">
        <ele>1465.1865234375</ele>
        <time>2015-09-07T08:15:55Z</time>
      </trkpt>
      <trkpt lat="42.83905" lon="-0.39088">
        <ele>1464.7058105469</ele>
        <time>2015-09-07T08:16:01Z</time>
      </trkpt>
      <trkpt lat="42.83923" lon="-0.39078">
        <ele>1462.3024902344</ele>
        <time>2015-09-07T08:16:16Z</time>
      </trkpt>
      <trkpt lat="42.83916" lon="-0.39072">
        <ele>1459.8991699219</ele>
        <time>2015-09-07T08:16:27Z</time>
      </trkpt>
      <trkpt lat="42.83908" lon="-0.39064">
        <ele>1456.5346679688</ele>
        <time>2015-09-07T08:16:35Z</time>
      </trkpt>
      <trkpt lat="42.83903" lon="-0.39056">
        <ele>1454.1315917969</ele>
        <time>2015-09-07T08:16:46Z</time>
      </trkpt>
      <trkpt lat="42.83882" lon="-0.39043">
        <ele>1452.2087402344</ele>
        <time>2015-09-07T08:16:55Z</time>
      </trkpt>
      <trkpt lat="42.83889" lon="-0.39035">
        <ele>1451.7280273438</ele>
        <time>2015-09-07T08:17:03Z</time>
      </trkpt>
      <trkpt lat="42.83894" lon="-0.39032">
        <ele>1450.7666015625</ele>
        <time>2015-09-07T08:17:05Z</time>
      </trkpt>
      <trkpt lat="42.8389" lon="-0.39028">
        <ele>1450.2861328125</ele>
        <time>2015-09-07T08:17:08Z</time>
      </trkpt>
      <trkpt lat="42.8387" lon="-0.39016">
        <ele>1448.8439941406</ele>
        <time>2015-09-07T08:17:15Z</time>
      </trkpt>
      <trkpt lat="42.83865" lon="-0.39009">
        <ele>1447.8828125</ele>
        <time>2015-09-07T08:17:26Z</time>
      </trkpt>
      <trkpt lat="42.83865" lon="-0.38998">
        <ele>1444.9987792969</ele>
        <time>2015-09-07T08:17:46Z</time>
      </trkpt>
      <trkpt lat="42.83846" lon="-0.38984">
        <ele>1444.0375976562</ele>
        <time>2015-09-07T08:18:04Z</time>
      </trkpt>
      <trkpt lat="42.83852" lon="-0.38984">
        <ele>1441.1535644531</ele>
        <time>2015-09-07T08:18:19Z</time>
      </trkpt>
      <trkpt lat="42.83865" lon="-0.38986">
        <ele>1440.1923828125</ele>
        <time>2015-09-07T08:18:36Z</time>
      </trkpt>
      <trkpt lat="42.83832" lon="-0.38993">
        <ele>1439.7116699219</ele>
        <time>2015-09-07T08:18:45Z</time>
      </trkpt>
      <trkpt lat="42.83814" lon="-0.38982">
        <ele>1438.2697753906</ele>
        <time>2015-09-07T08:19:01Z</time>
      </trkpt>
      <trkpt lat="42.83813" lon="-0.38977">
        <ele>1437.7890625</ele>
        <time>2015-09-07T08:19:06Z</time>
      </trkpt>
      <trkpt lat="42.83798" lon="-0.38976">
        <ele>1435.8662109375</ele>
        <time>2015-09-07T08:19:17Z</time>
      </trkpt>
      <trkpt lat="42.83812" lon="-0.38966">
        <ele>1432.9821777344</ele>
        <time>2015-09-07T08:19:27Z</time>
      </trkpt>
      <trkpt lat="42.83812" lon="-0.38965">
        <ele>1432.5017089844</ele>
        <time>2015-09-07T08:19:28Z</time>
      </trkpt>
      <trkpt lat="42.83811" lon="-0.38962">
        <ele>1431.5402832031</ele>
        <time>2015-09-07T08:19:32Z</time>
      </trkpt>
      <trkpt lat="42.83799" lon="-0.38945">
        <ele>1429.1369628906</ele>
        <time>2015-09-07T08:19:47Z</time>
      </trkpt>
      <trkpt lat="42.83801" lon="-0.3894">
        <ele>1426.2531738281</ele>
        <time>2015-09-07T08:20:00Z</time>
      </trkpt>
      <trkpt lat="42.83811" lon="-0.3894">
        <ele>1425.2917480469</ele>
        <time>2015-09-07T08:20:08Z</time>
      </trkpt>
      <trkpt lat="42.83829" lon="-0.38931">
        <ele>1423.8498535156</ele>
        <time>2015-09-07T08:20:15Z</time>
      </trkpt>
      <trkpt lat="42.83845" lon="-0.38925">
        <ele>1423.3693847656</ele>
        <time>2015-09-07T08:20:19Z</time>
      </trkpt>
      <trkpt lat="42.83837" lon="-0.38903">
        <ele>1420.0046386719</ele>
        <time>2015-09-07T08:20:38Z</time>
      </trkpt>
      <trkpt lat="42.83833" lon="-0.38882">
        <ele>1417.6010742188</ele>
        <time>2015-09-07T08:20:55Z</time>
      </trkpt>
    </trkseg>
  </trk>
  <trk>
    <name><![CDATA[ACTIVE LOG 004]]></name>
    <trkseg>
      <trkpt lat="42.83832" lon="-0.38881">
        <ele>1417.1206054688</ele>
        <time>2015-09-07T08:20:57Z</time>
      </trkpt>
    </trkseg>
  </trk>
  <trk>
    <name><![CDATA[ACTIVE LOG 005]]></name>
    <trkseg>
      <trkpt lat="42.83839" lon="-0.3888">
        <ele>1416.6398925781</ele>
        <time>2015-09-07T08:20:59Z</time>
      </trkpt>
      <trkpt lat="42.83839" lon="-0.38877">
        <ele>1415.6787109375</ele>
        <time>2015-09-07T08:21:02Z</time>
      </trkpt>
      <trkpt lat="42.8379" lon="-0.38876">
        <ele>1413.755859375</ele>
        <time>2015-09-07T08:21:06Z</time>
      </trkpt>
      <trkpt lat="42.83771" lon="-0.38865">
        <ele>1411.3527832031</ele>
        <time>2015-09-07T08:21:14Z</time>
      </trkpt>
      <trkpt lat="42.83742" lon="-0.38857">
        <ele>1407.98828125</ele>
        <time>2015-09-07T08:21:25Z</time>
      </trkpt>
      <trkpt lat="42.83743" lon="-0.38853">
        <ele>1406.5461425781</ele>
        <time>2015-09-07T08:21:29Z</time>
      </trkpt>
      <trkpt lat="42.83749" lon="-0.38838">
        <ele>1403.662109375</ele>
        <time>2015-09-07T08:21:42Z</time>
      </trkpt>
      <trkpt lat="42.83751" lon="-0.38823">
        <ele>1400.7780761719</ele>
        <time>2015-09-07T08:21:53Z</time>
      </trkpt>
      <trkpt lat="42.83755" lon="-0.38819">
        <ele>1399.3361816406</ele>
        <time>2015-09-07T08:21:58Z</time>
      </trkpt>
      <trkpt lat="42.83759" lon="-0.38813">
        <ele>1396.4523925781</ele>
        <time>2015-09-07T08:22:05Z</time>
      </trkpt>
      <trkpt lat="42.83772" lon="-0.38808">
        <ele>1395.0102539062</ele>
        <time>2015-09-07T08:22:20Z</time>
      </trkpt>
      <trkpt lat="42.8377" lon="-0.38805">
        <ele>1394.0490722656</ele>
        <time>2015-09-07T08:22:24Z</time>
      </trkpt>
      <trkpt lat="42.83761" lon="-0.38796">
        <ele>1392.1264648438</ele>
        <time>2015-09-07T08:22:38Z</time>
      </trkpt>
      <trkpt lat="42.83768" lon="-0.38788">
        <ele>1388.7619628906</ele>
        <time>2015-09-07T08:22:58Z</time>
      </trkpt>
      <trkpt lat="42.83771" lon="-0.38783">
        <ele>1385.8776855469</ele>
        <time>2015-09-07T08:23:05Z</time>
      </trkpt>
      <trkpt lat="42.83772" lon="-0.3878">
        <ele>1385.3969726562</ele>
        <time>2015-09-07T08:23:08Z</time>
      </trkpt>
      <trkpt lat="42.83777" lon="-0.38773">
        <ele>1382.0324707031</ele>
        <time>2015-09-07T08:23:18Z</time>
      </trkpt>
      <trkpt lat="42.83779" lon="-0.38763">
        <ele>1378.1872558594</ele>
        <time>2015-09-07T08:23:27Z</time>
      </trkpt>
      <trkpt lat="42.83778" lon="-0.38748">
        <ele>1374.8227539062</ele>
        <time>2015-09-07T08:23:41Z</time>
      </trkpt>
      <trkpt lat="42.83779" lon="-0.38743">
        <ele>1371.4577636719</ele>
        <time>2015-09-07T08:23:53Z</time>
      </trkpt>
      <trkpt lat="42.83781" lon="-0.38744">
        <ele>1371.4577636719</ele>
        <time>2015-09-07T08:23:54Z</time>
      </trkpt>
      <trkpt lat="42.83783" lon="-0.38736">
        <ele>1369.0546875</ele>
        <time>2015-09-07T08:24:10Z</time>
      </trkpt>
      <trkpt lat="42.83783" lon="-0.3873">
        <ele>1366.6513671875</ele>
        <time>2015-09-07T08:24:18Z</time>
      </trkpt>
      <trkpt lat="42.83778" lon="-0.38717">
        <ele>1363.2868652344</ele>
        <time>2015-09-07T08:24:30Z</time>
      </trkpt>
      <trkpt lat="42.83777" lon="-0.38713">
        <ele>1361.8449707031</ele>
        <time>2015-09-07T08:24:34Z</time>
      </trkpt>
      <trkpt lat="42.83776" lon="-0.387">
        <ele>1360.4028320312</ele>
        <time>2015-09-07T08:24:46Z</time>
      </trkpt>
      <trkpt lat="42.83772" lon="-0.38684">
        <ele>1357.9997558594</ele>
        <time>2015-09-07T08:24:58Z</time>
      </trkpt>
      <trkpt lat="42.83765" lon="-0.38659">
        <ele>1355.5961914062</ele>
        <time>2015-09-07T08:25:16Z</time>
      </trkpt>
      <trkpt lat="42.83765" lon="-0.38664">
        <ele>1354.634765625</ele>
        <time>2015-09-07T08:25:35Z</time>
      </trkpt>
      <trkpt lat="42.8376" lon="-0.3866">
        <ele>1354.154296875</ele>
        <time>2015-09-07T08:25:40Z</time>
      </trkpt>
      <trkpt lat="42.83751" lon="-0.38642">
        <ele>1355.1154785156</ele>
        <time>2015-09-07T08:25:52Z</time>
      </trkpt>
      <trkpt lat="42.83744" lon="-0.38625">
        <ele>1355.1154785156</ele>
        <time>2015-09-07T08:26:03Z</time>
      </trkpt>
      <trkpt lat="42.83742" lon="-0.38623">
        <ele>1355.5961914062</ele>
        <time>2015-09-07T08:26:06Z</time>
      </trkpt>
      <trkpt lat="42.83737" lon="-0.38621">
        <ele>1356.0769042969</ele>
        <time>2015-09-07T08:26:10Z</time>
      </trkpt>
      <trkpt lat="42.83723" lon="-0.38612">
        <ele>1357.0383300781</ele>
        <time>2015-09-07T08:26:23Z</time>
      </trkpt>
      <trkpt lat="42.8372" lon="-0.38606">
        <ele>1358.9609375</ele>
        <time>2015-09-07T08:26:27Z</time>
      </trkpt>
      <trkpt lat="42.83723" lon="-0.38605">
        <ele>1358.9609375</ele>
        <time>2015-09-07T08:27:01Z</time>
      </trkpt>
      <trkpt lat="42.83723" lon="-0.38605">
        <ele>1359.9221191406</ele>
        <time>2015-09-07T08:32:09Z</time>
      </trkpt>
      <trkpt lat="42.8372" lon="-0.38609">
        <ele>1359.9221191406</ele>
        <time>2015-09-07T08:32:39Z</time>
      </trkpt>
      <trkpt lat="42.83716" lon="-0.38608">
        <ele>1360.4028320312</ele>
        <time>2015-09-07T08:32:54Z</time>
      </trkpt>
      <trkpt lat="42.83713" lon="-0.38606">
        <ele>1359.9221191406</ele>
        <time>2015-09-07T08:32:58Z</time>
      </trkpt>
      <trkpt lat="42.8371" lon="-0.38603">
        <ele>1360.8835449219</ele>
        <time>2015-09-07T08:33:02Z</time>
      </trkpt>
      <trkpt lat="42.83706" lon="-0.38603">
        <ele>1360.8835449219</ele>
        <time>2015-09-07T08:33:06Z</time>
      </trkpt>
      <trkpt lat="42.83691" lon="-0.38598">
        <ele>1363.2868652344</ele>
        <time>2015-09-07T08:33:21Z</time>
      </trkpt>
      <trkpt lat="42.83679" lon="-0.38597">
        <ele>1365.6901855469</ele>
        <time>2015-09-07T08:33:35Z</time>
      </trkpt>
      <trkpt lat="42.83669" lon="-0.38591">
        <ele>1366.1706542969</ele>
        <time>2015-09-07T08:33:49Z</time>
      </trkpt>
      <trkpt lat="42.83662" lon="-0.38584">
        <ele>1368.5739746094</ele>
        <time>2015-09-07T08:33:59Z</time>
      </trkpt>
      <trkpt lat="42.83659" lon="-0.38576">
        <ele>1371.9384765625</ele>
        <time>2015-09-07T08:34:09Z</time>
      </trkpt>
      <trkpt lat="42.83654" lon="-0.38572">
        <ele>1373.380859375</ele>
        <time>2015-09-07T08:34:17Z</time>
      </trkpt>
      <trkpt lat="42.83647" lon="-0.38567">
        <ele>1376.2646484375</ele>
        <time>2015-09-07T08:34:29Z</time>
      </trkpt>
      <trkpt lat="42.83641" lon="-0.38561">
        <ele>1377.7065429688</ele>
        <time>2015-09-07T08:34:41Z</time>
      </trkpt>
      <trkpt lat="42.83635" lon="-0.38555">
        <ele>1381.0712890625</ele>
        <time>2015-09-07T08:34:51Z</time>
      </trkpt>
      <trkpt lat="42.83629" lon="-0.3855">
        <ele>1383.4743652344</ele>
        <time>2015-09-07T08:35:06Z</time>
      </trkpt>
      <trkpt lat="42.83635" lon="-0.38544">
        <ele>1383.955078125</ele>
        <time>2015-09-07T08:35:38Z</time>
      </trkpt>
      <trkpt lat="42.83628" lon="-0.38532">
        <ele>1385.3969726562</ele>
        <time>2015-09-07T08:35:51Z</time>
      </trkpt>
      <trkpt lat="42.83618" lon="-0.38522">
        <ele>1388.7619628906</ele>
        <time>2015-09-07T08:36:05Z</time>
      </trkpt>
      <trkpt lat="42.83614" lon="-0.38514">
        <ele>1389.2424316406</ele>
        <time>2015-09-07T08:36:14Z</time>
      </trkpt>
      <trkpt lat="42.83603" lon="-0.38501">
        <ele>1391.1650390625</ele>
        <time>2015-09-07T08:36:28Z</time>
      </trkpt>
      <trkpt lat="42.83601" lon="-0.38499">
        <ele>1391.6457519531</ele>
        <time>2015-09-07T08:36:30Z</time>
      </trkpt>
      <trkpt lat="42.83596" lon="-0.38491">
        <ele>1394.0490722656</ele>
        <time>2015-09-07T08:36:39Z</time>
      </trkpt>
      <trkpt lat="42.83594" lon="-0.38487">
        <ele>1395.0102539062</ele>
        <time>2015-09-07T08:36:43Z</time>
      </trkpt>
      <trkpt lat="42.83591" lon="-0.38474">
        <ele>1398.85546875</ele>
        <time>2015-09-07T08:36:56Z</time>
      </trkpt>
      <trkpt lat="42.83588" lon="-0.38465">
        <ele>1399.8168945312</ele>
        <time>2015-09-07T08:37:08Z</time>
      </trkpt>
      <trkpt lat="42.83583" lon="-0.38453">
        <ele>1403.662109375</ele>
        <time>2015-09-07T08:37:22Z</time>
      </trkpt>
      <trkpt lat="42.83579" lon="-0.3844">
        <ele>1405.5849609375</ele>
        <time>2015-09-07T08:37:35Z</time>
      </trkpt>
      <trkpt lat="42.83576" lon="-0.38431">
        <ele>1407.98828125</ele>
        <time>2015-09-07T08:37:46Z</time>
      </trkpt>
      <trkpt lat="42.83571" lon="-0.38421">
        <ele>1409.9106445312</ele>
        <time>2015-09-07T08:37:59Z</time>
      </trkpt>
      <trkpt lat="42.8357" lon="-0.38418">
        <ele>1411.8334960938</ele>
        <time>2015-09-07T08:38:11Z</time>
      </trkpt>
      <trkpt lat="42.83572" lon="-0.38409">
        <ele>1412.3139648438</ele>
        <time>2015-09-07T08:38:24Z</time>
      </trkpt>
      <trkpt lat="42.83575" lon="-0.38405">
        <ele>1412.3139648438</ele>
        <time>2015-09-07T08:38:43Z</time>
      </trkpt>
      <trkpt lat="42.83574" lon="-0.38402">
        <ele>1411.8334960938</ele>
        <time>2015-09-07T08:38:53Z</time>
      </trkpt>
      <trkpt lat="42.83577" lon="-0.38397">
        <ele>1411.8334960938</ele>
        <time>2015-09-07T08:38:57Z</time>
      </trkpt>
      <trkpt lat="42.83593" lon="-0.38381">
        <ele>1410.8720703125</ele>
        <time>2015-09-07T08:39:14Z</time>
      </trkpt>
      <trkpt lat="42.83603" lon="-0.38364">
        <ele>1409.9106445312</ele>
        <time>2015-09-07T08:39:30Z</time>
      </trkpt>
      <trkpt lat="42.836" lon="-0.38361">
        <ele>1410.3913574219</ele>
        <time>2015-09-07T08:39:47Z</time>
      </trkpt>
      <trkpt lat="42.8361" lon="-0.38353">
        <ele>1409.4301757812</ele>
        <time>2015-09-07T08:40:02Z</time>
      </trkpt>
      <trkpt lat="42.83618" lon="-0.38345">
        <ele>1408.9494628906</ele>
        <time>2015-09-07T08:40:15Z</time>
      </trkpt>
      <trkpt lat="42.8362" lon="-0.38342">
        <ele>1408.9494628906</ele>
        <time>2015-09-07T08:40:18Z</time>
      </trkpt>
      <trkpt lat="42.8362" lon="-0.38333">
        <ele>1409.4301757812</ele>
        <time>2015-09-07T08:40:35Z</time>
      </trkpt>
      <trkpt lat="42.83617" lon="-0.38324">
        <ele>1412.3139648438</ele>
        <time>2015-09-07T08:40:46Z</time>
      </trkpt>
      <trkpt lat="42.83619" lon="-0.38315">
        <ele>1413.275390625</ele>
        <time>2015-09-07T08:40:57Z</time>
      </trkpt>
      <trkpt lat="42.83623" lon="-0.38305">
        <ele>1416.6398925781</ele>
        <time>2015-09-07T08:41:09Z</time>
      </trkpt>
      <trkpt lat="42.83615" lon="-0.38309">
        <ele>1417.6010742188</ele>
        <time>2015-09-07T08:41:21Z</time>
      </trkpt>
      <trkpt lat="42.83614" lon="-0.38309">
        <ele>1417.6010742188</ele>
        <time>2015-09-07T08:41:46Z</time>
      </trkpt>
      <trkpt lat="42.83614" lon="-0.38296">
        <ele>1420.0046386719</ele>
        <time>2015-09-07T08:42:11Z</time>
      </trkpt>
      <trkpt lat="42.83615" lon="-0.38283">
        <ele>1422.4079589844</ele>
        <time>2015-09-07T08:42:23Z</time>
      </trkpt>
      <trkpt lat="42.83611" lon="-0.38272">
        <ele>1423.3693847656</ele>
        <time>2015-09-07T08:42:36Z</time>
      </trkpt>
      <trkpt lat="42.83602" lon="-0.38272">
        <ele>1425.7724609375</ele>
        <time>2015-09-07T08:42:47Z</time>
      </trkpt>
      <trkpt lat="42.83592" lon="-0.38265">
        <ele>1428.17578125</ele>
        <time>2015-09-07T08:43:02Z</time>
      </trkpt>
      <trkpt lat="42.83592" lon="-0.38264">
        <ele>1428.17578125</ele>
        <time>2015-09-07T08:43:03Z</time>
      </trkpt>
      <trkpt lat="42.83597" lon="-0.38259">
        <ele>1431.0598144531</ele>
        <time>2015-09-07T08:43:13Z</time>
      </trkpt>
      <trkpt lat="42.83607" lon="-0.38248">
        <ele>1431.5402832031</ele>
        <time>2015-09-07T08:43:30Z</time>
      </trkpt>
      <trkpt lat="42.83611" lon="-0.38241">
        <ele>1434.9050292969</ele>
        <time>2015-09-07T08:43:41Z</time>
      </trkpt>
      <trkpt lat="42.83611" lon="-0.3824">
        <ele>1434.4243164062</ele>
        <time>2015-09-07T08:43:42Z</time>
      </trkpt>
      <trkpt lat="42.83614" lon="-0.38233">
        <ele>1436.3471679688</ele>
        <time>2015-09-07T08:43:54Z</time>
      </trkpt>
      <trkpt lat="42.8362" lon="-0.38227">
        <ele>1439.2309570312</ele>
        <time>2015-09-07T08:44:06Z</time>
      </trkpt>
      <trkpt lat="42.83625" lon="-0.38224">
        <ele>1442.595703125</ele>
        <time>2015-09-07T08:44:18Z</time>
      </trkpt>
      <trkpt lat="42.83632" lon="-0.38218">
        <ele>1443.5568847656</ele>
        <time>2015-09-07T08:44:31Z</time>
      </trkpt>
      <trkpt lat="42.83638" lon="-0.38211">
        <ele>1446.4409179688</ele>
        <time>2015-09-07T08:44:46Z</time>
      </trkpt>
      <trkpt lat="42.83644" lon="-0.38212">
        <ele>1447.8828125</ele>
        <time>2015-09-07T08:44:57Z</time>
      </trkpt>
      <trkpt lat="42.83651" lon="-0.38206">
        <ele>1449.3247070312</ele>
        <time>2015-09-07T08:45:08Z</time>
      </trkpt>
      <trkpt lat="42.83659" lon="-0.38203">
        <ele>1451.2473144531</ele>
        <time>2015-09-07T08:45:19Z</time>
      </trkpt>
      <trkpt lat="42.83671" lon="-0.38204">
        <ele>1453.1701660156</ele>
        <time>2015-09-07T08:45:30Z</time>
      </trkpt>
      <trkpt lat="42.8368" lon="-0.382">
        <ele>1455.0927734375</ele>
        <time>2015-09-07T08:45:46Z</time>
      </trkpt>
      <trkpt lat="42.83689" lon="-0.38191">
        <ele>1457.9768066406</ele>
        <time>2015-09-07T08:45:57Z</time>
      </trkpt>
      <trkpt lat="42.83698" lon="-0.38185">
        <ele>1459.4187011719</ele>
        <time>2015-09-07T08:46:09Z</time>
      </trkpt>
      <trkpt lat="42.83702" lon="-0.38184">
        <ele>1462.783203125</ele>
        <time>2015-09-07T08:46:29Z</time>
      </trkpt>
      <trkpt lat="42.83687" lon="-0.38186">
        <ele>1465.6672363281</ele>
        <time>2015-09-07T08:46:45Z</time>
      </trkpt>
      <trkpt lat="42.83698" lon="-0.38173">
        <ele>1468.5512695312</ele>
        <time>2015-09-07T08:47:03Z</time>
      </trkpt>
      <trkpt lat="42.8371" lon="-0.3817">
        <ele>1471.9157714844</ele>
        <time>2015-09-07T08:47:18Z</time>
      </trkpt>
      <trkpt lat="42.83723" lon="-0.3817">
        <ele>1475.2802734375</ele>
        <time>2015-09-07T08:47:41Z</time>
      </trkpt>
      <trkpt lat="42.83736" lon="-0.38169">
        <ele>1477.68359375</ele>
        <time>2015-09-07T08:47:56Z</time>
      </trkpt>
      <trkpt lat="42.83732" lon="-0.3815">
        <ele>1480.5676269531</ele>
        <time>2015-09-07T08:48:19Z</time>
      </trkpt>
      <trkpt lat="42.83747" lon="-0.38139">
        <ele>1483.9321289062</ele>
        <time>2015-09-07T08:48:36Z</time>
      </trkpt>
      <trkpt lat="42.83753" lon="-0.38127">
        <ele>1486.3356933594</ele>
        <time>2015-09-07T08:48:53Z</time>
      </trkpt>
      <trkpt lat="42.83765" lon="-0.38118">
        <ele>1488.2583007812</ele>
        <time>2015-09-07T08:49:07Z</time>
      </trkpt>
      <trkpt lat="42.83772" lon="-0.38111">
        <ele>1491.1420898438</ele>
        <time>2015-09-07T08:49:23Z</time>
      </trkpt>
      <trkpt lat="42.83782" lon="-0.38106">
        <ele>1493.5454101562</ele>
        <time>2015-09-07T08:49:36Z</time>
      </trkpt>
      <trkpt lat="42.83786" lon="-0.38105">
        <ele>1496.4294433594</ele>
        <time>2015-09-07T08:49:48Z</time>
      </trkpt>
      <trkpt lat="42.83792" lon="-0.38103">
        <ele>1498.8325195312</ele>
        <time>2015-09-07T08:50:08Z</time>
      </trkpt>
      <trkpt lat="42.83801" lon="-0.38092">
        <ele>1501.716796875</ele>
        <time>2015-09-07T08:50:24Z</time>
      </trkpt>
      <trkpt lat="42.83802" lon="-0.38076">
        <ele>1505.0812988281</ele>
        <time>2015-09-07T08:50:42Z</time>
      </trkpt>
      <trkpt lat="42.83811" lon="-0.38066">
        <ele>1507.4846191406</ele>
        <time>2015-09-07T08:50:57Z</time>
      </trkpt>
      <trkpt lat="42.83816" lon="-0.38052">
        <ele>1510.8491210938</ele>
        <time>2015-09-07T08:51:14Z</time>
      </trkpt>
      <trkpt lat="42.83823" lon="-0.38042">
        <ele>1511.810546875</ele>
        <time>2015-09-07T08:51:26Z</time>
      </trkpt>
      <trkpt lat="42.8383" lon="-0.38031">
        <ele>1514.6943359375</ele>
        <time>2015-09-07T08:51:42Z</time>
      </trkpt>
      <trkpt lat="42.83828" lon="-0.38032">
        <ele>1518.0590820312</ele>
        <time>2015-09-07T08:51:58Z</time>
      </trkpt>
      <trkpt lat="42.83817" lon="-0.3804">
        <ele>1519.0205078125</ele>
        <time>2015-09-07T08:52:12Z</time>
      </trkpt>
      <trkpt lat="42.83805" lon="-0.38037">
        <ele>1522.3850097656</ele>
        <time>2015-09-07T08:52:33Z</time>
      </trkpt>
      <trkpt lat="42.83808" lon="-0.38021">
        <ele>1524.7883300781</ele>
        <time>2015-09-07T08:52:48Z</time>
      </trkpt>
      <trkpt lat="42.83813" lon="-0.38007">
        <ele>1528.1528320312</ele>
        <time>2015-09-07T08:53:03Z</time>
      </trkpt>
      <trkpt lat="42.83819" lon="-0.37996">
        <ele>1530.5561523438</ele>
        <time>2015-09-07T08:53:17Z</time>
      </trkpt>
      <trkpt lat="42.83821" lon="-0.37988">
        <ele>1531.0368652344</ele>
        <time>2015-09-07T08:53:29Z</time>
      </trkpt>
      <trkpt lat="42.83818" lon="-0.37979">
        <ele>1532.4790039062</ele>
        <time>2015-09-07T08:53:39Z</time>
      </trkpt>
      <trkpt lat="42.83821" lon="-0.37968">
        <ele>1533.4401855469</ele>
        <time>2015-09-07T08:53:49Z</time>
      </trkpt>
      <trkpt lat="42.83826" lon="-0.37954">
        <ele>1534.8823242188</ele>
        <time>2015-09-07T08:54:01Z</time>
      </trkpt>
      <trkpt lat="42.83818" lon="-0.37944">
        <ele>1537.7661132812</ele>
        <time>2015-09-07T08:54:17Z</time>
      </trkpt>
      <trkpt lat="42.83817" lon="-0.37932">
        <ele>1540.1694335938</ele>
        <time>2015-09-07T08:54:31Z</time>
      </trkpt>
      <trkpt lat="42.83817" lon="-0.37919">
        <ele>1542.0920410156</ele>
        <time>2015-09-07T08:54:46Z</time>
      </trkpt>
      <trkpt lat="42.83819" lon="-0.3791">
        <ele>1544.4951171875</ele>
        <time>2015-09-07T08:55:00Z</time>
      </trkpt>
      <trkpt lat="42.83827" lon="-0.37896">
        <ele>1545.9372558594</ele>
        <time>2015-09-07T08:55:17Z</time>
      </trkpt>
      <trkpt lat="42.83833" lon="-0.37885">
        <ele>1548.8212890625</ele>
        <time>2015-09-07T08:55:29Z</time>
      </trkpt>
      <trkpt lat="42.83827" lon="-0.37872">
        <ele>1551.224609375</ele>
        <time>2015-09-07T08:55:44Z</time>
      </trkpt>
      <trkpt lat="42.83825" lon="-0.37862">
        <ele>1554.1086425781</ele>
        <time>2015-09-07T08:55:59Z</time>
      </trkpt>
      <trkpt lat="42.83825" lon="-0.37851">
        <ele>1557.4731445312</ele>
        <time>2015-09-07T08:56:15Z</time>
      </trkpt>
      <trkpt lat="42.83836" lon="-0.37845">
        <ele>1559.3957519531</ele>
        <time>2015-09-07T08:56:39Z</time>
      </trkpt>
      <trkpt lat="42.83831" lon="-0.37828">
        <ele>1561.318359375</ele>
        <time>2015-09-07T08:56:55Z</time>
      </trkpt>
      <trkpt lat="42.83841" lon="-0.37818">
        <ele>1562.7602539062</ele>
        <time>2015-09-07T08:57:06Z</time>
      </trkpt>
      <trkpt lat="42.83836" lon="-0.37805">
        <ele>1564.2023925781</ele>
        <time>2015-09-07T08:57:18Z</time>
      </trkpt>
      <trkpt lat="42.83838" lon="-0.37788">
        <ele>1565.64453125</ele>
        <time>2015-09-07T08:57:34Z</time>
      </trkpt>
      <trkpt lat="42.83847" lon="-0.37768">
        <ele>1566.6057128906</ele>
        <time>2015-09-07T08:57:45Z</time>
      </trkpt>
      <trkpt lat="42.8385" lon="-0.37754">
        <ele>1567.5668945312</ele>
        <time>2015-09-07T08:57:55Z</time>
      </trkpt>
      <trkpt lat="42.83855" lon="-0.3774">
        <ele>1568.0476074219</ele>
        <time>2015-09-07T08:58:07Z</time>
      </trkpt>
      <trkpt lat="42.83856" lon="-0.3772">
        <ele>1569.9702148438</ele>
        <time>2015-09-07T08:58:21Z</time>
      </trkpt>
      <trkpt lat="42.83863" lon="-0.37709">
        <ele>1570.931640625</ele>
        <time>2015-09-07T08:58:33Z</time>
      </trkpt>
      <trkpt lat="42.83866" lon="-0.37698">
        <ele>1571.8928222656</ele>
        <time>2015-09-07T08:58:44Z</time>
      </trkpt>
      <trkpt lat="42.83872" lon="-0.37676">
        <ele>1572.3735351562</ele>
        <time>2015-09-07T08:59:00Z</time>
      </trkpt>
      <trkpt lat="42.83871" lon="-0.37657">
        <ele>1573.8154296875</ele>
        <time>2015-09-07T08:59:12Z</time>
      </trkpt>
      <trkpt lat="42.83872" lon="-0.37655">
        <ele>1574.2961425781</ele>
        <time>2015-09-07T08:59:14Z</time>
      </trkpt>
      <trkpt lat="42.83869" lon="-0.37632">
        <ele>1575.7380371094</ele>
        <time>2015-09-07T08:59:28Z</time>
      </trkpt>
      <trkpt lat="42.83874" lon="-0.37617">
        <ele>1576.21875</ele>
        <time>2015-09-07T08:59:40Z</time>
      </trkpt>
      <trkpt lat="42.8388" lon="-0.37601">
        <ele>1576.6994628906</ele>
        <time>2015-09-07T08:59:51Z</time>
      </trkpt>
      <trkpt lat="42.83884" lon="-0.37596">
        <ele>1577.6606445312</ele>
        <time>2015-09-07T08:59:56Z</time>
      </trkpt>
      <trkpt lat="42.83883" lon="-0.37585">
        <ele>1578.1413574219</ele>
        <time>2015-09-07T09:00:09Z</time>
      </trkpt>
      <trkpt lat="42.83877" lon="-0.37568">
        <ele>1578.6220703125</ele>
        <time>2015-09-07T09:00:18Z</time>
      </trkpt>
      <trkpt lat="42.83882" lon="-0.37556">
        <ele>1578.6220703125</ele>
        <time>2015-09-07T09:00:30Z</time>
      </trkpt>
      <trkpt lat="42.83893" lon="-0.37539">
        <ele>1579.1025390625</ele>
        <time>2015-09-07T09:01:50Z</time>
      </trkpt>
      <trkpt lat="42.83886" lon="-0.37539">
        <ele>1578.6220703125</ele>
        <time>2015-09-07T09:01:55Z</time>
      </trkpt>
      <trkpt lat="42.83889" lon="-0.37537">
        <ele>1579.1025390625</ele>
        <time>2015-09-07T09:02:06Z</time>
      </trkpt>
      <trkpt lat="42.839" lon="-0.37537">
        <ele>1578.6220703125</ele>
        <time>2015-09-07T09:02:29Z</time>
      </trkpt>
      <trkpt lat="42.83909" lon="-0.37551">
        <ele>1580.544921875</ele>
        <time>2015-09-07T09:02:45Z</time>
      </trkpt>
      <trkpt lat="42.83915" lon="-0.3755">
        <ele>1581.9868164062</ele>
        <time>2015-09-07T09:02:57Z</time>
      </trkpt>
      <trkpt lat="42.83909" lon="-0.37535">
        <ele>1584.3901367188</ele>
        <time>2015-09-07T09:03:09Z</time>
      </trkpt>
      <trkpt lat="42.83903" lon="-0.37523">
        <ele>1585.3513183594</ele>
        <time>2015-09-07T09:03:24Z</time>
      </trkpt>
      <trkpt lat="42.83905" lon="-0.37506">
        <ele>1587.7546386719</ele>
        <time>2015-09-07T09:03:42Z</time>
      </trkpt>
      <trkpt lat="42.83904" lon="-0.37487">
        <ele>1590.6384277344</ele>
        <time>2015-09-07T09:03:58Z</time>
      </trkpt>
      <trkpt lat="42.83907" lon="-0.37473">
        <ele>1594.0031738281</ele>
        <time>2015-09-07T09:04:14Z</time>
      </trkpt>
      <trkpt lat="42.83914" lon="-0.37461">
        <ele>1596.4067382812</ele>
        <time>2015-09-07T09:04:33Z</time>
      </trkpt>
      <trkpt lat="42.83916" lon="-0.37451">
        <ele>1599.2905273438</ele>
        <time>2015-09-07T09:04:47Z</time>
      </trkpt>
      <trkpt lat="42.83917" lon="-0.37447">
        <ele>1601.2131347656</ele>
        <time>2015-09-07T09:04:54Z</time>
      </trkpt>
      <trkpt lat="42.83919" lon="-0.37438">
        <ele>1602.1743164062</ele>
        <time>2015-09-07T09:05:04Z</time>
      </trkpt>
      <trkpt lat="42.83918" lon="-0.37437">
        <ele>1603.6164550781</ele>
        <time>2015-09-07T09:05:26Z</time>
      </trkpt>
      <trkpt lat="42.83917" lon="-0.3744">
        <ele>1604.0971679688</ele>
        <time>2015-09-07T09:06:13Z</time>
      </trkpt>
      <trkpt lat="42.83919" lon="-0.37424">
        <ele>1606.5002441406</ele>
        <time>2015-09-07T09:06:27Z</time>
      </trkpt>
      <trkpt lat="42.83924" lon="-0.37416">
        <ele>1607.9423828125</ele>
        <time>2015-09-07T09:06:39Z</time>
      </trkpt>
      <trkpt lat="42.83924" lon="-0.37411">
        <ele>1609.3842773438</ele>
        <time>2015-09-07T09:06:44Z</time>
      </trkpt>
      <trkpt lat="42.83921" lon="-0.37398">
        <ele>1610.3454589844</ele>
        <time>2015-09-07T09:06:59Z</time>
      </trkpt>
      <trkpt lat="42.83921" lon="-0.37386">
        <ele>1612.7490234375</ele>
        <time>2015-09-07T09:07:13Z</time>
      </trkpt>
      <trkpt lat="42.83921" lon="-0.37378">
        <ele>1614.1909179688</ele>
        <time>2015-09-07T09:07:25Z</time>
      </trkpt>
      <trkpt lat="42.83922" lon="-0.37374">
        <ele>1615.6330566406</ele>
        <time>2015-09-07T09:07:32Z</time>
      </trkpt>
      <trkpt lat="42.83919" lon="-0.37366">
        <ele>1617.0749511719</ele>
        <time>2015-09-07T09:07:46Z</time>
      </trkpt>
      <trkpt lat="42.83918" lon="-0.37361">
        <ele>1618.5168457031</ele>
        <time>2015-09-07T09:07:52Z</time>
      </trkpt>
      <trkpt lat="42.83921" lon="-0.37351">
        <ele>1618.0361328125</ele>
        <time>2015-09-07T09:08:05Z</time>
      </trkpt>
      <trkpt lat="42.83922" lon="-0.37347">
        <ele>1619.9587402344</ele>
        <time>2015-09-07T09:08:10Z</time>
      </trkpt>
      <trkpt lat="42.83924" lon="-0.37345">
        <ele>1620.9201660156</ele>
        <time>2015-09-07T09:08:13Z</time>
      </trkpt>
      <trkpt lat="42.83927" lon="-0.37337">
        <ele>1624.2846679688</ele>
        <time>2015-09-07T09:08:26Z</time>
      </trkpt>
      <trkpt lat="42.83937" lon="-0.37331">
        <ele>1624.2846679688</ele>
        <time>2015-09-07T09:08:46Z</time>
      </trkpt>
      <trkpt lat="42.83942" lon="-0.37327">
        <ele>1626.2072753906</ele>
        <time>2015-09-07T09:08:59Z</time>
      </trkpt>
      <trkpt lat="42.83945" lon="-0.37323">
        <ele>1629.5720214844</ele>
        <time>2015-09-07T09:09:12Z</time>
      </trkpt>
      <trkpt lat="42.83951" lon="-0.37328">
        <ele>1630.5334472656</ele>
        <time>2015-09-07T09:09:24Z</time>
      </trkpt>
      <trkpt lat="42.83957" lon="-0.37329">
        <ele>1633.8979492188</ele>
        <time>2015-09-07T09:09:37Z</time>
      </trkpt>
      <trkpt lat="42.83957" lon="-0.37328">
        <ele>1633.8979492188</ele>
        <time>2015-09-07T09:09:38Z</time>
      </trkpt>
      <trkpt lat="42.83956" lon="-0.37316">
        <ele>1635.33984375</ele>
        <time>2015-09-07T09:09:51Z</time>
      </trkpt>
      <trkpt lat="42.83956" lon="-0.37305">
        <ele>1636.7817382812</ele>
        <time>2015-09-07T09:10:04Z</time>
      </trkpt>
      <trkpt lat="42.83955" lon="-0.37295">
        <ele>1638.7045898438</ele>
        <time>2015-09-07T09:10:16Z</time>
      </trkpt>
      <trkpt lat="42.83953" lon="-0.37278">
        <ele>1640.146484375</ele>
        <time>2015-09-07T09:10:34Z</time>
      </trkpt>
      <trkpt lat="42.83955" lon="-0.37271">
        <ele>1642.0690917969</ele>
        <time>2015-09-07T09:10:49Z</time>
      </trkpt>
      <trkpt lat="42.83962" lon="-0.37272">
        <ele>1644.4724121094</ele>
        <time>2015-09-07T09:11:04Z</time>
      </trkpt>
      <trkpt lat="42.83971" lon="-0.37266">
        <ele>1645.9145507812</ele>
        <time>2015-09-07T09:11:21Z</time>
      </trkpt>
      <trkpt lat="42.83976" lon="-0.3726">
        <ele>1647.8371582031</ele>
        <time>2015-09-07T09:11:36Z</time>
      </trkpt>
      <trkpt lat="42.8398" lon="-0.37256">
        <ele>1650.2404785156</ele>
        <time>2015-09-07T09:11:49Z</time>
      </trkpt>
      <trkpt lat="42.83988" lon="-0.37254">
        <ele>1651.6823730469</ele>
        <time>2015-09-07T09:12:01Z</time>
      </trkpt>
      <trkpt lat="42.83998" lon="-0.37249">
        <ele>1655.046875</ele>
        <time>2015-09-07T09:12:16Z</time>
      </trkpt>
      <trkpt lat="42.84004" lon="-0.37244">
        <ele>1657.4501953125</ele>
        <time>2015-09-07T09:12:31Z</time>
      </trkpt>
      <trkpt lat="42.84004" lon="-0.37244">
        <ele>1657.4501953125</ele>
        <time>2015-09-07T09:12:32Z</time>
      </trkpt>
      <trkpt lat="42.84004" lon="-0.37236">
        <ele>1658.8920898438</ele>
        <time>2015-09-07T09:12:42Z</time>
      </trkpt>
      <trkpt lat="42.84004" lon="-0.37217">
        <ele>1660.3342285156</ele>
        <time>2015-09-07T09:13:00Z</time>
      </trkpt>
      <trkpt lat="42.84006" lon="-0.37195">
        <ele>1662.7375488281</ele>
        <time>2015-09-07T09:13:20Z</time>
      </trkpt>
      <trkpt lat="42.84009" lon="-0.37174">
        <ele>1664.66015625</ele>
        <time>2015-09-07T09:13:38Z</time>
      </trkpt>
      <trkpt lat="42.84015" lon="-0.3716">
        <ele>1666.5827636719</ele>
        <time>2015-09-07T09:13:55Z</time>
      </trkpt>
      <trkpt lat="42.84016" lon="-0.37139">
        <ele>1668.9860839844</ele>
        <time>2015-09-07T09:14:13Z</time>
      </trkpt>
      <trkpt lat="42.84018" lon="-0.37135">
        <ele>1670.9086914062</ele>
        <time>2015-09-07T09:14:19Z</time>
      </trkpt>
      <trkpt lat="42.84021" lon="-0.37119">
        <ele>1672.3505859375</ele>
        <time>2015-09-07T09:14:36Z</time>
      </trkpt>
      <trkpt lat="42.84025" lon="-0.37108">
        <ele>1674.2731933594</ele>
        <time>2015-09-07T09:14:49Z</time>
      </trkpt>
      <trkpt lat="42.8403" lon="-0.37089">
        <ele>1675.7150878906</ele>
        <time>2015-09-07T09:15:09Z</time>
      </trkpt>
      <trkpt lat="42.84033" lon="-0.37072">
        <ele>1677.1574707031</ele>
        <time>2015-09-07T09:15:26Z</time>
      </trkpt>
      <trkpt lat="42.84035" lon="-0.37056">
        <ele>1679.560546875</ele>
        <time>2015-09-07T09:15:44Z</time>
      </trkpt>
      <trkpt lat="42.84038" lon="-0.37043">
        <ele>1681.4831542969</ele>
        <time>2015-09-07T09:15:59Z</time>
      </trkpt>
      <trkpt lat="42.84042" lon="-0.37033">
        <ele>1684.8479003906</ele>
        <time>2015-09-07T09:16:12Z</time>
      </trkpt>
      <trkpt lat="42.84046" lon="-0.37017">
        <ele>1686.2897949219</ele>
        <time>2015-09-07T09:16:32Z</time>
      </trkpt>
      <trkpt lat="42.84048" lon="-0.3701">
        <ele>1687.7316894531</ele>
        <time>2015-09-07T09:16:42Z</time>
      </trkpt>
      <trkpt lat="42.84053" lon="-0.37">
        <ele>1691.0961914062</ele>
        <time>2015-09-07T09:16:53Z</time>
      </trkpt>
      <trkpt lat="42.84059" lon="-0.36989">
        <ele>1691.5769042969</ele>
        <time>2015-09-07T09:17:08Z</time>
      </trkpt>
      <trkpt lat="42.84067" lon="-0.36983">
        <ele>1693.98046875</ele>
        <time>2015-09-07T09:17:31Z</time>
      </trkpt>
      <trkpt lat="42.84069" lon="-0.36964">
        <ele>1694.9416503906</ele>
        <time>2015-09-07T09:17:51Z</time>
      </trkpt>
      <trkpt lat="42.84069" lon="-0.36946">
        <ele>1697.8256835938</ele>
        <time>2015-09-07T09:18:08Z</time>
      </trkpt>
      <trkpt lat="42.84075" lon="-0.3693">
        <ele>1698.3061523438</ele>
        <time>2015-09-07T09:18:28Z</time>
      </trkpt>
      <trkpt lat="42.84077" lon="-0.36922">
        <ele>1701.6708984375</ele>
        <time>2015-09-07T09:18:37Z</time>
      </trkpt>
      <trkpt lat="42.84082" lon="-0.3691">
        <ele>1702.6320800781</ele>
        <time>2015-09-07T09:18:50Z</time>
      </trkpt>
      <trkpt lat="42.84087" lon="-0.369">
        <ele>1702.6320800781</ele>
        <time>2015-09-07T09:19:00Z</time>
      </trkpt>
      <trkpt lat="42.84095" lon="-0.36889">
        <ele>1704.07421875</ele>
        <time>2015-09-07T09:19:12Z</time>
      </trkpt>
      <trkpt lat="42.84097" lon="-0.36878">
        <ele>1706.4772949219</ele>
        <time>2015-09-07T09:19:29Z</time>
      </trkpt>
      <trkpt lat="42.84095" lon="-0.36861">
        <ele>1709.8420410156</ele>
        <time>2015-09-07T09:19:47Z</time>
      </trkpt>
      <trkpt lat="42.84096" lon="-0.36845">
        <ele>1710.8034667969</ele>
        <time>2015-09-07T09:20:04Z</time>
      </trkpt>
      <trkpt lat="42.84098" lon="-0.36834">
        <ele>1712.7260742188</ele>
        <time>2015-09-07T09:20:19Z</time>
      </trkpt>
      <trkpt lat="42.84103" lon="-0.36822">
        <ele>1714.16796875</ele>
        <time>2015-09-07T09:20:36Z</time>
      </trkpt>
      <trkpt lat="42.84106" lon="-0.36809">
        <ele>1716.5712890625</ele>
        <time>2015-09-07T09:20:50Z</time>
      </trkpt>
      <trkpt lat="42.84111" lon="-0.36796">
        <ele>1719.9357910156</ele>
        <time>2015-09-07T09:21:06Z</time>
      </trkpt>
      <trkpt lat="42.84117" lon="-0.36784">
        <ele>1720.8972167969</ele>
        <time>2015-09-07T09:21:20Z</time>
      </trkpt>
      <trkpt lat="42.84119" lon="-0.36771">
        <ele>1721.8583984375</ele>
        <time>2015-09-07T09:21:34Z</time>
      </trkpt>
      <trkpt lat="42.84121" lon="-0.36759">
        <ele>1723.3005371094</ele>
        <time>2015-09-07T09:21:47Z</time>
      </trkpt>
      <trkpt lat="42.84119" lon="-0.3675">
        <ele>1723.3005371094</ele>
        <time>2015-09-07T09:22:05Z</time>
      </trkpt>
      <trkpt lat="42.84122" lon="-0.36737">
        <ele>1724.2619628906</ele>
        <time>2015-09-07T09:22:27Z</time>
      </trkpt>
      <trkpt lat="42.8412" lon="-0.36738">
        <ele>1724.2619628906</ele>
        <time>2015-09-07T09:23:05Z</time>
      </trkpt>
      <trkpt lat="42.84121" lon="-0.36743">
        <ele>1725.2231445312</ele>
        <time>2015-09-07T09:23:43Z</time>
      </trkpt>
      <trkpt lat="42.84121" lon="-0.36738">
        <ele>1724.2619628906</ele>
        <time>2015-09-07T09:27:26Z</time>
      </trkpt>
      <trkpt lat="42.84116" lon="-0.36741">
        <ele>1725.2231445312</ele>
        <time>2015-09-07T09:28:44Z</time>
      </trkpt>
      <trkpt lat="42.84117" lon="-0.36735">
        <ele>1725.2231445312</ele>
        <time>2015-09-07T09:29:01Z</time>
      </trkpt>
      <trkpt lat="42.84123" lon="-0.36716">
        <ele>1726.6652832031</ele>
        <time>2015-09-07T09:29:21Z</time>
      </trkpt>
      <trkpt lat="42.84133" lon="-0.36698">
        <ele>1729.5490722656</ele>
        <time>2015-09-07T09:29:43Z</time>
      </trkpt>
      <trkpt lat="42.84141" lon="-0.36679">
        <ele>1731.4716796875</ele>
        <time>2015-09-07T09:30:05Z</time>
      </trkpt>
      <trkpt lat="42.84147" lon="-0.36666">
        <ele>1735.3168945312</ele>
        <time>2015-09-07T09:30:21Z</time>
      </trkpt>
      <trkpt lat="42.84156" lon="-0.36651">
        <ele>1738.2009277344</ele>
        <time>2015-09-07T09:30:43Z</time>
      </trkpt>
      <trkpt lat="42.84162" lon="-0.36633">
        <ele>1741.0849609375</ele>
        <time>2015-09-07T09:31:03Z</time>
      </trkpt>
      <trkpt lat="42.84169" lon="-0.36619">
        <ele>1743.0075683594</ele>
        <time>2015-09-07T09:31:22Z</time>
      </trkpt>
      <trkpt lat="42.84173" lon="-0.36601">
        <ele>1746.3723144531</ele>
        <time>2015-09-07T09:31:42Z</time>
      </trkpt>
      <trkpt lat="42.84176" lon="-0.36585">
        <ele>1749.2561035156</ele>
        <time>2015-09-07T09:32:00Z</time>
      </trkpt>
      <trkpt lat="42.84179" lon="-0.36568">
        <ele>1751.1787109375</ele>
        <time>2015-09-07T09:32:20Z</time>
      </trkpt>
      <trkpt lat="42.84181" lon="-0.36548">
        <ele>1752.6206054688</ele>
        <time>2015-09-07T09:32:43Z</time>
      </trkpt>
      <trkpt lat="42.84179" lon="-0.36529">
        <ele>1755.5046386719</ele>
        <time>2015-09-07T09:33:04Z</time>
      </trkpt>
      <trkpt lat="42.84178" lon="-0.3651">
        <ele>1758.388671875</ele>
        <time>2015-09-07T09:33:24Z</time>
      </trkpt>
      <trkpt lat="42.84186" lon="-0.36494">
        <ele>1760.7919921875</ele>
        <time>2015-09-07T09:33:43Z</time>
      </trkpt>
      <trkpt lat="42.84188" lon="-0.36488">
        <ele>1761.7534179688</ele>
        <time>2015-09-07T09:33:50Z</time>
      </trkpt>
      <trkpt lat="42.84192" lon="-0.36477">
        <ele>1763.67578125</ele>
        <time>2015-09-07T09:34:01Z</time>
      </trkpt>
      <trkpt lat="42.84199" lon="-0.36462">
        <ele>1766.0791015625</ele>
        <time>2015-09-07T09:34:21Z</time>
      </trkpt>
      <trkpt lat="42.84197" lon="-0.36443">
        <ele>1767.5209960938</ele>
        <time>2015-09-07T09:34:40Z</time>
      </trkpt>
      <trkpt lat="42.84197" lon="-0.36423">
        <ele>1768.482421875</ele>
        <time>2015-09-07T09:35:00Z</time>
      </trkpt>
      <trkpt lat="42.84203" lon="-0.36409">
        <ele>1771.8469238281</ele>
        <time>2015-09-07T09:35:18Z</time>
      </trkpt>
      <trkpt lat="42.84209" lon="-0.3639">
        <ele>1773.2893066406</ele>
        <time>2015-09-07T09:35:38Z</time>
      </trkpt>
      <trkpt lat="42.84209" lon="-0.36372">
        <ele>1775.6923828125</ele>
        <time>2015-09-07T09:35:57Z</time>
      </trkpt>
      <trkpt lat="42.84205" lon="-0.36358">
        <ele>1778.095703125</ele>
        <time>2015-09-07T09:36:14Z</time>
      </trkpt>
      <trkpt lat="42.84208" lon="-0.36339">
        <ele>1780.9797363281</ele>
        <time>2015-09-07T09:36:33Z</time>
      </trkpt>
      <trkpt lat="42.84209" lon="-0.3632">
        <ele>1782.9020996094</ele>
        <time>2015-09-07T09:36:50Z</time>
      </trkpt>
      <trkpt lat="42.84215" lon="-0.36313">
        <ele>1785.7861328125</ele>
        <time>2015-09-07T09:37:01Z</time>
      </trkpt>
      <trkpt lat="42.84221" lon="-0.36299">
        <ele>1787.7087402344</ele>
        <time>2015-09-07T09:37:22Z</time>
      </trkpt>
      <trkpt lat="42.84219" lon="-0.36286">
        <ele>1788.1896972656</ele>
        <time>2015-09-07T09:37:38Z</time>
      </trkpt>
      <trkpt lat="42.84217" lon="-0.36277">
        <ele>1792.0349121094</ele>
        <time>2015-09-07T09:37:48Z</time>
      </trkpt>
      <trkpt lat="42.84215" lon="-0.36273">
        <ele>1791.0734863281</ele>
        <time>2015-09-07T09:38:08Z</time>
      </trkpt>
      <trkpt lat="42.84216" lon="-0.36263">
        <ele>1794.4379882812</ele>
        <time>2015-09-07T09:38:32Z</time>
      </trkpt>
      <trkpt lat="42.84215" lon="-0.36245">
        <ele>1796.3608398438</ele>
        <time>2015-09-07T09:38:52Z</time>
      </trkpt>
      <trkpt lat="42.84214" lon="-0.36226">
        <ele>1796.3608398438</ele>
        <time>2015-09-07T09:39:10Z</time>
      </trkpt>
      <trkpt lat="42.84217" lon="-0.36207">
        <ele>1799.2446289062</ele>
        <time>2015-09-07T09:39:30Z</time>
      </trkpt>
      <trkpt lat="42.84222" lon="-0.3619">
        <ele>1801.1672363281</ele>
        <time>2015-09-07T09:39:48Z</time>
      </trkpt>
      <trkpt lat="42.84226" lon="-0.36167">
        <ele>1804.0515136719</ele>
        <time>2015-09-07T09:40:12Z</time>
      </trkpt>
      <trkpt lat="42.84228" lon="-0.36155">
        <ele>1805.0126953125</ele>
        <time>2015-09-07T09:40:26Z</time>
      </trkpt>
      <trkpt lat="42.84228" lon="-0.3614">
        <ele>1806.9353027344</ele>
        <time>2015-09-07T09:40:41Z</time>
      </trkpt>
      <trkpt lat="42.84236" lon="-0.36146">
        <ele>1809.8190917969</ele>
        <time>2015-09-07T09:40:55Z</time>
      </trkpt>
      <trkpt lat="42.84245" lon="-0.36169">
        <ele>1811.7419433594</ele>
        <time>2015-09-07T09:41:19Z</time>
      </trkpt>
      <trkpt lat="42.8425" lon="-0.36184">
        <ele>1814.6257324219</ele>
        <time>2015-09-07T09:41:36Z</time>
      </trkpt>
      <trkpt lat="42.84255" lon="-0.36186">
        <ele>1816.0676269531</ele>
        <time>2015-09-07T09:41:54Z</time>
      </trkpt>
      <trkpt lat="42.84256" lon="-0.36176">
        <ele>1818.9516601562</ele>
        <time>2015-09-07T09:42:05Z</time>
      </trkpt>
      <trkpt lat="42.84259" lon="-0.36161">
        <ele>1820.3937988281</ele>
        <time>2015-09-07T09:42:21Z</time>
      </trkpt>
      <trkpt lat="42.84262" lon="-0.36157">
        <ele>1822.31640625</ele>
        <time>2015-09-07T09:42:31Z</time>
      </trkpt>
      <trkpt lat="42.8426" lon="-0.36142">
        <ele>1824.2390136719</ele>
        <time>2015-09-07T09:42:46Z</time>
      </trkpt>
      <trkpt lat="42.84263" lon="-0.36132">
        <ele>1826.1616210938</ele>
        <time>2015-09-07T09:42:58Z</time>
      </trkpt>
      <trkpt lat="42.84266" lon="-0.3612">
        <ele>1827.603515625</ele>
        <time>2015-09-07T09:43:11Z</time>
      </trkpt>
      <trkpt lat="42.8427" lon="-0.36104">
        <ele>1829.5261230469</ele>
        <time>2015-09-07T09:43:29Z</time>
      </trkpt>
      <trkpt lat="42.84273" lon="-0.36095">
        <ele>1830.9682617188</ele>
        <time>2015-09-07T09:43:42Z</time>
      </trkpt>
      <trkpt lat="42.84275" lon="-0.36085">
        <ele>1833.8520507812</ele>
        <time>2015-09-07T09:43:54Z</time>
      </trkpt>
      <trkpt lat="42.84277" lon="-0.3607">
        <ele>1835.7746582031</ele>
        <time>2015-09-07T09:44:10Z</time>
      </trkpt>
      <trkpt lat="42.8428" lon="-0.36062">
        <ele>1837.6975097656</ele>
        <time>2015-09-07T09:44:22Z</time>
      </trkpt>
      <trkpt lat="42.84278" lon="-0.36068">
        <ele>1839.1394042969</ele>
        <time>2015-09-07T09:44:52Z</time>
      </trkpt>
      <trkpt lat="42.84283" lon="-0.36044">
        <ele>1840.1008300781</ele>
        <time>2015-09-07T09:45:15Z</time>
      </trkpt>
      <trkpt lat="42.84283" lon="-0.36026">
        <ele>1842.5041503906</ele>
        <time>2015-09-07T09:45:30Z</time>
      </trkpt>
      <trkpt lat="42.84284" lon="-0.36008">
        <ele>1844.4265136719</ele>
        <time>2015-09-07T09:45:47Z</time>
      </trkpt>
      <trkpt lat="42.84288" lon="-0.35999">
        <ele>1847.310546875</ele>
        <time>2015-09-07T09:46:00Z</time>
      </trkpt>
      <trkpt lat="42.84289" lon="-0.35987">
        <ele>1848.7524414062</ele>
        <time>2015-09-07T09:46:15Z</time>
      </trkpt>
      <trkpt lat="42.84291" lon="-0.35977">
        <ele>1850.1945800781</ele>
        <time>2015-09-07T09:46:35Z</time>
      </trkpt>
      <trkpt lat="42.84296" lon="-0.35959">
        <ele>1853.0786132812</ele>
        <time>2015-09-07T09:46:57Z</time>
      </trkpt>
      <trkpt lat="42.84294" lon="-0.35935">
        <ele>1856.4431152344</ele>
        <time>2015-09-07T09:47:17Z</time>
      </trkpt>
      <trkpt lat="42.84298" lon="-0.3592">
        <ele>1857.8852539062</ele>
        <time>2015-09-07T09:47:35Z</time>
      </trkpt>
      <trkpt lat="42.84301" lon="-0.35912">
        <ele>1859.8076171875</ele>
        <time>2015-09-07T09:47:46Z</time>
      </trkpt>
      <trkpt lat="42.84309" lon="-0.35905">
        <ele>1861.73046875</ele>
        <time>2015-09-07T09:48:28Z</time>
      </trkpt>
      <trkpt lat="42.84309" lon="-0.35894">
        <ele>1862.6916503906</ele>
        <time>2015-09-07T09:48:39Z</time>
      </trkpt>
      <trkpt lat="42.84305" lon="-0.35871">
        <ele>1865.5756835938</ele>
        <time>2015-09-07T09:48:57Z</time>
      </trkpt>
      <trkpt lat="42.84305" lon="-0.35858">
        <ele>1867.9787597656</ele>
        <time>2015-09-07T09:49:14Z</time>
      </trkpt>
      <trkpt lat="42.84304" lon="-0.35838">
        <ele>1870.8630371094</ele>
        <time>2015-09-07T09:49:32Z</time>
      </trkpt>
      <trkpt lat="42.84305" lon="-0.35816">
        <ele>1872.7856445312</ele>
        <time>2015-09-07T09:49:54Z</time>
      </trkpt>
      <trkpt lat="42.84309" lon="-0.35796">
        <ele>1875.6694335938</ele>
        <time>2015-09-07T09:50:13Z</time>
      </trkpt>
      <trkpt lat="42.8431" lon="-0.35781">
        <ele>1877.5920410156</ele>
        <time>2015-09-07T09:50:28Z</time>
      </trkpt>
      <trkpt lat="42.8431" lon="-0.35769">
        <ele>1879.5146484375</ele>
        <time>2015-09-07T09:50:39Z</time>
      </trkpt>
      <trkpt lat="42.84313" lon="-0.35758">
        <ele>1881.4372558594</ele>
        <time>2015-09-07T09:50:54Z</time>
      </trkpt>
      <trkpt lat="42.84319" lon="-0.35761">
        <ele>1881.4372558594</ele>
        <time>2015-09-07T09:51:09Z</time>
      </trkpt>
      <trkpt lat="42.8432" lon="-0.3576">
        <ele>1880.4760742188</ele>
        <time>2015-09-07T09:51:32Z</time>
      </trkpt>
      <trkpt lat="42.84318" lon="-0.3576">
        <ele>1881.4372558594</ele>
        <time>2015-09-07T09:53:27Z</time>
      </trkpt>
      <trkpt lat="42.84318" lon="-0.3576">
        <ele>1880.9567871094</ele>
        <time>2015-09-07T09:53:57Z</time>
      </trkpt>
      <trkpt lat="42.84318" lon="-0.35762">
        <ele>1881.4372558594</ele>
        <time>2015-09-07T09:55:58Z</time>
      </trkpt>
      <trkpt lat="42.84319" lon="-0.35759">
        <ele>1880.9567871094</ele>
        <time>2015-09-07T09:56:44Z</time>
      </trkpt>
      <trkpt lat="42.84317" lon="-0.35764">
        <ele>1881.91796875</ele>
        <time>2015-09-07T09:57:20Z</time>
      </trkpt>
      <trkpt lat="42.84316" lon="-0.35766">
        <ele>1881.91796875</ele>
        <time>2015-09-07T09:57:48Z</time>
      </trkpt>
      <trkpt lat="42.84316" lon="-0.35752">
        <ele>1881.91796875</ele>
        <time>2015-09-07T09:58:01Z</time>
      </trkpt>
      <trkpt lat="42.84315" lon="-0.35737">
        <ele>1882.8791503906</ele>
        <time>2015-09-07T09:58:13Z</time>
      </trkpt>
      <trkpt lat="42.84317" lon="-0.3573">
        <ele>1883.8405761719</ele>
        <time>2015-09-07T09:58:22Z</time>
      </trkpt>
      <trkpt lat="42.84319" lon="-0.3572">
        <ele>1887.2053222656</ele>
        <time>2015-09-07T09:58:34Z</time>
      </trkpt>
      <trkpt lat="42.84318" lon="-0.35711">
        <ele>1888.1667480469</ele>
        <time>2015-09-07T09:58:47Z</time>
      </trkpt>
      <trkpt lat="42.84317" lon="-0.35715">
        <ele>1888.6474609375</ele>
        <time>2015-09-07T09:59:01Z</time>
      </trkpt>
      <trkpt lat="42.84315" lon="-0.35695">
        <ele>1890.5698242188</ele>
        <time>2015-09-07T09:59:16Z</time>
      </trkpt>
      <trkpt lat="42.84311" lon="-0.35685">
        <ele>1891.53125</ele>
        <time>2015-09-07T09:59:28Z</time>
      </trkpt>
      <trkpt lat="42.84308" lon="-0.35668">
        <ele>1893.4538574219</ele>
        <time>2015-09-07T09:59:44Z</time>
      </trkpt>
      <trkpt lat="42.84309" lon="-0.35655">
        <ele>1897.2990722656</ele>
        <time>2015-09-07T10:00:00Z</time>
      </trkpt>
      <trkpt lat="42.84309" lon="-0.3565">
        <ele>1896.337890625</ele>
        <time>2015-09-07T10:00:07Z</time>
      </trkpt>
      <trkpt lat="42.84309" lon="-0.35648">
        <ele>1897.7797851562</ele>
        <time>2015-09-07T10:00:09Z</time>
      </trkpt>
      <trkpt lat="42.84312" lon="-0.35639">
        <ele>1898.7409667969</ele>
        <time>2015-09-07T10:00:28Z</time>
      </trkpt>
      <trkpt lat="42.84315" lon="-0.35635">
        <ele>1900.6638183594</ele>
        <time>2015-09-07T10:00:41Z</time>
      </trkpt>
      <trkpt lat="42.84321" lon="-0.35633">
        <ele>1902.1057128906</ele>
        <time>2015-09-07T10:00:54Z</time>
      </trkpt>
      <trkpt lat="42.84328" lon="-0.35631">
        <ele>1904.0285644531</ele>
        <time>2015-09-07T10:01:07Z</time>
      </trkpt>
      <trkpt lat="42.84329" lon="-0.35629">
        <ele>1904.9897460938</ele>
        <time>2015-09-07T10:01:19Z</time>
      </trkpt>
      <trkpt lat="42.84328" lon="-0.35623">
        <ele>1905.9509277344</ele>
        <time>2015-09-07T10:01:31Z</time>
      </trkpt>
      <trkpt lat="42.84335" lon="-0.3562">
        <ele>1907.3930664062</ele>
        <time>2015-09-07T10:01:43Z</time>
      </trkpt>
      <trkpt lat="42.84342" lon="-0.35617">
        <ele>1909.3156738281</ele>
        <time>2015-09-07T10:01:58Z</time>
      </trkpt>
      <trkpt lat="42.84348" lon="-0.35614">
        <ele>1910.2768554688</ele>
        <time>2015-09-07T10:02:11Z</time>
      </trkpt>
      <trkpt lat="42.84341" lon="-0.35605">
        <ele>1911.7189941406</ele>
        <time>2015-09-07T10:02:29Z</time>
      </trkpt>
      <trkpt lat="42.84336" lon="-0.35594">
        <ele>1913.6413574219</ele>
        <time>2015-09-07T10:02:45Z</time>
      </trkpt>
      <trkpt lat="42.84334" lon="-0.35582">
        <ele>1915.5642089844</ele>
        <time>2015-09-07T10:03:00Z</time>
      </trkpt>
      <trkpt lat="42.84338" lon="-0.35581">
        <ele>1915.5642089844</ele>
        <time>2015-09-07T10:03:12Z</time>
      </trkpt>
      <trkpt lat="42.84345" lon="-0.35578">
        <ele>1918.9289550781</ele>
        <time>2015-09-07T10:03:29Z</time>
      </trkpt>
      <trkpt lat="42.84352" lon="-0.35578">
        <ele>1919.8901367188</ele>
        <time>2015-09-07T10:03:41Z</time>
      </trkpt>
      <trkpt lat="42.84358" lon="-0.35575">
        <ele>1921.8127441406</ele>
        <time>2015-09-07T10:03:52Z</time>
      </trkpt>
      <trkpt lat="42.84361" lon="-0.35577">
        <ele>1922.7741699219</ele>
        <time>2015-09-07T10:04:06Z</time>
      </trkpt>
      <trkpt lat="42.8436" lon="-0.35573">
        <ele>1923.7353515625</ele>
        <time>2015-09-07T10:04:20Z</time>
      </trkpt>
      <trkpt lat="42.84354" lon="-0.35568">
        <ele>1924.2160644531</ele>
        <time>2015-09-07T10:04:33Z</time>
      </trkpt>
      <trkpt lat="42.84351" lon="-0.35559">
        <ele>1927.1000976562</ele>
        <time>2015-09-07T10:04:46Z</time>
      </trkpt>
      <trkpt lat="42.84349" lon="-0.35556">
        <ele>1928.0612792969</ele>
        <time>2015-09-07T10:04:53Z</time>
      </trkpt>
      <trkpt lat="42.84352" lon="-0.3555">
        <ele>1929.5031738281</ele>
        <time>2015-09-07T10:05:07Z</time>
      </trkpt>
      <trkpt lat="42.84359" lon="-0.35545">
        <ele>1929.5031738281</ele>
        <time>2015-09-07T10:05:22Z</time>
      </trkpt>
      <trkpt lat="42.8436" lon="-0.35533">
        <ele>1933.3486328125</ele>
        <time>2015-09-07T10:05:36Z</time>
      </trkpt>
      <trkpt lat="42.84362" lon="-0.35522">
        <ele>1935.2712402344</ele>
        <time>2015-09-07T10:05:51Z</time>
      </trkpt>
      <trkpt lat="42.84368" lon="-0.35517">
        <ele>1936.7131347656</ele>
        <time>2015-09-07T10:06:06Z</time>
      </trkpt>
      <trkpt lat="42.84376" lon="-0.35518">
        <ele>1938.6359863281</ele>
        <time>2015-09-07T10:06:19Z</time>
      </trkpt>
      <trkpt lat="42.84383" lon="-0.35522">
        <ele>1940.5583496094</ele>
        <time>2015-09-07T10:06:31Z</time>
      </trkpt>
      <trkpt lat="42.84391" lon="-0.35527">
        <ele>1942.0004882812</ele>
        <time>2015-09-07T10:06:43Z</time>
      </trkpt>
      <trkpt lat="42.84393" lon="-0.35527">
        <ele>1942.9616699219</ele>
        <time>2015-09-07T10:06:48Z</time>
      </trkpt>
      <trkpt lat="42.84393" lon="-0.35525">
        <ele>1942.4812011719</ele>
        <time>2015-09-07T10:06:58Z</time>
      </trkpt>
      <trkpt lat="42.84388" lon="-0.3551">
        <ele>1945.3649902344</ele>
        <time>2015-09-07T10:07:15Z</time>
      </trkpt>
      <trkpt lat="42.84391" lon="-0.35497">
        <ele>1946.3264160156</ele>
        <time>2015-09-07T10:07:33Z</time>
      </trkpt>
      <trkpt lat="42.84392" lon="-0.3549">
        <ele>1948.7297363281</ele>
        <time>2015-09-07T10:07:44Z</time>
      </trkpt>
      <trkpt lat="42.84399" lon="-0.35494">
        <ele>1950.171875</ele>
        <time>2015-09-07T10:07:56Z</time>
      </trkpt>
      <trkpt lat="42.84406" lon="-0.35506">
        <ele>1952.0942382812</ele>
        <time>2015-09-07T10:08:12Z</time>
      </trkpt>
      <trkpt lat="42.84411" lon="-0.35514">
        <ele>1953.0556640625</ele>
        <time>2015-09-07T10:08:24Z</time>
      </trkpt>
      <trkpt lat="42.84419" lon="-0.35519">
        <ele>1954.4975585938</ele>
        <time>2015-09-07T10:08:43Z</time>
      </trkpt>
      <trkpt lat="42.84421" lon="-0.35523">
        <ele>1955.458984375</ele>
        <time>2015-09-07T10:08:55Z</time>
      </trkpt>
      <trkpt lat="42.84423" lon="-0.35526">
        <ele>1956.4201660156</ele>
        <time>2015-09-07T10:09:27Z</time>
      </trkpt>
      <trkpt lat="42.84431" lon="-0.35537">
        <ele>1958.8234863281</ele>
        <time>2015-09-07T10:09:46Z</time>
      </trkpt>
      <trkpt lat="42.84438" lon="-0.35541">
        <ele>1960.2653808594</ele>
        <time>2015-09-07T10:09:58Z</time>
      </trkpt>
      <trkpt lat="42.84448" lon="-0.3555">
        <ele>1961.7075195312</ele>
        <time>2015-09-07T10:10:17Z</time>
      </trkpt>
      <trkpt lat="42.8445" lon="-0.35551">
        <ele>1964.5915527344</ele>
        <time>2015-09-07T10:10:34Z</time>
      </trkpt>
      <trkpt lat="42.84449" lon="-0.35535">
        <ele>1966.9948730469</ele>
        <time>2015-09-07T10:10:53Z</time>
      </trkpt>
      <trkpt lat="42.84448" lon="-0.3552">
        <ele>1969.8786621094</ele>
        <time>2015-09-07T10:11:11Z</time>
      </trkpt>
      <trkpt lat="42.84447" lon="-0.35509">
        <ele>1971.8012695312</ele>
        <time>2015-09-07T10:11:25Z</time>
      </trkpt>
      <trkpt lat="42.84447" lon="-0.35503">
        <ele>1973.2434082031</ele>
        <time>2015-09-07T10:11:41Z</time>
      </trkpt>
      <trkpt lat="42.8445" lon="-0.35491">
        <ele>1975.646484375</ele>
        <time>2015-09-07T10:11:59Z</time>
      </trkpt>
      <trkpt lat="42.84451" lon="-0.3548">
        <ele>1978.0498046875</ele>
        <time>2015-09-07T10:12:12Z</time>
      </trkpt>
      <trkpt lat="42.84451" lon="-0.35462">
        <ele>1979.0109863281</ele>
        <time>2015-09-07T10:12:32Z</time>
      </trkpt>
      <trkpt lat="42.84453" lon="-0.35451">
        <ele>1982.3759765625</ele>
        <time>2015-09-07T10:12:46Z</time>
      </trkpt>
      <trkpt lat="42.84453" lon="-0.3545">
        <ele>1981.8952636719</ele>
        <time>2015-09-07T10:12:47Z</time>
      </trkpt>
      <trkpt lat="42.84454" lon="-0.35436">
        <ele>1984.2985839844</ele>
        <time>2015-09-07T10:13:04Z</time>
      </trkpt>
      <trkpt lat="42.84454" lon="-0.35422">
        <ele>1986.2211914062</ele>
        <time>2015-09-07T10:13:21Z</time>
      </trkpt>
      <trkpt lat="42.84454" lon="-0.35418">
        <ele>1987.1823730469</ele>
        <time>2015-09-07T10:13:26Z</time>
      </trkpt>
      <trkpt lat="42.84456" lon="-0.35401">
        <ele>1990.06640625</ele>
        <time>2015-09-07T10:13:45Z</time>
      </trkpt>
      <trkpt lat="42.84455" lon="-0.35388">
        <ele>1992.4697265625</ele>
        <time>2015-09-07T10:13:59Z</time>
      </trkpt>
      <trkpt lat="42.84453" lon="-0.35384">
        <ele>1991.9890136719</ele>
        <time>2015-09-07T10:14:17Z</time>
      </trkpt>
      <trkpt lat="42.84462" lon="-0.35389">
        <ele>1993.9116210938</ele>
        <time>2015-09-07T10:14:33Z</time>
      </trkpt>
      <trkpt lat="42.84468" lon="-0.35403">
        <ele>1995.8342285156</ele>
        <time>2015-09-07T10:14:52Z</time>
      </trkpt>
      <trkpt lat="42.84474" lon="-0.35414">
        <ele>1998.7182617188</ele>
        <time>2015-09-07T10:15:08Z</time>
      </trkpt>
      <trkpt lat="42.8448" lon="-0.35424">
        <ele>1999.1989746094</ele>
        <time>2015-09-07T10:15:27Z</time>
      </trkpt>
      <trkpt lat="42.84481" lon="-0.35415">
        <ele>2002.0827636719</ele>
        <time>2015-09-07T10:15:41Z</time>
      </trkpt>
      <trkpt lat="42.8448" lon="-0.35401">
        <ele>2004.966796875</ele>
        <time>2015-09-07T10:15:58Z</time>
      </trkpt>
      <trkpt lat="42.84479" lon="-0.35395">
        <ele>2005.9279785156</ele>
        <time>2015-09-07T10:16:14Z</time>
      </trkpt>
      <trkpt lat="42.84479" lon="-0.35393">
        <ele>2006.8894042969</ele>
        <time>2015-09-07T10:16:25Z</time>
      </trkpt>
      <trkpt lat="42.84481" lon="-0.35383">
        <ele>2008.8120117188</ele>
        <time>2015-09-07T10:16:36Z</time>
      </trkpt>
      <trkpt lat="42.84484" lon="-0.35368">
        <ele>2010.7346191406</ele>
        <time>2015-09-07T10:16:55Z</time>
      </trkpt>
      <trkpt lat="42.84487" lon="-0.3535">
        <ele>2014.0993652344</ele>
        <time>2015-09-07T10:17:15Z</time>
      </trkpt>
      <trkpt lat="42.84487" lon="-0.35349">
        <ele>2014.580078125</ele>
        <time>2015-09-07T10:17:16Z</time>
      </trkpt>
      <trkpt lat="42.8449" lon="-0.35343">
        <ele>2016.0219726562</ele>
        <time>2015-09-07T10:17:27Z</time>
      </trkpt>
      <trkpt lat="42.84491" lon="-0.35336">
        <ele>2018.9060058594</ele>
        <time>2015-09-07T10:17:44Z</time>
      </trkpt>
      <trkpt lat="42.84491" lon="-0.35319">
        <ele>2020.3479003906</ele>
        <time>2015-09-07T10:18:02Z</time>
      </trkpt>
      <trkpt lat="42.84493" lon="-0.35299">
        <ele>2021.3090820312</ele>
        <time>2015-09-07T10:18:20Z</time>
      </trkpt>
      <trkpt lat="42.84494" lon="-0.3528">
        <ele>2024.1931152344</ele>
        <time>2015-09-07T10:18:37Z</time>
      </trkpt>
      <trkpt lat="42.84498" lon="-0.35262">
        <ele>2025.154296875</ele>
        <time>2015-09-07T10:18:55Z</time>
      </trkpt>
      <trkpt lat="42.84501" lon="-0.35253">
        <ele>2027.5576171875</ele>
        <time>2015-09-07T10:19:07Z</time>
      </trkpt>
      <trkpt lat="42.84502" lon="-0.35238">
        <ele>2029.48046875</ele>
        <time>2015-09-07T10:19:25Z</time>
      </trkpt>
      <trkpt lat="42.84502" lon="-0.35224">
        <ele>2032.8449707031</ele>
        <time>2015-09-07T10:19:42Z</time>
      </trkpt>
      <trkpt lat="42.84499" lon="-0.35209">
        <ele>2033.8063964844</ele>
        <time>2015-09-07T10:19:58Z</time>
      </trkpt>
      <trkpt lat="42.84499" lon="-0.35204">
        <ele>2035.7290039062</ele>
        <time>2015-09-07T10:20:10Z</time>
      </trkpt>
      <trkpt lat="42.84498" lon="-0.3519">
        <ele>2037.6516113281</ele>
        <time>2015-09-07T10:20:42Z</time>
      </trkpt>
      <trkpt lat="42.84496" lon="-0.35178">
        <ele>2039.57421875</ele>
        <time>2015-09-07T10:20:56Z</time>
      </trkpt>
      <trkpt lat="42.84493" lon="-0.3517">
        <ele>2040.5354003906</ele>
        <time>2015-09-07T10:21:06Z</time>
      </trkpt>
      <trkpt lat="42.8449" lon="-0.35159">
        <ele>2042.9387207031</ele>
        <time>2015-09-07T10:21:19Z</time>
      </trkpt>
      <trkpt lat="42.84488" lon="-0.35147">
        <ele>2045.8229980469</ele>
        <time>2015-09-07T10:21:36Z</time>
      </trkpt>
      <trkpt lat="42.84485" lon="-0.35135">
        <ele>2048.2260742188</ele>
        <time>2015-09-07T10:21:55Z</time>
      </trkpt>
      <trkpt lat="42.84486" lon="-0.35123">
        <ele>2048.7067871094</ele>
        <time>2015-09-07T10:22:11Z</time>
      </trkpt>
      <trkpt lat="42.84482" lon="-0.35109">
        <ele>2051.1101074219</ele>
        <time>2015-09-07T10:22:29Z</time>
      </trkpt>
      <trkpt lat="42.84479" lon="-0.351">
        <ele>2053.0327148438</ele>
        <time>2015-09-07T10:22:43Z</time>
      </trkpt>
      <trkpt lat="42.84471" lon="-0.35093">
        <ele>2053.994140625</ele>
        <time>2015-09-07T10:23:02Z</time>
      </trkpt>
      <trkpt lat="42.84465" lon="-0.35086">
        <ele>2055.4360351562</ele>
        <time>2015-09-07T10:23:16Z</time>
      </trkpt>
      <trkpt lat="42.84465" lon="-0.35074">
        <ele>2056.8779296875</ele>
        <time>2015-09-07T10:23:30Z</time>
      </trkpt>
      <trkpt lat="42.84464" lon="-0.35059">
        <ele>2057.3586425781</ele>
        <time>2015-09-07T10:23:45Z</time>
      </trkpt>
      <trkpt lat="42.84458" lon="-0.35054">
        <ele>2057.8393554688</ele>
        <time>2015-09-07T10:24:00Z</time>
      </trkpt>
      <trkpt lat="42.84455" lon="-0.35053">
        <ele>2057.8393554688</ele>
        <time>2015-09-07T10:24:17Z</time>
      </trkpt>
      <trkpt lat="42.84451" lon="-0.35053">
        <ele>2058.3198242188</ele>
        <time>2015-09-07T10:24:37Z</time>
      </trkpt>
      <trkpt lat="42.84454" lon="-0.35053">
        <ele>2056.8779296875</ele>
        <time>2015-09-07T10:25:25Z</time>
      </trkpt>
      <trkpt lat="42.84454" lon="-0.35052">
        <ele>2057.8393554688</ele>
        <time>2015-09-07T10:30:10Z</time>
      </trkpt>
      <trkpt lat="42.84455" lon="-0.35051">
        <ele>2060.7233886719</ele>
        <time>2015-09-07T10:31:36Z</time>
      </trkpt>
      <trkpt lat="42.84454" lon="-0.3505">
        <ele>2060.7233886719</ele>
        <time>2015-09-07T10:36:46Z</time>
      </trkpt>
      <trkpt lat="42.84455" lon="-0.35052">
        <ele>2057.3586425781</ele>
        <time>2015-09-07T10:41:05Z</time>
      </trkpt>
      <trkpt lat="42.84459" lon="-0.35051">
        <ele>2057.3586425781</ele>
        <time>2015-09-07T10:53:45Z</time>
      </trkpt>
      <trkpt lat="42.84461" lon="-0.3505">
        <ele>2058.3198242188</ele>
        <time>2015-09-07T10:54:37Z</time>
      </trkpt>
      <trkpt lat="42.84451" lon="-0.35052">
        <ele>2058.8005371094</ele>
        <time>2015-09-07T10:56:27Z</time>
      </trkpt>
      <trkpt lat="42.84459" lon="-0.35047">
        <ele>2059.76171875</ele>
        <time>2015-09-07T10:58:54Z</time>
      </trkpt>
      <trkpt lat="42.84457" lon="-0.3505">
        <ele>2061.6848144531</ele>
        <time>2015-09-07T11:00:49Z</time>
      </trkpt>
      <trkpt lat="42.84456" lon="-0.3505">
        <ele>2060.7233886719</ele>
        <time>2015-09-07T11:01:20Z</time>
      </trkpt>
      <trkpt lat="42.84454" lon="-0.35041">
        <ele>2061.6848144531</ele>
        <time>2015-09-07T11:01:46Z</time>
      </trkpt>
      <trkpt lat="42.84456" lon="-0.35045">
        <ele>2062.6459960938</ele>
        <time>2015-09-07T11:02:20Z</time>
      </trkpt>
      <trkpt lat="42.84459" lon="-0.35045">
        <ele>2062.1652832031</ele>
        <time>2015-09-07T11:02:35Z</time>
      </trkpt>
      <trkpt lat="42.84457" lon="-0.35032">
        <ele>2063.1267089844</ele>
        <time>2015-09-07T11:02:49Z</time>
      </trkpt>
      <trkpt lat="42.84458" lon="-0.35014">
        <ele>2063.6071777344</ele>
        <time>2015-09-07T11:03:06Z</time>
      </trkpt>
      <trkpt lat="42.8446" lon="-0.35001">
        <ele>2064.5686035156</ele>
        <time>2015-09-07T11:03:22Z</time>
      </trkpt>
      <trkpt lat="42.84457" lon="-0.34989">
        <ele>2065.5300292969</ele>
        <time>2015-09-07T11:03:36Z</time>
      </trkpt>
      <trkpt lat="42.84455" lon="-0.3498">
        <ele>2066.9719238281</ele>
        <time>2015-09-07T11:03:47Z</time>
      </trkpt>
      <trkpt lat="42.8445" lon="-0.34971">
        <ele>2067.9331054688</ele>
        <time>2015-09-07T11:03:58Z</time>
      </trkpt>
      <trkpt lat="42.84455" lon="-0.34962">
        <ele>2069.3752441406</ele>
        <time>2015-09-07T11:04:09Z</time>
      </trkpt>
      <trkpt lat="42.84449" lon="-0.34945">
        <ele>2070.3364257812</ele>
        <time>2015-09-07T11:04:23Z</time>
      </trkpt>
      <trkpt lat="42.84443" lon="-0.34925">
        <ele>2073.2204589844</ele>
        <time>2015-09-07T11:04:45Z</time>
      </trkpt>
      <trkpt lat="42.84445" lon="-0.34911">
        <ele>2073.2204589844</ele>
        <time>2015-09-07T11:04:57Z</time>
      </trkpt>
      <trkpt lat="42.84445" lon="-0.34899">
        <ele>2072.7397460938</ele>
        <time>2015-09-07T11:05:07Z</time>
      </trkpt>
      <trkpt lat="42.84456" lon="-0.34889">
        <ele>2075.6235351562</ele>
        <time>2015-09-07T11:05:26Z</time>
      </trkpt>
      <trkpt lat="42.8446" lon="-0.34885">
        <ele>2076.1044921875</ele>
        <time>2015-09-07T11:05:36Z</time>
      </trkpt>
      <trkpt lat="42.8446" lon="-0.34885">
        <ele>2076.1044921875</ele>
        <time>2015-09-07T11:05:37Z</time>
      </trkpt>
      <trkpt lat="42.84462" lon="-0.34878">
        <ele>2077.0659179688</ele>
        <time>2015-09-07T11:05:53Z</time>
      </trkpt>
      <trkpt lat="42.84467" lon="-0.34874">
        <ele>2078.98828125</ele>
        <time>2015-09-07T11:06:08Z</time>
      </trkpt>
      <trkpt lat="42.84464" lon="-0.34865">
        <ele>2081.3916015625</ele>
        <time>2015-09-07T11:06:26Z</time>
      </trkpt>
      <trkpt lat="42.84468" lon="-0.3486">
        <ele>2082.3530273438</ele>
        <time>2015-09-07T11:06:37Z</time>
      </trkpt>
      <trkpt lat="42.84473" lon="-0.34849">
        <ele>2084.2756347656</ele>
        <time>2015-09-07T11:06:58Z</time>
      </trkpt>
      <trkpt lat="42.8447" lon="-0.34843">
        <ele>2085.7175292969</ele>
        <time>2015-09-07T11:07:14Z</time>
      </trkpt>
      <trkpt lat="42.84468" lon="-0.34833">
        <ele>2087.6401367188</ele>
        <time>2015-09-07T11:07:28Z</time>
      </trkpt>
      <trkpt lat="42.84466" lon="-0.34817">
        <ele>2089.08203125</ele>
        <time>2015-09-07T11:07:49Z</time>
      </trkpt>
      <trkpt lat="42.84463" lon="-0.34805">
        <ele>2090.5239257812</ele>
        <time>2015-09-07T11:08:03Z</time>
      </trkpt>
      <trkpt lat="42.84464" lon="-0.34796">
        <ele>2090.0434570312</ele>
        <time>2015-09-07T11:08:16Z</time>
      </trkpt>
      <trkpt lat="42.8446" lon="-0.3479">
        <ele>2091.9660644531</ele>
        <time>2015-09-07T11:08:30Z</time>
      </trkpt>
      <trkpt lat="42.84467" lon="-0.34779">
        <ele>2093.408203125</ele>
        <time>2015-09-07T11:08:51Z</time>
      </trkpt>
      <trkpt lat="42.84465" lon="-0.34769">
        <ele>2094.8500976562</ele>
        <time>2015-09-07T11:09:02Z</time>
      </trkpt>
      <trkpt lat="42.84473" lon="-0.34761">
        <ele>2095.8115234375</ele>
        <time>2015-09-07T11:09:12Z</time>
      </trkpt>
      <trkpt lat="42.84476" lon="-0.34755">
        <ele>2096.2922363281</ele>
        <time>2015-09-07T11:09:18Z</time>
      </trkpt>
      <trkpt lat="42.84482" lon="-0.34744">
        <ele>2097.2534179688</ele>
        <time>2015-09-07T11:09:32Z</time>
      </trkpt>
      <trkpt lat="42.84482" lon="-0.34737">
        <ele>2098.6953125</ele>
        <time>2015-09-07T11:09:44Z</time>
      </trkpt>
      <trkpt lat="42.8447" lon="-0.34718">
        <ele>2099.6567382812</ele>
        <time>2015-09-07T11:10:00Z</time>
      </trkpt>
      <trkpt lat="42.8448" lon="-0.34706">
        <ele>2100.6179199219</ele>
        <time>2015-09-07T11:10:19Z</time>
      </trkpt>
      <trkpt lat="42.84487" lon="-0.34697">
        <ele>2102.5405273438</ele>
        <time>2015-09-07T11:10:32Z</time>
      </trkpt>
      <trkpt lat="42.84497" lon="-0.3469">
        <ele>2103.501953125</ele>
        <time>2015-09-07T11:10:44Z</time>
      </trkpt>
      <trkpt lat="42.845" lon="-0.34675">
        <ele>2106.8664550781</ele>
        <time>2015-09-07T11:11:08Z</time>
      </trkpt>
      <trkpt lat="42.84498" lon="-0.3467">
        <ele>2107.8278808594</ele>
        <time>2015-09-07T11:11:23Z</time>
      </trkpt>
      <trkpt lat="42.845" lon="-0.34668">
        <ele>2109.2700195312</ele>
        <time>2015-09-07T11:11:32Z</time>
      </trkpt>
      <trkpt lat="42.845" lon="-0.34656">
        <ele>2112.6345214844</ele>
        <time>2015-09-07T11:11:57Z</time>
      </trkpt>
      <trkpt lat="42.84501" lon="-0.34655">
        <ele>2112.6345214844</ele>
        <time>2015-09-07T11:11:58Z</time>
      </trkpt>
      <trkpt lat="42.84506" lon="-0.34654">
        <ele>2114.5571289062</ele>
        <time>2015-09-07T11:12:20Z</time>
      </trkpt>
      <trkpt lat="42.84501" lon="-0.34656">
        <ele>2115.9990234375</ele>
        <time>2015-09-07T11:12:28Z</time>
      </trkpt>
      <trkpt lat="42.84495" lon="-0.34653">
        <ele>2117.9216308594</ele>
        <time>2015-09-07T11:12:37Z</time>
      </trkpt>
      <trkpt lat="42.84488" lon="-0.34646">
        <ele>2117.9216308594</ele>
        <time>2015-09-07T11:12:45Z</time>
      </trkpt>
      <trkpt lat="42.84479" lon="-0.34645">
        <ele>2121.2861328125</ele>
        <time>2015-09-07T11:13:06Z</time>
      </trkpt>
      <trkpt lat="42.84475" lon="-0.34641">
        <ele>2122.2475585938</ele>
        <time>2015-09-07T11:13:16Z</time>
      </trkpt>
      <trkpt lat="42.84487" lon="-0.34624">
        <ele>2125.1315917969</ele>
        <time>2015-09-07T11:13:33Z</time>
      </trkpt>
      <trkpt lat="42.84484" lon="-0.34621">
        <ele>2124.6511230469</ele>
        <time>2015-09-07T11:13:46Z</time>
      </trkpt>
      <trkpt lat="42.84495" lon="-0.34605">
        <ele>2127.0544433594</ele>
        <time>2015-09-07T11:14:15Z</time>
      </trkpt>
      <trkpt lat="42.84502" lon="-0.34596">
        <ele>2130.4189453125</ele>
        <time>2015-09-07T11:14:28Z</time>
      </trkpt>
      <trkpt lat="42.84492" lon="-0.34594">
        <ele>2131.8608398438</ele>
        <time>2015-09-07T11:14:46Z</time>
      </trkpt>
      <trkpt lat="42.8449" lon="-0.34606">
        <ele>2133.7834472656</ele>
        <time>2015-09-07T11:15:03Z</time>
      </trkpt>
      <trkpt lat="42.84497" lon="-0.3459">
        <ele>2137.1479492188</ele>
        <time>2015-09-07T11:15:20Z</time>
      </trkpt>
      <trkpt lat="42.84504" lon="-0.34583">
        <ele>2138.5900878906</ele>
        <time>2015-09-07T11:15:30Z</time>
      </trkpt>
      <trkpt lat="42.84511" lon="-0.3457">
        <ele>2141.4741210938</ele>
        <time>2015-09-07T11:15:48Z</time>
      </trkpt>
      <trkpt lat="42.84522" lon="-0.34555">
        <ele>2144.8386230469</ele>
        <time>2015-09-07T11:16:23Z</time>
      </trkpt>
      <trkpt lat="42.84529" lon="-0.34557">
        <ele>2145.8000488281</ele>
        <time>2015-09-07T11:16:32Z</time>
      </trkpt>
      <trkpt lat="42.84536" lon="-0.34558">
        <ele>2148.6838378906</ele>
        <time>2015-09-07T11:16:53Z</time>
      </trkpt>
      <trkpt lat="42.84547" lon="-0.34559">
        <ele>2151.5678710938</ele>
        <time>2015-09-07T11:17:21Z</time>
      </trkpt>
      <trkpt lat="42.84553" lon="-0.34558">
        <ele>2153.4904785156</ele>
        <time>2015-09-07T11:17:31Z</time>
      </trkpt>
      <trkpt lat="42.84562" lon="-0.34555">
        <ele>2155.8935546875</ele>
        <time>2015-09-07T11:17:42Z</time>
      </trkpt>
      <trkpt lat="42.84564" lon="-0.3455">
        <ele>2159.2585449219</ele>
        <time>2015-09-07T11:17:55Z</time>
      </trkpt>
      <trkpt lat="42.84572" lon="-0.34546">
        <ele>2159.7390136719</ele>
        <time>2015-09-07T11:18:19Z</time>
      </trkpt>
      <trkpt lat="42.84581" lon="-0.3454">
        <ele>2162.1423339844</ele>
        <time>2015-09-07T11:18:35Z</time>
      </trkpt>
      <trkpt lat="42.84585" lon="-0.34529">
        <ele>2162.1423339844</ele>
        <time>2015-09-07T11:18:48Z</time>
      </trkpt>
      <trkpt lat="42.84589" lon="-0.34521">
        <ele>2162.623046875</ele>
        <time>2015-09-07T11:18:59Z</time>
      </trkpt>
      <trkpt lat="42.846" lon="-0.34513">
        <ele>2163.5842285156</ele>
        <time>2015-09-07T11:19:11Z</time>
      </trkpt>
      <trkpt lat="42.84608" lon="-0.34512">
        <ele>2164.5456542969</ele>
        <time>2015-09-07T11:19:21Z</time>
      </trkpt>
      <trkpt lat="42.84612" lon="-0.34506">
        <ele>2165.0263671875</ele>
        <time>2015-09-07T11:19:30Z</time>
      </trkpt>
      <trkpt lat="42.84618" lon="-0.34507">
        <ele>2165.0263671875</ele>
        <time>2015-09-07T11:19:44Z</time>
      </trkpt>
      <trkpt lat="42.84634" lon="-0.34492">
        <ele>2166.4682617188</ele>
        <time>2015-09-07T11:20:05Z</time>
      </trkpt>
      <trkpt lat="42.84646" lon="-0.34484">
        <ele>2167.91015625</ele>
        <time>2015-09-07T11:20:19Z</time>
      </trkpt>
      <trkpt lat="42.8465" lon="-0.34476">
        <ele>2168.8715820312</ele>
        <time>2015-09-07T11:20:41Z</time>
      </trkpt>
      <trkpt lat="42.84656" lon="-0.3447">
        <ele>2168.3908691406</ele>
        <time>2015-09-07T11:21:09Z</time>
      </trkpt>
      <trkpt lat="42.84672" lon="-0.34451">
        <ele>2168.8715820312</ele>
        <time>2015-09-07T11:21:31Z</time>
      </trkpt>
      <trkpt lat="42.84686" lon="-0.34434">
        <ele>2171.2746582031</ele>
        <time>2015-09-07T11:21:53Z</time>
      </trkpt>
      <trkpt lat="42.84696" lon="-0.34418">
        <ele>2173.1977539062</ele>
        <time>2015-09-07T11:22:14Z</time>
      </trkpt>
      <trkpt lat="42.84702" lon="-0.34408">
        <ele>2176.0815429688</ele>
        <time>2015-09-07T11:22:29Z</time>
      </trkpt>
      <trkpt lat="42.84712" lon="-0.344">
        <ele>2178.4848632812</ele>
        <time>2015-09-07T11:22:47Z</time>
      </trkpt>
      <trkpt lat="42.84722" lon="-0.34398">
        <ele>2179.4460449219</ele>
        <time>2015-09-07T11:23:01Z</time>
      </trkpt>
      <trkpt lat="42.84732" lon="-0.34393">
        <ele>2181.3686523438</ele>
        <time>2015-09-07T11:23:17Z</time>
      </trkpt>
      <trkpt lat="42.84738" lon="-0.34386">
        <ele>2182.330078125</ele>
        <time>2015-09-07T11:23:30Z</time>
      </trkpt>
      <trkpt lat="42.84755" lon="-0.34379">
        <ele>2184.7333984375</ele>
        <time>2015-09-07T11:24:07Z</time>
      </trkpt>
      <trkpt lat="42.84755" lon="-0.34375">
        <ele>2185.6945800781</ele>
        <time>2015-09-07T11:24:11Z</time>
      </trkpt>
      <trkpt lat="42.84758" lon="-0.34365">
        <ele>2186.6557617188</ele>
        <time>2015-09-07T11:24:24Z</time>
      </trkpt>
      <trkpt lat="42.84758" lon="-0.34362">
        <ele>2187.1364746094</ele>
        <time>2015-09-07T11:24:32Z</time>
      </trkpt>
      <trkpt lat="42.8476" lon="-0.34355">
        <ele>2188.0981445312</ele>
        <time>2015-09-07T11:24:50Z</time>
      </trkpt>
      <trkpt lat="42.84768" lon="-0.34371">
        <ele>2190.9819335938</ele>
        <time>2015-09-07T11:25:10Z</time>
      </trkpt>
      <trkpt lat="42.84768" lon="-0.34374">
        <ele>2193.8659667969</ele>
        <time>2015-09-07T11:25:30Z</time>
      </trkpt>
      <trkpt lat="42.84768" lon="-0.34369">
        <ele>2195.7885742188</ele>
        <time>2015-09-07T11:25:37Z</time>
      </trkpt>
      <trkpt lat="42.84771" lon="-0.34352">
        <ele>2198.1916503906</ele>
        <time>2015-09-07T11:26:09Z</time>
      </trkpt>
      <trkpt lat="42.84775" lon="-0.34341">
        <ele>2199.6337890625</ele>
        <time>2015-09-07T11:26:29Z</time>
      </trkpt>
      <trkpt lat="42.84785" lon="-0.34344">
        <ele>2202.9982910156</ele>
        <time>2015-09-07T11:26:52Z</time>
      </trkpt>
      <trkpt lat="42.84789" lon="-0.34356">
        <ele>2204.4404296875</ele>
        <time>2015-09-07T11:27:05Z</time>
      </trkpt>
      <trkpt lat="42.84793" lon="-0.34367">
        <ele>2206.3630371094</ele>
        <time>2015-09-07T11:27:18Z</time>
      </trkpt>
      <trkpt lat="42.84798" lon="-0.34385">
        <ele>2209.2470703125</ele>
        <time>2015-09-07T11:27:40Z</time>
      </trkpt>
      <trkpt lat="42.84796" lon="-0.3438">
        <ele>2208.7663574219</ele>
        <time>2015-09-07T11:27:57Z</time>
      </trkpt>
      <trkpt lat="42.84795" lon="-0.34377">
        <ele>2209.7275390625</ele>
        <time>2015-09-07T11:28:02Z</time>
      </trkpt>
      <trkpt lat="42.84793" lon="-0.34362">
        <ele>2212.6115722656</ele>
        <time>2015-09-07T11:28:19Z</time>
      </trkpt>
      <trkpt lat="42.84793" lon="-0.34354">
        <ele>2214.0534667969</ele>
        <time>2015-09-07T11:28:32Z</time>
      </trkpt>
      <trkpt lat="42.84794" lon="-0.34344">
        <ele>2215.9760742188</ele>
        <time>2015-09-07T11:28:46Z</time>
      </trkpt>
      <trkpt lat="42.84796" lon="-0.34333">
        <ele>2216.4567871094</ele>
        <time>2015-09-07T11:28:58Z</time>
      </trkpt>
      <trkpt lat="42.84798" lon="-0.34323">
        <ele>2217.8986816406</ele>
        <time>2015-09-07T11:29:09Z</time>
      </trkpt>
      <trkpt lat="42.84803" lon="-0.34311">
        <ele>2219.8212890625</ele>
        <time>2015-09-07T11:29:24Z</time>
      </trkpt>
      <trkpt lat="42.84806" lon="-0.34301">
        <ele>2220.7829589844</ele>
        <time>2015-09-07T11:29:38Z</time>
      </trkpt>
      <trkpt lat="42.84812" lon="-0.34292">
        <ele>2222.7055664062</ele>
        <time>2015-09-07T11:30:07Z</time>
      </trkpt>
      <trkpt lat="42.84816" lon="-0.34303">
        <ele>2223.1862792969</ele>
        <time>2015-09-07T11:30:16Z</time>
      </trkpt>
      <trkpt lat="42.84819" lon="-0.34311">
        <ele>2224.1474609375</ele>
        <time>2015-09-07T11:30:25Z</time>
      </trkpt>
      <trkpt lat="42.84819" lon="-0.3432">
        <ele>2226.0700683594</ele>
        <time>2015-09-07T11:30:34Z</time>
      </trkpt>
      <trkpt lat="42.84821" lon="-0.34334">
        <ele>2227.5119628906</ele>
        <time>2015-09-07T11:30:51Z</time>
      </trkpt>
      <trkpt lat="42.84822" lon="-0.34342">
        <ele>2229.9152832031</ele>
        <time>2015-09-07T11:31:04Z</time>
      </trkpt>
      <trkpt lat="42.84831" lon="-0.34357">
        <ele>2232.3186035156</ele>
        <time>2015-09-07T11:31:21Z</time>
      </trkpt>
      <trkpt lat="42.8483" lon="-0.34353">
        <ele>2232.7990722656</ele>
        <time>2015-09-07T11:31:34Z</time>
      </trkpt>
      <trkpt lat="42.8483" lon="-0.34344">
        <ele>2234.2412109375</ele>
        <time>2015-09-07T11:31:55Z</time>
      </trkpt>
      <trkpt lat="42.84833" lon="-0.34326">
        <ele>2236.1640625</ele>
        <time>2015-09-07T11:32:12Z</time>
      </trkpt>
      <trkpt lat="42.84839" lon="-0.34316">
        <ele>2238.5673828125</ele>
        <time>2015-09-07T11:32:30Z</time>
      </trkpt>
      <trkpt lat="42.84839" lon="-0.34309">
        <ele>2239.0478515625</ele>
        <time>2015-09-07T11:32:45Z</time>
      </trkpt>
      <trkpt lat="42.84843" lon="-0.34303">
        <ele>2240.0092773438</ele>
        <time>2015-09-07T11:32:54Z</time>
      </trkpt>
      <trkpt lat="42.84849" lon="-0.34293">
        <ele>2241.9318847656</ele>
        <time>2015-09-07T11:33:08Z</time>
      </trkpt>
      <trkpt lat="42.8485" lon="-0.34284">
        <ele>2243.3737792969</ele>
        <time>2015-09-07T11:33:18Z</time>
      </trkpt>
      <trkpt lat="42.84847" lon="-0.34265">
        <ele>2244.3349609375</ele>
        <time>2015-09-07T11:33:35Z</time>
      </trkpt>
      <trkpt lat="42.84844" lon="-0.34247">
        <ele>2246.2578125</ele>
        <time>2015-09-07T11:33:54Z</time>
      </trkpt>
      <trkpt lat="42.84843" lon="-0.34245">
        <ele>2248.1801757812</ele>
        <time>2015-09-07T11:33:57Z</time>
      </trkpt>
      <trkpt lat="42.84845" lon="-0.3424">
        <ele>2249.6223144531</ele>
        <time>2015-09-07T11:34:16Z</time>
      </trkpt>
      <trkpt lat="42.84842" lon="-0.34226">
        <ele>2251.0642089844</ele>
        <time>2015-09-07T11:34:31Z</time>
      </trkpt>
      <trkpt lat="42.84847" lon="-0.34227">
        <ele>2253.4677734375</ele>
        <time>2015-09-07T11:34:45Z</time>
      </trkpt>
      <trkpt lat="42.84855" lon="-0.34221">
        <ele>2256.8322753906</ele>
        <time>2015-09-07T11:35:00Z</time>
      </trkpt>
      <trkpt lat="42.84864" lon="-0.34219">
        <ele>2257.7937011719</ele>
        <time>2015-09-07T11:35:16Z</time>
      </trkpt>
      <trkpt lat="42.84873" lon="-0.34211">
        <ele>2258.7548828125</ele>
        <time>2015-09-07T11:35:33Z</time>
      </trkpt>
      <trkpt lat="42.84874" lon="-0.3421">
        <ele>2258.7548828125</ele>
        <time>2015-09-07T11:35:58Z</time>
      </trkpt>
      <trkpt lat="42.84875" lon="-0.34209">
        <ele>2258.7548828125</ele>
        <time>2015-09-07T11:36:14Z</time>
      </trkpt>
      <trkpt lat="42.84873" lon="-0.34209">
        <ele>2259.2355957031</ele>
        <time>2015-09-07T11:36:35Z</time>
      </trkpt>
      <trkpt lat="42.8487" lon="-0.34203">
        <ele>2259.2355957031</ele>
        <time>2015-09-07T11:36:49Z</time>
      </trkpt>
      <trkpt lat="42.8487" lon="-0.34203">
        <ele>2260.1967773438</ele>
        <time>2015-09-07T11:37:10Z</time>
      </trkpt>
      <trkpt lat="42.8487" lon="-0.34204">
        <ele>2259.2355957031</ele>
        <time>2015-09-07T11:37:29Z</time>
      </trkpt>
      <trkpt lat="42.84868" lon="-0.34203">
        <ele>2261.158203125</ele>
        <time>2015-09-07T11:42:45Z</time>
      </trkpt>
      <trkpt lat="42.84865" lon="-0.34195">
        <ele>2262.1193847656</ele>
        <time>2015-09-07T11:43:15Z</time>
      </trkpt>
      <trkpt lat="42.84861" lon="-0.34179">
        <ele>2263.0808105469</ele>
        <time>2015-09-07T11:43:32Z</time>
      </trkpt>
      <trkpt lat="42.84854" lon="-0.34165">
        <ele>2264.0419921875</ele>
        <time>2015-09-07T11:43:49Z</time>
      </trkpt>
      <trkpt lat="42.84845" lon="-0.3416">
        <ele>2265.9645996094</ele>
        <time>2015-09-07T11:44:08Z</time>
      </trkpt>
      <trkpt lat="42.84838" lon="-0.34155">
        <ele>2266.4453125</ele>
        <time>2015-09-07T11:44:26Z</time>
      </trkpt>
      <trkpt lat="42.84832" lon="-0.34149">
        <ele>2267.4064941406</ele>
        <time>2015-09-07T11:44:41Z</time>
      </trkpt>
      <trkpt lat="42.84822" lon="-0.34145">
        <ele>2268.8488769531</ele>
        <time>2015-09-07T11:44:56Z</time>
      </trkpt>
      <trkpt lat="42.84819" lon="-0.34144">
        <ele>2269.8100585938</ele>
        <time>2015-09-07T11:45:00Z</time>
      </trkpt>
      <trkpt lat="42.84811" lon="-0.34136">
        <ele>2272.2133789062</ele>
        <time>2015-09-07T11:45:13Z</time>
      </trkpt>
      <trkpt lat="42.84802" lon="-0.34128">
        <ele>2274.1359863281</ele>
        <time>2015-09-07T11:45:29Z</time>
      </trkpt>
      <trkpt lat="42.848" lon="-0.34126">
        <ele>2276.05859375</ele>
        <time>2015-09-07T11:45:35Z</time>
      </trkpt>
      <trkpt lat="42.84795" lon="-0.34122">
        <ele>2276.5393066406</ele>
        <time>2015-09-07T11:45:50Z</time>
      </trkpt>
      <trkpt lat="42.84787" lon="-0.34123">
        <ele>2277.0200195312</ele>
        <time>2015-09-07T11:46:01Z</time>
      </trkpt>
      <trkpt lat="42.84781" lon="-0.34121">
        <ele>2277.5004882812</ele>
        <time>2015-09-07T11:46:15Z</time>
      </trkpt>
      <trkpt lat="42.84775" lon="-0.34116">
        <ele>2280.3845214844</ele>
        <time>2015-09-07T11:46:27Z</time>
      </trkpt>
      <trkpt lat="42.84767" lon="-0.3411">
        <ele>2282.3071289062</ele>
        <time>2015-09-07T11:46:39Z</time>
      </trkpt>
      <trkpt lat="42.84764" lon="-0.34096">
        <ele>2282.3071289062</ele>
        <time>2015-09-07T11:46:54Z</time>
      </trkpt>
      <trkpt lat="42.84762" lon="-0.34086">
        <ele>2282.7875976562</ele>
        <time>2015-09-07T11:47:08Z</time>
      </trkpt>
      <trkpt lat="42.84757" lon="-0.34079">
        <ele>2282.7875976562</ele>
        <time>2015-09-07T11:47:23Z</time>
      </trkpt>
      <trkpt lat="42.8475" lon="-0.34076">
        <ele>2285.671875</ele>
        <time>2015-09-07T11:47:37Z</time>
      </trkpt>
      <trkpt lat="42.84746" lon="-0.3407">
        <ele>2287.5944824219</ele>
        <time>2015-09-07T11:47:55Z</time>
      </trkpt>
      <trkpt lat="42.84742" lon="-0.34064">
        <ele>2288.0751953125</ele>
        <time>2015-09-07T11:48:29Z</time>
      </trkpt>
      <trkpt lat="42.84735" lon="-0.34054">
        <ele>2288.5559082031</ele>
        <time>2015-09-07T11:48:46Z</time>
      </trkpt>
      <trkpt lat="42.84728" lon="-0.34042">
        <ele>2290.4782714844</ele>
        <time>2015-09-07T11:49:03Z</time>
      </trkpt>
      <trkpt lat="42.84728" lon="-0.34034">
        <ele>2293.3623046875</ele>
        <time>2015-09-07T11:49:19Z</time>
      </trkpt>
      <trkpt lat="42.8473" lon="-0.34025">
        <ele>2295.2849121094</ele>
        <time>2015-09-07T11:49:34Z</time>
      </trkpt>
      <trkpt lat="42.84726" lon="-0.34018">
        <ele>2296.7268066406</ele>
        <time>2015-09-07T11:49:49Z</time>
      </trkpt>
      <trkpt lat="42.84726" lon="-0.34009">
        <ele>2297.6882324219</ele>
        <time>2015-09-07T11:50:02Z</time>
      </trkpt>
      <trkpt lat="42.84726" lon="-0.34001">
        <ele>2298.1687011719</ele>
        <time>2015-09-07T11:50:18Z</time>
      </trkpt>
      <trkpt lat="42.84722" lon="-0.34003">
        <ele>2297.2075195312</ele>
        <time>2015-09-07T11:50:41Z</time>
      </trkpt>
      <trkpt lat="42.8472" lon="-0.33998">
        <ele>2297.2075195312</ele>
        <time>2015-09-07T11:50:59Z</time>
      </trkpt>
      <trkpt lat="42.84709" lon="-0.33988">
        <ele>2298.6494140625</ele>
        <time>2015-09-07T11:51:17Z</time>
      </trkpt>
      <trkpt lat="42.84702" lon="-0.33981">
        <ele>2300.091796875</ele>
        <time>2015-09-07T11:51:40Z</time>
      </trkpt>
      <trkpt lat="42.847" lon="-0.33979">
        <ele>2300.091796875</ele>
        <time>2015-09-07T11:51:57Z</time>
      </trkpt>
      <trkpt lat="42.84695" lon="-0.33979">
        <ele>2301.5336914062</ele>
        <time>2015-09-07T11:52:04Z</time>
      </trkpt>
      <trkpt lat="42.84691" lon="-0.33976">
        <ele>2302.4948730469</ele>
        <time>2015-09-07T11:52:17Z</time>
      </trkpt>
      <trkpt lat="42.84687" lon="-0.33974">
        <ele>2302.9755859375</ele>
        <time>2015-09-07T11:52:29Z</time>
      </trkpt>
      <trkpt lat="42.84678" lon="-0.33971">
        <ele>2302.9755859375</ele>
        <time>2015-09-07T11:52:45Z</time>
      </trkpt>
      <trkpt lat="42.84681" lon="-0.33969">
        <ele>2303.9370117188</ele>
        <time>2015-09-07T11:53:01Z</time>
      </trkpt>
      <trkpt lat="42.84687" lon="-0.33971">
        <ele>2304.4174804688</ele>
        <time>2015-09-07T11:53:19Z</time>
      </trkpt>
      <trkpt lat="42.84692" lon="-0.33972">
        <ele>2306.8208007812</ele>
        <time>2015-09-07T11:53:34Z</time>
      </trkpt>
      <trkpt lat="42.84696" lon="-0.3397">
        <ele>2309.7045898438</ele>
        <time>2015-09-07T11:53:49Z</time>
      </trkpt>
      <trkpt lat="42.84699" lon="-0.33967">
        <ele>2310.666015625</ele>
        <time>2015-09-07T11:54:07Z</time>
      </trkpt>
      <trkpt lat="42.84698" lon="-0.33954">
        <ele>2310.666015625</ele>
        <time>2015-09-07T11:54:24Z</time>
      </trkpt>
      <trkpt lat="42.84692" lon="-0.33955">
        <ele>2313.0693359375</ele>
        <time>2015-09-07T11:54:41Z</time>
      </trkpt>
      <trkpt lat="42.84692" lon="-0.33955">
        <ele>2311.6274414062</ele>
        <time>2015-09-07T11:55:09Z</time>
      </trkpt>
      <trkpt lat="42.84694" lon="-0.3395">
        <ele>2312.1079101562</ele>
        <time>2015-09-07T11:55:44Z</time>
      </trkpt>
      <trkpt lat="42.84689" lon="-0.33947">
        <ele>2314.0305175781</ele>
        <time>2015-09-07T11:56:59Z</time>
      </trkpt>
      <trkpt lat="42.84681" lon="-0.33942">
        <ele>2317.3952636719</ele>
        <time>2015-09-07T11:57:14Z</time>
      </trkpt>
      <trkpt lat="42.84675" lon="-0.33936">
        <ele>2320.279296875</ele>
        <time>2015-09-07T11:57:33Z</time>
      </trkpt>
      <trkpt lat="42.84666" lon="-0.33931">
        <ele>2323.1633300781</ele>
        <time>2015-09-07T11:57:53Z</time>
      </trkpt>
      <trkpt lat="42.84661" lon="-0.33931">
        <ele>2323.6437988281</ele>
        <time>2015-09-07T11:58:09Z</time>
      </trkpt>
      <trkpt lat="42.84655" lon="-0.3393">
        <ele>2325.56640625</ele>
        <time>2015-09-07T11:58:36Z</time>
      </trkpt>
      <trkpt lat="42.84648" lon="-0.33925">
        <ele>2328.9309082031</ele>
        <time>2015-09-07T11:58:53Z</time>
      </trkpt>
      <trkpt lat="42.84643" lon="-0.33915">
        <ele>2331.3342285156</ele>
        <time>2015-09-07T11:59:11Z</time>
      </trkpt>
      <trkpt lat="42.84641" lon="-0.33906">
        <ele>2331.8149414062</ele>
        <time>2015-09-07T11:59:27Z</time>
      </trkpt>
      <trkpt lat="42.84634" lon="-0.33892">
        <ele>2333.7377929688</ele>
        <time>2015-09-07T11:59:45Z</time>
      </trkpt>
      <trkpt lat="42.84628" lon="-0.3388">
        <ele>2334.2185058594</ele>
        <time>2015-09-07T12:00:01Z</time>
      </trkpt>
      <trkpt lat="42.8462" lon="-0.33866">
        <ele>2334.2185058594</ele>
        <time>2015-09-07T12:00:18Z</time>
      </trkpt>
      <trkpt lat="42.84617" lon="-0.33854">
        <ele>2334.69921875</ele>
        <time>2015-09-07T12:00:36Z</time>
      </trkpt>
      <trkpt lat="42.84615" lon="-0.33848">
        <ele>2335.6604003906</ele>
        <time>2015-09-07T12:00:54Z</time>
      </trkpt>
      <trkpt lat="42.84614" lon="-0.33849">
        <ele>2335.6604003906</ele>
        <time>2015-09-07T12:01:19Z</time>
      </trkpt>
    </trkseg>
  </trk>
  <trk>
    <name><![CDATA[ACTIVE LOG 006]]></name>
    <trkseg>
      <trkpt lat="42.84614" lon="-0.33849">
        <ele>2324.1245117188</ele>
        <time>2015-09-07T12:07:27Z</time>
      </trkpt>
    </trkseg>
  </trk>
  <trk>
    <name><![CDATA[ACTIVE LOG 007]]></name>
    <trkseg>
      <trkpt lat="42.84615" lon="-0.3385">
        <ele>2309.7045898438</ele>
        <time>2015-09-07T12:07:31Z</time>
      </trkpt>
      <trkpt lat="42.84615" lon="-0.33851">
        <ele>2310.666015625</ele>
        <time>2015-09-07T12:07:32Z</time>
      </trkpt>
      <trkpt lat="42.84612" lon="-0.33855">
        <ele>2314.0305175781</ele>
        <time>2015-09-07T12:07:41Z</time>
      </trkpt>
      <trkpt lat="42.84613" lon="-0.33853">
        <ele>2316.9147949219</ele>
        <time>2015-09-07T12:07:44Z</time>
      </trkpt>
      <trkpt lat="42.84613" lon="-0.33853">
        <ele>2317.3952636719</ele>
        <time>2015-09-07T12:07:45Z</time>
      </trkpt>
      <trkpt lat="42.84614" lon="-0.33853">
        <ele>2320.279296875</ele>
        <time>2015-09-07T12:07:48Z</time>
      </trkpt>
      <trkpt lat="42.84616" lon="-0.33851">
        <ele>2324.6052246094</ele>
        <time>2015-09-07T12:07:54Z</time>
      </trkpt>
      <trkpt lat="42.84616" lon="-0.33851">
        <ele>2324.6052246094</ele>
        <time>2015-09-07T12:07:55Z</time>
      </trkpt>
      <trkpt lat="42.84615" lon="-0.3385">
        <ele>2327.9697265625</ele>
        <time>2015-09-07T12:08:01Z</time>
      </trkpt>
      <trkpt lat="42.84615" lon="-0.33849">
        <ele>2331.3342285156</ele>
        <time>2015-09-07T12:08:09Z</time>
      </trkpt>
      <trkpt lat="42.84613" lon="-0.33848">
        <ele>2334.69921875</ele>
        <time>2015-09-07T12:08:20Z</time>
      </trkpt>
      <trkpt lat="42.84614" lon="-0.33848">
        <ele>2336.6215820312</ele>
        <time>2015-09-07T12:08:39Z</time>
      </trkpt>
      <trkpt lat="42.84615" lon="-0.33849">
        <ele>2338.0637207031</ele>
        <time>2015-09-07T12:09:07Z</time>
      </trkpt>
      <trkpt lat="42.84612" lon="-0.33849">
        <ele>2337.5830078125</ele>
        <time>2015-09-07T12:09:34Z</time>
      </trkpt>
      <trkpt lat="42.8461" lon="-0.33835">
        <ele>2335.6604003906</ele>
        <time>2015-09-07T12:09:50Z</time>
      </trkpt>
      <trkpt lat="42.84606" lon="-0.3383">
        <ele>2338.0637207031</ele>
        <time>2015-09-07T12:09:57Z</time>
      </trkpt>
      <trkpt lat="42.846" lon="-0.33825">
        <ele>2339.0249023438</ele>
        <time>2015-09-07T12:10:09Z</time>
      </trkpt>
      <trkpt lat="42.84593" lon="-0.33821">
        <ele>2340.466796875</ele>
        <time>2015-09-07T12:10:35Z</time>
      </trkpt>
      <trkpt lat="42.84587" lon="-0.33813">
        <ele>2340.9475097656</ele>
        <time>2015-09-07T12:10:47Z</time>
      </trkpt>
      <trkpt lat="42.84585" lon="-0.33803">
        <ele>2338.0637207031</ele>
        <time>2015-09-07T12:11:09Z</time>
      </trkpt>
      <trkpt lat="42.8459" lon="-0.33798">
        <ele>2336.6215820312</ele>
        <time>2015-09-07T12:11:35Z</time>
      </trkpt>
      <trkpt lat="42.84591" lon="-0.33781">
        <ele>2334.69921875</ele>
        <time>2015-09-07T12:12:07Z</time>
      </trkpt>
      <trkpt lat="42.84587" lon="-0.33776">
        <ele>2333.2570800781</ele>
        <time>2015-09-07T12:12:24Z</time>
      </trkpt>
      <trkpt lat="42.84585" lon="-0.33771">
        <ele>2334.69921875</ele>
        <time>2015-09-07T12:12:41Z</time>
      </trkpt>
      <trkpt lat="42.84583" lon="-0.33758">
        <ele>2337.1022949219</ele>
        <time>2015-09-07T12:13:12Z</time>
      </trkpt>
      <trkpt lat="42.84586" lon="-0.33765">
        <ele>2338.0637207031</ele>
        <time>2015-09-07T12:13:41Z</time>
      </trkpt>
      <trkpt lat="42.84585" lon="-0.33757">
        <ele>2339.0249023438</ele>
        <time>2015-09-07T12:13:57Z</time>
      </trkpt>
      <trkpt lat="42.84586" lon="-0.33745">
        <ele>2341.4282226562</ele>
        <time>2015-09-07T12:14:26Z</time>
      </trkpt>
      <trkpt lat="42.84585" lon="-0.33735">
        <ele>2343.3508300781</ele>
        <time>2015-09-07T12:14:55Z</time>
      </trkpt>
      <trkpt lat="42.84585" lon="-0.33732">
        <ele>2345.2734375</ele>
        <time>2015-09-07T12:15:15Z</time>
      </trkpt>
      <trkpt lat="42.84584" lon="-0.33727">
        <ele>2348.6381835938</ele>
        <time>2015-09-07T12:15:38Z</time>
      </trkpt>
      <trkpt lat="42.84584" lon="-0.33724">
        <ele>2349.1188964844</ele>
        <time>2015-09-07T12:16:06Z</time>
      </trkpt>
      <trkpt lat="42.84584" lon="-0.33721">
        <ele>2351.5222167969</ele>
        <time>2015-09-07T12:16:13Z</time>
      </trkpt>
      <trkpt lat="42.84585" lon="-0.33718">
        <ele>2354.4060058594</ele>
        <time>2015-09-07T12:16:41Z</time>
      </trkpt>
      <trkpt lat="42.84582" lon="-0.33715">
        <ele>2356.3286132812</ele>
        <time>2015-09-07T12:16:59Z</time>
      </trkpt>
      <trkpt lat="42.84581" lon="-0.33714">
        <ele>2356.8093261719</ele>
        <time>2015-09-07T12:17:17Z</time>
      </trkpt>
      <trkpt lat="42.84581" lon="-0.33712">
        <ele>2358.2512207031</ele>
        <time>2015-09-07T12:17:26Z</time>
      </trkpt>
      <trkpt lat="42.84582" lon="-0.33704">
        <ele>2360.6545410156</ele>
        <time>2015-09-07T12:17:46Z</time>
      </trkpt>
      <trkpt lat="42.84583" lon="-0.33691">
        <ele>2362.5771484375</ele>
        <time>2015-09-07T12:18:01Z</time>
      </trkpt>
      <trkpt lat="42.84583" lon="-0.33681">
        <ele>2364.9807128906</ele>
        <time>2015-09-07T12:18:16Z</time>
      </trkpt>
      <trkpt lat="42.84581" lon="-0.33673">
        <ele>2367.3837890625</ele>
        <time>2015-09-07T12:18:34Z</time>
      </trkpt>
      <trkpt lat="42.84574" lon="-0.33662">
        <ele>2367.3837890625</ele>
        <time>2015-09-07T12:18:51Z</time>
      </trkpt>
      <trkpt lat="42.84572" lon="-0.3365">
        <ele>2366.9033203125</ele>
        <time>2015-09-07T12:19:11Z</time>
      </trkpt>
      <trkpt lat="42.84571" lon="-0.33642">
        <ele>2367.8645019531</ele>
        <time>2015-09-07T12:19:17Z</time>
      </trkpt>
      <trkpt lat="42.84563" lon="-0.3362">
        <ele>2366.4226074219</ele>
        <time>2015-09-07T12:19:36Z</time>
      </trkpt>
      <trkpt lat="42.84556" lon="-0.33609">
        <ele>2365.9418945312</ele>
        <time>2015-09-07T12:19:52Z</time>
      </trkpt>
      <trkpt lat="42.84556" lon="-0.33606">
        <ele>2364.5</ele>
        <time>2015-09-07T12:19:56Z</time>
      </trkpt>
      <trkpt lat="42.84557" lon="-0.33599">
        <ele>2362.0964355469</ele>
        <time>2015-09-07T12:20:09Z</time>
      </trkpt>
      <trkpt lat="42.84559" lon="-0.33597">
        <ele>2361.1352539062</ele>
        <time>2015-09-07T12:20:15Z</time>
      </trkpt>
      <trkpt lat="42.8456" lon="-0.3359">
        <ele>2363.5383300781</ele>
        <time>2015-09-07T12:20:29Z</time>
      </trkpt>
      <trkpt lat="42.84561" lon="-0.33582">
        <ele>2365.4614257812</ele>
        <time>2015-09-07T12:20:44Z</time>
      </trkpt>
      <trkpt lat="42.84566" lon="-0.33575">
        <ele>2366.4226074219</ele>
        <time>2015-09-07T12:20:59Z</time>
      </trkpt>
      <trkpt lat="42.8457" lon="-0.33569">
        <ele>2363.5383300781</ele>
        <time>2015-09-07T12:21:14Z</time>
      </trkpt>
      <trkpt lat="42.84573" lon="-0.33569">
        <ele>2363.0578613281</ele>
        <time>2015-09-07T12:21:27Z</time>
      </trkpt>
      <trkpt lat="42.84575" lon="-0.33568">
        <ele>2362.0964355469</ele>
        <time>2015-09-07T12:21:31Z</time>
      </trkpt>
      <trkpt lat="42.84579" lon="-0.33563">
        <ele>2361.6159667969</ele>
        <time>2015-09-07T12:21:38Z</time>
      </trkpt>
      <trkpt lat="42.84584" lon="-0.33558">
        <ele>2360.6545410156</ele>
        <time>2015-09-07T12:21:56Z</time>
      </trkpt>
      <trkpt lat="42.8459" lon="-0.33555">
        <ele>2359.2126464844</ele>
        <time>2015-09-07T12:22:12Z</time>
      </trkpt>
      <trkpt lat="42.84592" lon="-0.3355">
        <ele>2357.2900390625</ele>
        <time>2015-09-07T12:22:26Z</time>
      </trkpt>
      <trkpt lat="42.84597" lon="-0.33549">
        <ele>2353.9255371094</ele>
        <time>2015-09-07T12:22:41Z</time>
      </trkpt>
      <trkpt lat="42.84599" lon="-0.33543">
        <ele>2352.9641113281</ele>
        <time>2015-09-07T12:22:56Z</time>
      </trkpt>
      <trkpt lat="42.84598" lon="-0.33533">
        <ele>2351.5222167969</ele>
        <time>2015-09-07T12:23:11Z</time>
      </trkpt>
      <trkpt lat="42.84602" lon="-0.33525">
        <ele>2350.5607910156</ele>
        <time>2015-09-07T12:23:24Z</time>
      </trkpt>
      <trkpt lat="42.84608" lon="-0.3352">
        <ele>2350.5607910156</ele>
        <time>2015-09-07T12:23:39Z</time>
      </trkpt>
      <trkpt lat="42.84613" lon="-0.33511">
        <ele>2352.0026855469</ele>
        <time>2015-09-07T12:23:54Z</time>
      </trkpt>
      <trkpt lat="42.84615" lon="-0.33501">
        <ele>2353.4448242188</ele>
        <time>2015-09-07T12:24:08Z</time>
      </trkpt>
      <trkpt lat="42.84614" lon="-0.33493">
        <ele>2355.8479003906</ele>
        <time>2015-09-07T12:24:21Z</time>
      </trkpt>
      <trkpt lat="42.84612" lon="-0.33486">
        <ele>2355.8479003906</ele>
        <time>2015-09-07T12:24:42Z</time>
      </trkpt>
      <trkpt lat="42.84608" lon="-0.33482">
        <ele>2357.7707519531</ele>
        <time>2015-09-07T12:24:59Z</time>
      </trkpt>
      <trkpt lat="42.84611" lon="-0.33476">
        <ele>2360.173828125</ele>
        <time>2015-09-07T12:25:12Z</time>
      </trkpt>
      <trkpt lat="42.84613" lon="-0.33468">
        <ele>2360.6545410156</ele>
        <time>2015-09-07T12:25:28Z</time>
      </trkpt>
      <trkpt lat="42.84619" lon="-0.33462">
        <ele>2360.173828125</ele>
        <time>2015-09-07T12:25:46Z</time>
      </trkpt>
      <trkpt lat="42.84627" lon="-0.33451">
        <ele>2360.6545410156</ele>
        <time>2015-09-07T12:26:03Z</time>
      </trkpt>
      <trkpt lat="42.84629" lon="-0.33439">
        <ele>2363.0578613281</ele>
        <time>2015-09-07T12:26:19Z</time>
      </trkpt>
      <trkpt lat="42.84629" lon="-0.33431">
        <ele>2360.6545410156</ele>
        <time>2015-09-07T12:26:33Z</time>
      </trkpt>
      <trkpt lat="42.84631" lon="-0.33422">
        <ele>2359.6931152344</ele>
        <time>2015-09-07T12:26:50Z</time>
      </trkpt>
      <trkpt lat="42.84632" lon="-0.33413">
        <ele>2359.6931152344</ele>
        <time>2015-09-07T12:27:04Z</time>
      </trkpt>
      <trkpt lat="42.84632" lon="-0.33395">
        <ele>2359.2126464844</ele>
        <time>2015-09-07T12:27:21Z</time>
      </trkpt>
      <trkpt lat="42.84637" lon="-0.33376">
        <ele>2359.6931152344</ele>
        <time>2015-09-07T12:27:38Z</time>
      </trkpt>
      <trkpt lat="42.84642" lon="-0.33363">
        <ele>2359.6931152344</ele>
        <time>2015-09-07T12:27:53Z</time>
      </trkpt>
      <trkpt lat="42.8464" lon="-0.33358">
        <ele>2359.6931152344</ele>
        <time>2015-09-07T12:28:19Z</time>
      </trkpt>
      <trkpt lat="42.84643" lon="-0.33357">
        <ele>2358.7319335938</ele>
        <time>2015-09-07T12:28:50Z</time>
      </trkpt>
      <trkpt lat="42.84647" lon="-0.33351">
        <ele>2355.3674316406</ele>
        <time>2015-09-07T12:29:05Z</time>
      </trkpt>
      <trkpt lat="42.84651" lon="-0.33348">
        <ele>2353.4448242188</ele>
        <time>2015-09-07T12:29:18Z</time>
      </trkpt>
      <trkpt lat="42.84657" lon="-0.33337">
        <ele>2350.5607910156</ele>
        <time>2015-09-07T12:29:36Z</time>
      </trkpt>
      <trkpt lat="42.84661" lon="-0.33328">
        <ele>2349.1188964844</ele>
        <time>2015-09-07T12:29:53Z</time>
      </trkpt>
      <trkpt lat="42.84663" lon="-0.33319">
        <ele>2347.1960449219</ele>
        <time>2015-09-07T12:30:18Z</time>
      </trkpt>
      <trkpt lat="42.84668" lon="-0.33316">
        <ele>2344.7927246094</ele>
        <time>2015-09-07T12:30:34Z</time>
      </trkpt>
      <trkpt lat="42.84671" lon="-0.33311">
        <ele>2341.4282226562</ele>
        <time>2015-09-07T12:30:47Z</time>
      </trkpt>
      <trkpt lat="42.84674" lon="-0.3331">
        <ele>2341.4282226562</ele>
        <time>2015-09-07T12:31:03Z</time>
      </trkpt>
      <trkpt lat="42.8467" lon="-0.33301">
        <ele>2339.5056152344</ele>
        <time>2015-09-07T12:31:20Z</time>
      </trkpt>
      <trkpt lat="42.84667" lon="-0.3329">
        <ele>2338.0637207031</ele>
        <time>2015-09-07T12:31:34Z</time>
      </trkpt>
      <trkpt lat="42.84662" lon="-0.33275">
        <ele>2336.6215820312</ele>
        <time>2015-09-07T12:31:51Z</time>
      </trkpt>
      <trkpt lat="42.84657" lon="-0.33268">
        <ele>2336.6215820312</ele>
        <time>2015-09-07T12:32:06Z</time>
      </trkpt>
      <trkpt lat="42.84655" lon="-0.3326">
        <ele>2335.6604003906</ele>
        <time>2015-09-07T12:32:21Z</time>
      </trkpt>
      <trkpt lat="42.84653" lon="-0.33254">
        <ele>2332.7763671875</ele>
        <time>2015-09-07T12:32:35Z</time>
      </trkpt>
      <trkpt lat="42.84651" lon="-0.3325">
        <ele>2330.8537597656</ele>
        <time>2015-09-07T12:32:47Z</time>
      </trkpt>
      <trkpt lat="42.84648" lon="-0.33245">
        <ele>2329.8923339844</ele>
        <time>2015-09-07T12:33:00Z</time>
      </trkpt>
      <trkpt lat="42.84648" lon="-0.33245">
        <ele>2328.9309082031</ele>
        <time>2015-09-07T12:33:15Z</time>
      </trkpt>
      <trkpt lat="42.84652" lon="-0.33239">
        <ele>2326.0471191406</ele>
        <time>2015-09-07T12:33:29Z</time>
      </trkpt>
      <trkpt lat="42.84649" lon="-0.33232">
        <ele>2325.0856933594</ele>
        <time>2015-09-07T12:33:40Z</time>
      </trkpt>
      <trkpt lat="42.84642" lon="-0.33229">
        <ele>2323.6437988281</ele>
        <time>2015-09-07T12:33:54Z</time>
      </trkpt>
      <trkpt lat="42.84642" lon="-0.33222">
        <ele>2322.2019042969</ele>
        <time>2015-09-07T12:34:07Z</time>
      </trkpt>
      <trkpt lat="42.84637" lon="-0.33215">
        <ele>2319.7985839844</ele>
        <time>2015-09-07T12:34:22Z</time>
      </trkpt>
      <trkpt lat="42.84637" lon="-0.33214">
        <ele>2319.7985839844</ele>
        <time>2015-09-07T12:34:23Z</time>
      </trkpt>
      <trkpt lat="42.84634" lon="-0.3321">
        <ele>2318.3566894531</ele>
        <time>2015-09-07T12:34:37Z</time>
      </trkpt>
      <trkpt lat="42.84637" lon="-0.33201">
        <ele>2316.9147949219</ele>
        <time>2015-09-07T12:34:52Z</time>
      </trkpt>
      <trkpt lat="42.84628" lon="-0.3319">
        <ele>2315.47265625</ele>
        <time>2015-09-07T12:35:10Z</time>
      </trkpt>
      <trkpt lat="42.84627" lon="-0.33182">
        <ele>2314.5112304688</ele>
        <time>2015-09-07T12:35:25Z</time>
      </trkpt>
      <trkpt lat="42.84625" lon="-0.33176">
        <ele>2311.6274414062</ele>
        <time>2015-09-07T12:35:42Z</time>
      </trkpt>
      <trkpt lat="42.84627" lon="-0.33173">
        <ele>2309.7045898438</ele>
        <time>2015-09-07T12:36:02Z</time>
      </trkpt>
      <trkpt lat="42.84637" lon="-0.33173">
        <ele>2312.1079101562</ele>
        <time>2015-09-07T12:36:18Z</time>
      </trkpt>
      <trkpt lat="42.84639" lon="-0.33169">
        <ele>2310.666015625</ele>
        <time>2015-09-07T12:36:36Z</time>
      </trkpt>
      <trkpt lat="42.84639" lon="-0.33164">
        <ele>2309.2241210938</ele>
        <time>2015-09-07T12:36:51Z</time>
      </trkpt>
      <trkpt lat="42.84627" lon="-0.33157">
        <ele>2309.2241210938</ele>
        <time>2015-09-07T12:37:10Z</time>
      </trkpt>
      <trkpt lat="42.84619" lon="-0.33147">
        <ele>2311.6274414062</ele>
        <time>2015-09-07T12:37:27Z</time>
      </trkpt>
      <trkpt lat="42.84614" lon="-0.33134">
        <ele>2313.0693359375</ele>
        <time>2015-09-07T12:37:42Z</time>
      </trkpt>
      <trkpt lat="42.8461" lon="-0.3312">
        <ele>2311.6274414062</ele>
        <time>2015-09-07T12:37:59Z</time>
      </trkpt>
      <trkpt lat="42.84607" lon="-0.33106">
        <ele>2309.7045898438</ele>
        <time>2015-09-07T12:38:17Z</time>
      </trkpt>
      <trkpt lat="42.84608" lon="-0.33097">
        <ele>2307.3015136719</ele>
        <time>2015-09-07T12:38:32Z</time>
      </trkpt>
      <trkpt lat="42.84608" lon="-0.33087">
        <ele>2304.8981933594</ele>
        <time>2015-09-07T12:38:47Z</time>
      </trkpt>
      <trkpt lat="42.84603" lon="-0.33075">
        <ele>2304.4174804688</ele>
        <time>2015-09-07T12:39:05Z</time>
      </trkpt>
      <trkpt lat="42.84599" lon="-0.33069">
        <ele>2303.9370117188</ele>
        <time>2015-09-07T12:39:20Z</time>
      </trkpt>
      <trkpt lat="42.846" lon="-0.33058">
        <ele>2302.4948730469</ele>
        <time>2015-09-07T12:39:35Z</time>
      </trkpt>
      <trkpt lat="42.84596" lon="-0.33052">
        <ele>2300.572265625</ele>
        <time>2015-09-07T12:39:50Z</time>
      </trkpt>
      <trkpt lat="42.84596" lon="-0.33043">
        <ele>2299.1301269531</ele>
        <time>2015-09-07T12:40:05Z</time>
      </trkpt>
      <trkpt lat="42.846" lon="-0.33039">
        <ele>2296.7268066406</ele>
        <time>2015-09-07T12:40:23Z</time>
      </trkpt>
      <trkpt lat="42.84597" lon="-0.3303">
        <ele>2294.3234863281</ele>
        <time>2015-09-07T12:40:41Z</time>
      </trkpt>
      <trkpt lat="42.84594" lon="-0.33023">
        <ele>2293.8430175781</ele>
        <time>2015-09-07T12:41:00Z</time>
      </trkpt>
      <trkpt lat="42.84594" lon="-0.33021">
        <ele>2292.4011230469</ele>
        <time>2015-09-07T12:41:19Z</time>
      </trkpt>
      <trkpt lat="42.8459" lon="-0.33015">
        <ele>2290.958984375</ele>
        <time>2015-09-07T12:41:32Z</time>
      </trkpt>
      <trkpt lat="42.84594" lon="-0.33014">
        <ele>2288.0751953125</ele>
        <time>2015-09-07T12:41:42Z</time>
      </trkpt>
      <trkpt lat="42.84605" lon="-0.33012">
        <ele>2286.6330566406</ele>
        <time>2015-09-07T12:41:57Z</time>
      </trkpt>
      <trkpt lat="42.8461" lon="-0.33009">
        <ele>2284.2299804688</ele>
        <time>2015-09-07T12:42:12Z</time>
      </trkpt>
      <trkpt lat="42.84613" lon="-0.33006">
        <ele>2281.8264160156</ele>
        <time>2015-09-07T12:42:27Z</time>
      </trkpt>
      <trkpt lat="42.8461" lon="-0.33001">
        <ele>2278.9423828125</ele>
        <time>2015-09-07T12:42:43Z</time>
      </trkpt>
      <trkpt lat="42.84611" lon="-0.33001">
        <ele>2278.9423828125</ele>
        <time>2015-09-07T12:42:44Z</time>
      </trkpt>
      <trkpt lat="42.84615" lon="-0.32998">
        <ele>2277.9812011719</ele>
        <time>2015-09-07T12:43:01Z</time>
      </trkpt>
      <trkpt lat="42.8461" lon="-0.32992">
        <ele>2276.5393066406</ele>
        <time>2015-09-07T12:43:21Z</time>
      </trkpt>
      <trkpt lat="42.84614" lon="-0.32988">
        <ele>2274.6166992188</ele>
        <time>2015-09-07T12:43:36Z</time>
      </trkpt>
      <trkpt lat="42.84616" lon="-0.32983">
        <ele>2271.7326660156</ele>
        <time>2015-09-07T12:43:51Z</time>
      </trkpt>
      <trkpt lat="42.84611" lon="-0.32971">
        <ele>2272.6940917969</ele>
        <time>2015-09-07T12:44:04Z</time>
      </trkpt>
      <trkpt lat="42.84612" lon="-0.32962">
        <ele>2273.6552734375</ele>
        <time>2015-09-07T12:44:17Z</time>
      </trkpt>
      <trkpt lat="42.8461" lon="-0.32951">
        <ele>2275.5778808594</ele>
        <time>2015-09-07T12:44:28Z</time>
      </trkpt>
      <trkpt lat="42.84608" lon="-0.32938">
        <ele>2275.0971679688</ele>
        <time>2015-09-07T12:44:43Z</time>
      </trkpt>
      <trkpt lat="42.84609" lon="-0.3293">
        <ele>2275.0971679688</ele>
        <time>2015-09-07T12:44:56Z</time>
      </trkpt>
      <trkpt lat="42.84609" lon="-0.32929">
        <ele>2272.6940917969</ele>
        <time>2015-09-07T12:45:15Z</time>
      </trkpt>
      <trkpt lat="42.84612" lon="-0.32926">
        <ele>2273.6552734375</ele>
        <time>2015-09-07T12:45:47Z</time>
      </trkpt>
      <trkpt lat="42.84613" lon="-0.32925">
        <ele>2272.6940917969</ele>
        <time>2015-09-07T12:47:42Z</time>
      </trkpt>
      <trkpt lat="42.84613" lon="-0.32926">
        <ele>2273.1748046875</ele>
        <time>2015-09-07T12:48:51Z</time>
      </trkpt>
      <trkpt lat="42.84613" lon="-0.32926">
        <ele>2274.1359863281</ele>
        <time>2015-09-07T12:50:20Z</time>
      </trkpt>
      <trkpt lat="42.84613" lon="-0.32926">
        <ele>2270.2907714844</ele>
        <time>2015-09-07T12:50:57Z</time>
      </trkpt>
      <trkpt lat="42.84613" lon="-0.32926">
        <ele>2274.1359863281</ele>
        <time>2015-09-07T12:51:00Z</time>
      </trkpt>
      <trkpt lat="42.84613" lon="-0.32925">
        <ele>2274.1359863281</ele>
        <time>2015-09-07T12:51:30Z</time>
      </trkpt>
      <trkpt lat="42.84613" lon="-0.32925">
        <ele>2270.771484375</ele>
        <time>2015-09-07T12:51:53Z</time>
      </trkpt>
      <trkpt lat="42.84613" lon="-0.32925">
        <ele>2274.1359863281</ele>
        <time>2015-09-07T12:51:54Z</time>
      </trkpt>
      <trkpt lat="42.84613" lon="-0.32925">
        <ele>2274.6166992188</ele>
        <time>2015-09-07T12:51:56Z</time>
      </trkpt>
      <trkpt lat="42.84612" lon="-0.32927">
        <ele>2274.6166992188</ele>
        <time>2015-09-07T12:52:12Z</time>
      </trkpt>
      <trkpt lat="42.84611" lon="-0.32928">
        <ele>2273.6552734375</ele>
        <time>2015-09-07T12:52:14Z</time>
      </trkpt>
      <trkpt lat="42.84611" lon="-0.32927">
        <ele>2274.1359863281</ele>
        <time>2015-09-07T12:52:50Z</time>
      </trkpt>
      <trkpt lat="42.84611" lon="-0.32925">
        <ele>2275.5778808594</ele>
        <time>2015-09-07T12:53:10Z</time>
      </trkpt>
      <trkpt lat="42.84611" lon="-0.32925">
        <ele>2275.0971679688</ele>
        <time>2015-09-07T12:53:12Z</time>
      </trkpt>
      <trkpt lat="42.8461" lon="-0.32926">
        <ele>2276.05859375</ele>
        <time>2015-09-07T12:53:35Z</time>
      </trkpt>
      <trkpt lat="42.8461" lon="-0.32926">
        <ele>2275.5778808594</ele>
        <time>2015-09-07T12:53:41Z</time>
      </trkpt>
      <trkpt lat="42.84609" lon="-0.32926">
        <ele>2274.6166992188</ele>
        <time>2015-09-07T12:54:19Z</time>
      </trkpt>
      <trkpt lat="42.84609" lon="-0.32927">
        <ele>2274.1359863281</ele>
        <time>2015-09-07T12:58:07Z</time>
      </trkpt>
      <trkpt lat="42.84609" lon="-0.32927">
        <ele>2274.6166992188</ele>
        <time>2015-09-07T13:01:29Z</time>
      </trkpt>
      <trkpt lat="42.84608" lon="-0.32928">
        <ele>2275.0971679688</ele>
        <time>2015-09-07T13:05:14Z</time>
      </trkpt>
      <trkpt lat="42.84607" lon="-0.32926">
        <ele>2275.5778808594</ele>
        <time>2015-09-07T13:05:36Z</time>
      </trkpt>
      <trkpt lat="42.84607" lon="-0.32928">
        <ele>2276.05859375</ele>
        <time>2015-09-07T13:06:03Z</time>
      </trkpt>
      <trkpt lat="42.84606" lon="-0.32927">
        <ele>2277.0200195312</ele>
        <time>2015-09-07T13:06:25Z</time>
      </trkpt>
      <trkpt lat="42.84608" lon="-0.32927">
        <ele>2277.5004882812</ele>
        <time>2015-09-07T13:06:37Z</time>
      </trkpt>
      <trkpt lat="42.846" lon="-0.32924">
        <ele>2277.9812011719</ele>
        <time>2015-09-07T13:06:53Z</time>
      </trkpt>
      <trkpt lat="42.84599" lon="-0.3292">
        <ele>2278.9423828125</ele>
        <time>2015-09-07T13:06:57Z</time>
      </trkpt>
      <trkpt lat="42.84591" lon="-0.32909">
        <ele>2278.9423828125</ele>
        <time>2015-09-07T13:07:10Z</time>
      </trkpt>
      <trkpt lat="42.84589" lon="-0.32904">
        <ele>2278.9423828125</ele>
        <time>2015-09-07T13:07:16Z</time>
      </trkpt>
      <trkpt lat="42.84589" lon="-0.32891">
        <ele>2279.9038085938</ele>
        <time>2015-09-07T13:07:32Z</time>
      </trkpt>
      <trkpt lat="42.84583" lon="-0.32885">
        <ele>2278.4619140625</ele>
        <time>2015-09-07T13:07:46Z</time>
      </trkpt>
      <trkpt lat="42.84576" lon="-0.32876">
        <ele>2278.9423828125</ele>
        <time>2015-09-07T13:08:00Z</time>
      </trkpt>
      <trkpt lat="42.84572" lon="-0.32868">
        <ele>2279.9038085938</ele>
        <time>2015-09-07T13:08:15Z</time>
      </trkpt>
      <trkpt lat="42.84574" lon="-0.32853">
        <ele>2280.865234375</ele>
        <time>2015-09-07T13:08:33Z</time>
      </trkpt>
      <trkpt lat="42.84573" lon="-0.3284">
        <ele>2284.2299804688</ele>
        <time>2015-09-07T13:08:49Z</time>
      </trkpt>
      <trkpt lat="42.84574" lon="-0.32828">
        <ele>2286.1525878906</ele>
        <time>2015-09-07T13:09:05Z</time>
      </trkpt>
      <trkpt lat="42.84568" lon="-0.32812">
        <ele>2285.671875</ele>
        <time>2015-09-07T13:09:23Z</time>
      </trkpt>
      <trkpt lat="42.84559" lon="-0.32795">
        <ele>2285.1911621094</ele>
        <time>2015-09-07T13:09:41Z</time>
      </trkpt>
      <trkpt lat="42.84554" lon="-0.32786">
        <ele>2284.2299804688</ele>
        <time>2015-09-07T13:09:55Z</time>
      </trkpt>
      <trkpt lat="42.84553" lon="-0.32768">
        <ele>2283.7490234375</ele>
        <time>2015-09-07T13:10:11Z</time>
      </trkpt>
      <trkpt lat="42.84552" lon="-0.32763">
        <ele>2281.8264160156</ele>
        <time>2015-09-07T13:10:28Z</time>
      </trkpt>
      <trkpt lat="42.84551" lon="-0.32758">
        <ele>2278.9423828125</ele>
        <time>2015-09-07T13:10:41Z</time>
      </trkpt>
      <trkpt lat="42.84551" lon="-0.32749">
        <ele>2277.5004882812</ele>
        <time>2015-09-07T13:10:54Z</time>
      </trkpt>
      <trkpt lat="42.8455" lon="-0.3274">
        <ele>2277.0200195312</ele>
        <time>2015-09-07T13:11:07Z</time>
      </trkpt>
      <trkpt lat="42.84551" lon="-0.32731">
        <ele>2277.5004882812</ele>
        <time>2015-09-07T13:11:21Z</time>
      </trkpt>
      <trkpt lat="42.84551" lon="-0.32726">
        <ele>2277.9812011719</ele>
        <time>2015-09-07T13:11:35Z</time>
      </trkpt>
      <trkpt lat="42.84554" lon="-0.32721">
        <ele>2280.3845214844</ele>
        <time>2015-09-07T13:11:52Z</time>
      </trkpt>
      <trkpt lat="42.84555" lon="-0.32715">
        <ele>2284.2299804688</ele>
        <time>2015-09-07T13:12:08Z</time>
      </trkpt>
      <trkpt lat="42.84558" lon="-0.32708">
        <ele>2285.671875</ele>
        <time>2015-09-07T13:12:24Z</time>
      </trkpt>
      <trkpt lat="42.8456" lon="-0.32703">
        <ele>2288.0751953125</ele>
        <time>2015-09-07T13:12:38Z</time>
      </trkpt>
      <trkpt lat="42.84566" lon="-0.32702">
        <ele>2290.4782714844</ele>
        <time>2015-09-07T13:12:53Z</time>
      </trkpt>
      <trkpt lat="42.84568" lon="-0.32693">
        <ele>2289.9978027344</ele>
        <time>2015-09-07T13:13:07Z</time>
      </trkpt>
      <trkpt lat="42.84573" lon="-0.32684">
        <ele>2288.5559082031</ele>
        <time>2015-09-07T13:13:25Z</time>
      </trkpt>
      <trkpt lat="42.84576" lon="-0.32673">
        <ele>2286.6330566406</ele>
        <time>2015-09-07T13:13:42Z</time>
      </trkpt>
      <trkpt lat="42.84584" lon="-0.32665">
        <ele>2287.1137695312</ele>
        <time>2015-09-07T13:13:57Z</time>
      </trkpt>
      <trkpt lat="42.84579" lon="-0.32654">
        <ele>2287.5944824219</ele>
        <time>2015-09-07T13:14:12Z</time>
      </trkpt>
      <trkpt lat="42.84575" lon="-0.32646">
        <ele>2288.0751953125</ele>
        <time>2015-09-07T13:14:21Z</time>
      </trkpt>
      <trkpt lat="42.84566" lon="-0.32635">
        <ele>2287.5944824219</ele>
        <time>2015-09-07T13:14:38Z</time>
      </trkpt>
      <trkpt lat="42.84557" lon="-0.32623">
        <ele>2287.1137695312</ele>
        <time>2015-09-07T13:14:53Z</time>
      </trkpt>
      <trkpt lat="42.84551" lon="-0.3261">
        <ele>2288.5559082031</ele>
        <time>2015-09-07T13:15:09Z</time>
      </trkpt>
      <trkpt lat="42.84544" lon="-0.32596">
        <ele>2289.0363769531</ele>
        <time>2015-09-07T13:15:27Z</time>
      </trkpt>
      <trkpt lat="42.84537" lon="-0.32585">
        <ele>2289.5170898438</ele>
        <time>2015-09-07T13:15:43Z</time>
      </trkpt>
      <trkpt lat="42.84528" lon="-0.32574">
        <ele>2289.5170898438</ele>
        <time>2015-09-07T13:15:59Z</time>
      </trkpt>
      <trkpt lat="42.84517" lon="-0.32565">
        <ele>2287.1137695312</ele>
        <time>2015-09-07T13:16:17Z</time>
      </trkpt>
      <trkpt lat="42.84507" lon="-0.32555">
        <ele>2287.5944824219</ele>
        <time>2015-09-07T13:16:37Z</time>
      </trkpt>
      <trkpt lat="42.84501" lon="-0.32548">
        <ele>2287.5944824219</ele>
        <time>2015-09-07T13:16:51Z</time>
      </trkpt>
      <trkpt lat="42.84496" lon="-0.32535">
        <ele>2288.0751953125</ele>
        <time>2015-09-07T13:17:08Z</time>
      </trkpt>
      <trkpt lat="42.84496" lon="-0.32527">
        <ele>2288.0751953125</ele>
        <time>2015-09-07T13:17:24Z</time>
      </trkpt>
      <trkpt lat="42.84491" lon="-0.32525">
        <ele>2287.1137695312</ele>
        <time>2015-09-07T13:17:42Z</time>
      </trkpt>
      <trkpt lat="42.84489" lon="-0.32524">
        <ele>2285.671875</ele>
        <time>2015-09-07T13:17:57Z</time>
      </trkpt>
      <trkpt lat="42.84489" lon="-0.32524">
        <ele>2284.2299804688</ele>
        <time>2015-09-07T13:18:17Z</time>
      </trkpt>
      <trkpt lat="42.84485" lon="-0.32524">
        <ele>2282.3071289062</ele>
        <time>2015-09-07T13:18:31Z</time>
      </trkpt>
      <trkpt lat="42.84481" lon="-0.32525">
        <ele>2280.865234375</ele>
        <time>2015-09-07T13:18:39Z</time>
      </trkpt>
      <trkpt lat="42.84477" lon="-0.32525">
        <ele>2280.865234375</ele>
        <time>2015-09-07T13:18:54Z</time>
      </trkpt>
      <trkpt lat="42.84473" lon="-0.3253">
        <ele>2280.3845214844</ele>
        <time>2015-09-07T13:19:08Z</time>
      </trkpt>
      <trkpt lat="42.84469" lon="-0.3253">
        <ele>2282.3071289062</ele>
        <time>2015-09-07T13:19:15Z</time>
      </trkpt>
      <trkpt lat="42.84456" lon="-0.32533">
        <ele>2282.7875976562</ele>
        <time>2015-09-07T13:19:33Z</time>
      </trkpt>
      <trkpt lat="42.84451" lon="-0.32528">
        <ele>2284.7106933594</ele>
        <time>2015-09-07T13:19:46Z</time>
      </trkpt>
      <trkpt lat="42.84446" lon="-0.32529">
        <ele>2284.2299804688</ele>
        <time>2015-09-07T13:19:59Z</time>
      </trkpt>
      <trkpt lat="42.8444" lon="-0.32529">
        <ele>2285.1911621094</ele>
        <time>2015-09-07T13:20:15Z</time>
      </trkpt>
      <trkpt lat="42.84435" lon="-0.32528">
        <ele>2287.1137695312</ele>
        <time>2015-09-07T13:20:30Z</time>
      </trkpt>
      <trkpt lat="42.8443" lon="-0.32529">
        <ele>2288.5559082031</ele>
        <time>2015-09-07T13:20:43Z</time>
      </trkpt>
      <trkpt lat="42.84427" lon="-0.3253">
        <ele>2288.5559082031</ele>
        <time>2015-09-07T13:21:01Z</time>
      </trkpt>
      <trkpt lat="42.84422" lon="-0.32534">
        <ele>2290.4782714844</ele>
        <time>2015-09-07T13:21:13Z</time>
      </trkpt>
      <trkpt lat="42.84417" lon="-0.32533">
        <ele>2291.9204101562</ele>
        <time>2015-09-07T13:21:29Z</time>
      </trkpt>
      <trkpt lat="42.84406" lon="-0.32538">
        <ele>2293.8430175781</ele>
        <time>2015-09-07T13:21:52Z</time>
      </trkpt>
      <trkpt lat="42.84406" lon="-0.32528">
        <ele>2294.8041992188</ele>
        <time>2015-09-07T13:22:07Z</time>
      </trkpt>
      <trkpt lat="42.84408" lon="-0.32516">
        <ele>2293.3623046875</ele>
        <time>2015-09-07T13:22:24Z</time>
      </trkpt>
      <trkpt lat="42.84407" lon="-0.32507">
        <ele>2295.2849121094</ele>
        <time>2015-09-07T13:22:40Z</time>
      </trkpt>
      <trkpt lat="42.84407" lon="-0.32499">
        <ele>2296.7268066406</ele>
        <time>2015-09-07T13:22:52Z</time>
      </trkpt>
      <trkpt lat="42.84408" lon="-0.32492">
        <ele>2296.2463378906</ele>
        <time>2015-09-07T13:23:15Z</time>
      </trkpt>
      <trkpt lat="42.84401" lon="-0.32496">
        <ele>2298.1687011719</ele>
        <time>2015-09-07T13:23:32Z</time>
      </trkpt>
      <trkpt lat="42.84398" lon="-0.32492">
        <ele>2301.0529785156</ele>
        <time>2015-09-07T13:23:44Z</time>
      </trkpt>
      <trkpt lat="42.84396" lon="-0.32484">
        <ele>2302.9755859375</ele>
        <time>2015-09-07T13:23:58Z</time>
      </trkpt>
      <trkpt lat="42.84393" lon="-0.32485">
        <ele>2305.37890625</ele>
        <time>2015-09-07T13:24:20Z</time>
      </trkpt>
      <trkpt lat="42.84387" lon="-0.32487">
        <ele>2305.859375</ele>
        <time>2015-09-07T13:24:35Z</time>
      </trkpt>
      <trkpt lat="42.84382" lon="-0.32488">
        <ele>2305.37890625</ele>
        <time>2015-09-07T13:24:49Z</time>
      </trkpt>
      <trkpt lat="42.84377" lon="-0.32488">
        <ele>2308.2626953125</ele>
        <time>2015-09-07T13:25:04Z</time>
      </trkpt>
      <trkpt lat="42.84377" lon="-0.32488">
        <ele>2308.2626953125</ele>
        <time>2015-09-07T13:25:05Z</time>
      </trkpt>
      <trkpt lat="42.84373" lon="-0.32487">
        <ele>2309.7045898438</ele>
        <time>2015-09-07T13:25:20Z</time>
      </trkpt>
      <trkpt lat="42.84368" lon="-0.32489">
        <ele>2310.666015625</ele>
        <time>2015-09-07T13:25:35Z</time>
      </trkpt>
      <trkpt lat="42.84365" lon="-0.32493">
        <ele>2314.0305175781</ele>
        <time>2015-09-07T13:25:47Z</time>
      </trkpt>
      <trkpt lat="42.84362" lon="-0.32492">
        <ele>2315.47265625</ele>
        <time>2015-09-07T13:26:05Z</time>
      </trkpt>
      <trkpt lat="42.84361" lon="-0.32487">
        <ele>2316.4340820312</ele>
        <time>2015-09-07T13:26:26Z</time>
      </trkpt>
      <trkpt lat="42.84355" lon="-0.32483">
        <ele>2318.8374023438</ele>
        <time>2015-09-07T13:26:39Z</time>
      </trkpt>
      <trkpt lat="42.8435" lon="-0.32488">
        <ele>2319.7985839844</ele>
        <time>2015-09-07T13:27:04Z</time>
      </trkpt>
      <trkpt lat="42.8435" lon="-0.32491">
        <ele>2319.3181152344</ele>
        <time>2015-09-07T13:27:31Z</time>
      </trkpt>
      <trkpt lat="42.84347" lon="-0.32482">
        <ele>2319.3181152344</ele>
        <time>2015-09-07T13:27:52Z</time>
      </trkpt>
      <trkpt lat="42.84342" lon="-0.32478">
        <ele>2320.7600097656</ele>
        <time>2015-09-07T13:28:06Z</time>
      </trkpt>
      <trkpt lat="42.84336" lon="-0.32472">
        <ele>2323.1633300781</ele>
        <time>2015-09-07T13:28:24Z</time>
      </trkpt>
      <trkpt lat="42.84332" lon="-0.32468">
        <ele>2325.56640625</ele>
        <time>2015-09-07T13:28:39Z</time>
      </trkpt>
      <trkpt lat="42.8433" lon="-0.32462">
        <ele>2328.4504394531</ele>
        <time>2015-09-07T13:28:53Z</time>
      </trkpt>
      <trkpt lat="42.84326" lon="-0.32455">
        <ele>2331.3342285156</ele>
        <time>2015-09-07T13:29:09Z</time>
      </trkpt>
      <trkpt lat="42.84328" lon="-0.32454">
        <ele>2331.3342285156</ele>
        <time>2015-09-07T13:29:36Z</time>
      </trkpt>
      <trkpt lat="42.84328" lon="-0.32441">
        <ele>2332.7763671875</ele>
        <time>2015-09-07T13:29:52Z</time>
      </trkpt>
      <trkpt lat="42.84319" lon="-0.32443">
        <ele>2333.7377929688</ele>
        <time>2015-09-07T13:30:06Z</time>
      </trkpt>
      <trkpt lat="42.84315" lon="-0.32442">
        <ele>2332.7763671875</ele>
        <time>2015-09-07T13:30:10Z</time>
      </trkpt>
      <trkpt lat="42.84299" lon="-0.32435">
        <ele>2332.2958984375</ele>
        <time>2015-09-07T13:30:30Z</time>
      </trkpt>
      <trkpt lat="42.8429" lon="-0.32425">
        <ele>2333.7377929688</ele>
        <time>2015-09-07T13:30:50Z</time>
      </trkpt>
      <trkpt lat="42.84289" lon="-0.32424">
        <ele>2333.7377929688</ele>
        <time>2015-09-07T13:30:51Z</time>
      </trkpt>
      <trkpt lat="42.84288" lon="-0.32417">
        <ele>2335.6604003906</ele>
        <time>2015-09-07T13:31:01Z</time>
      </trkpt>
      <trkpt lat="42.84282" lon="-0.32407">
        <ele>2337.5830078125</ele>
        <time>2015-09-07T13:31:15Z</time>
      </trkpt>
      <trkpt lat="42.84278" lon="-0.32406">
        <ele>2340.9475097656</ele>
        <time>2015-09-07T13:31:29Z</time>
      </trkpt>
      <trkpt lat="42.84272" lon="-0.32396">
        <ele>2342.8701171875</ele>
        <time>2015-09-07T13:31:50Z</time>
      </trkpt>
      <trkpt lat="42.84267" lon="-0.32397">
        <ele>2345.2734375</ele>
        <time>2015-09-07T13:32:16Z</time>
      </trkpt>
      <trkpt lat="42.84264" lon="-0.32392">
        <ele>2346.7153320312</ele>
        <time>2015-09-07T13:32:32Z</time>
      </trkpt>
      <trkpt lat="42.8426" lon="-0.32391">
        <ele>2347.6767578125</ele>
        <time>2015-09-07T13:32:49Z</time>
      </trkpt>
      <trkpt lat="42.84256" lon="-0.32389">
        <ele>2348.1574707031</ele>
        <time>2015-09-07T13:33:11Z</time>
      </trkpt>
      <trkpt lat="42.84253" lon="-0.32381">
        <ele>2349.1188964844</ele>
        <time>2015-09-07T13:33:29Z</time>
      </trkpt>
      <trkpt lat="42.8425" lon="-0.32371">
        <ele>2349.599609375</ele>
        <time>2015-09-07T13:33:44Z</time>
      </trkpt>
      <trkpt lat="42.84248" lon="-0.32364">
        <ele>2351.0415039062</ele>
        <time>2015-09-07T13:33:57Z</time>
      </trkpt>
      <trkpt lat="42.84246" lon="-0.32359">
        <ele>2352.0026855469</ele>
        <time>2015-09-07T13:34:09Z</time>
      </trkpt>
      <trkpt lat="42.8424" lon="-0.32361">
        <ele>2352.4833984375</ele>
        <time>2015-09-07T13:34:25Z</time>
      </trkpt>
      <trkpt lat="42.84234" lon="-0.32364">
        <ele>2352.4833984375</ele>
        <time>2015-09-07T13:34:41Z</time>
      </trkpt>
      <trkpt lat="42.84234" lon="-0.32359">
        <ele>2352.9641113281</ele>
        <time>2015-09-07T13:34:54Z</time>
      </trkpt>
      <trkpt lat="42.84229" lon="-0.32356">
        <ele>2356.3286132812</ele>
        <time>2015-09-07T13:35:06Z</time>
      </trkpt>
      <trkpt lat="42.84227" lon="-0.32352">
        <ele>2355.8479003906</ele>
        <time>2015-09-07T13:35:21Z</time>
      </trkpt>
      <trkpt lat="42.84226" lon="-0.32354">
        <ele>2357.2900390625</ele>
        <time>2015-09-07T13:35:45Z</time>
      </trkpt>
      <trkpt lat="42.84221" lon="-0.32351">
        <ele>2358.2512207031</ele>
        <time>2015-09-07T13:36:03Z</time>
      </trkpt>
      <trkpt lat="42.8422" lon="-0.32349">
        <ele>2360.173828125</ele>
        <time>2015-09-07T13:36:08Z</time>
      </trkpt>
      <trkpt lat="42.84219" lon="-0.3234">
        <ele>2363.0578613281</ele>
        <time>2015-09-07T13:36:24Z</time>
      </trkpt>
      <trkpt lat="42.84213" lon="-0.32338">
        <ele>2364.0192871094</ele>
        <time>2015-09-07T13:36:38Z</time>
      </trkpt>
      <trkpt lat="42.84207" lon="-0.32341">
        <ele>2364.5</ele>
        <time>2015-09-07T13:36:53Z</time>
      </trkpt>
      <trkpt lat="42.84206" lon="-0.32339">
        <ele>2364.5</ele>
        <time>2015-09-07T13:37:11Z</time>
      </trkpt>
      <trkpt lat="42.84205" lon="-0.32338">
        <ele>2367.3837890625</ele>
        <time>2015-09-07T13:37:18Z</time>
      </trkpt>
      <trkpt lat="42.84199" lon="-0.32336">
        <ele>2369.306640625</ele>
        <time>2015-09-07T13:37:33Z</time>
      </trkpt>
      <trkpt lat="42.842" lon="-0.32334">
        <ele>2370.2678222656</ele>
        <time>2015-09-07T13:37:37Z</time>
      </trkpt>
      <trkpt lat="42.84197" lon="-0.32328">
        <ele>2370.7485351562</ele>
        <time>2015-09-07T13:37:51Z</time>
      </trkpt>
      <trkpt lat="42.84195" lon="-0.32319">
        <ele>2372.1904296875</ele>
        <time>2015-09-07T13:38:07Z</time>
      </trkpt>
      <trkpt lat="42.84192" lon="-0.32315">
        <ele>2374.59375</ele>
        <time>2015-09-07T13:38:21Z</time>
      </trkpt>
      <trkpt lat="42.84184" lon="-0.32317">
        <ele>2377.4775390625</ele>
        <time>2015-09-07T13:38:53Z</time>
      </trkpt>
      <trkpt lat="42.8418" lon="-0.32308">
        <ele>2377.4775390625</ele>
        <time>2015-09-07T13:39:07Z</time>
      </trkpt>
      <trkpt lat="42.8417" lon="-0.32305">
        <ele>2379.4001464844</ele>
        <time>2015-09-07T13:39:22Z</time>
      </trkpt>
      <trkpt lat="42.84166" lon="-0.32311">
        <ele>2379.4001464844</ele>
        <time>2015-09-07T13:39:39Z</time>
      </trkpt>
      <trkpt lat="42.84167" lon="-0.32318">
        <ele>2380.8425292969</ele>
        <time>2015-09-07T13:39:57Z</time>
      </trkpt>
      <trkpt lat="42.84161" lon="-0.32321">
        <ele>2381.3229980469</ele>
        <time>2015-09-07T13:40:12Z</time>
      </trkpt>
      <trkpt lat="42.84157" lon="-0.32322">
        <ele>2381.8037109375</ele>
        <time>2015-09-07T13:40:31Z</time>
      </trkpt>
      <trkpt lat="42.84152" lon="-0.32322">
        <ele>2383.7263183594</ele>
        <time>2015-09-07T13:40:45Z</time>
      </trkpt>
      <trkpt lat="42.84145" lon="-0.32324">
        <ele>2384.20703125</ele>
        <time>2015-09-07T13:40:58Z</time>
      </trkpt>
      <trkpt lat="42.84139" lon="-0.32326">
        <ele>2385.6489257812</ele>
        <time>2015-09-07T13:41:14Z</time>
      </trkpt>
      <trkpt lat="42.84135" lon="-0.32324">
        <ele>2386.6101074219</ele>
        <time>2015-09-07T13:41:29Z</time>
      </trkpt>
      <trkpt lat="42.84129" lon="-0.32322">
        <ele>2389.494140625</ele>
        <time>2015-09-07T13:41:43Z</time>
      </trkpt>
      <trkpt lat="42.84128" lon="-0.32321">
        <ele>2390.4553222656</ele>
        <time>2015-09-07T13:41:47Z</time>
      </trkpt>
      <trkpt lat="42.84126" lon="-0.32319">
        <ele>2389.0134277344</ele>
        <time>2015-09-07T13:42:03Z</time>
      </trkpt>
      <trkpt lat="42.84122" lon="-0.32316">
        <ele>2389.0134277344</ele>
        <time>2015-09-07T13:42:21Z</time>
      </trkpt>
      <trkpt lat="42.84114" lon="-0.32317">
        <ele>2389.0134277344</ele>
        <time>2015-09-07T13:42:36Z</time>
      </trkpt>
      <trkpt lat="42.84106" lon="-0.32323">
        <ele>2391.4167480469</ele>
        <time>2015-09-07T13:42:52Z</time>
      </trkpt>
      <trkpt lat="42.84097" lon="-0.32326">
        <ele>2393.8200683594</ele>
        <time>2015-09-07T13:43:07Z</time>
      </trkpt>
      <trkpt lat="42.84097" lon="-0.32326">
        <ele>2394.78125</ele>
        <time>2015-09-07T13:43:09Z</time>
      </trkpt>
      <trkpt lat="42.84098" lon="-0.32319">
        <ele>2398.1459960938</ele>
        <time>2015-09-07T13:43:24Z</time>
      </trkpt>
      <trkpt lat="42.84097" lon="-0.32311">
        <ele>2398.6267089844</ele>
        <time>2015-09-07T13:43:42Z</time>
      </trkpt>
      <trkpt lat="42.84097" lon="-0.32301">
        <ele>2398.6267089844</ele>
        <time>2015-09-07T13:43:58Z</time>
      </trkpt>
      <trkpt lat="42.84096" lon="-0.32298">
        <ele>2398.6267089844</ele>
        <time>2015-09-07T13:44:20Z</time>
      </trkpt>
      <trkpt lat="42.84092" lon="-0.32291">
        <ele>2400.5493164062</ele>
        <time>2015-09-07T13:44:39Z</time>
      </trkpt>
      <trkpt lat="42.84089" lon="-0.3229">
        <ele>2401.0300292969</ele>
        <time>2015-09-07T13:44:47Z</time>
      </trkpt>
      <trkpt lat="42.84087" lon="-0.32286">
        <ele>2401.9912109375</ele>
        <time>2015-09-07T13:45:00Z</time>
      </trkpt>
      <trkpt lat="42.84088" lon="-0.32286">
        <ele>2401.9912109375</ele>
        <time>2015-09-07T13:45:18Z</time>
      </trkpt>
      <trkpt lat="42.84086" lon="-0.32282">
        <ele>2404.39453125</ele>
        <time>2015-09-07T13:45:36Z</time>
      </trkpt>
      <trkpt lat="42.84084" lon="-0.32276">
        <ele>2406.3171386719</ele>
        <time>2015-09-07T13:45:54Z</time>
      </trkpt>
      <trkpt lat="42.84083" lon="-0.32269">
        <ele>2408.2397460938</ele>
        <time>2015-09-07T13:46:13Z</time>
      </trkpt>
      <trkpt lat="42.84088" lon="-0.32264">
        <ele>2408.7204589844</ele>
        <time>2015-09-07T13:46:43Z</time>
      </trkpt>
      <trkpt lat="42.8409" lon="-0.32254">
        <ele>2410.6430664062</ele>
        <time>2015-09-07T13:46:59Z</time>
      </trkpt>
      <trkpt lat="42.84088" lon="-0.32249">
        <ele>2412.5659179688</ele>
        <time>2015-09-07T13:47:10Z</time>
      </trkpt>
      <trkpt lat="42.84084" lon="-0.32243">
        <ele>2414.0078125</ele>
        <time>2015-09-07T13:47:23Z</time>
      </trkpt>
      <trkpt lat="42.8408" lon="-0.32241">
        <ele>2417.3723144531</ele>
        <time>2015-09-07T13:47:36Z</time>
      </trkpt>
      <trkpt lat="42.84074" lon="-0.32242">
        <ele>2417.3723144531</ele>
        <time>2015-09-07T13:47:54Z</time>
      </trkpt>
      <trkpt lat="42.84071" lon="-0.32239">
        <ele>2419.2951660156</ele>
        <time>2015-09-07T13:48:08Z</time>
      </trkpt>
      <trkpt lat="42.84074" lon="-0.3224">
        <ele>2420.2563476562</ele>
        <time>2015-09-07T13:48:27Z</time>
      </trkpt>
      <trkpt lat="42.84072" lon="-0.32234">
        <ele>2422.6596679688</ele>
        <time>2015-09-07T13:48:42Z</time>
      </trkpt>
      <trkpt lat="42.84065" lon="-0.32238">
        <ele>2424.1015625</ele>
        <time>2015-09-07T13:49:00Z</time>
      </trkpt>
      <trkpt lat="42.84064" lon="-0.32239">
        <ele>2425.5434570312</ele>
        <time>2015-09-07T13:49:03Z</time>
      </trkpt>
      <trkpt lat="42.8406" lon="-0.32234">
        <ele>2426.9855957031</ele>
        <time>2015-09-07T13:49:20Z</time>
      </trkpt>
      <trkpt lat="42.84059" lon="-0.32228">
        <ele>2427.9467773438</ele>
        <time>2015-09-07T13:49:32Z</time>
      </trkpt>
      <trkpt lat="42.84057" lon="-0.3223">
        <ele>2428.427734375</ele>
        <time>2015-09-07T13:49:49Z</time>
      </trkpt>
      <trkpt lat="42.84056" lon="-0.32231">
        <ele>2428.908203125</ele>
        <time>2015-09-07T13:50:07Z</time>
      </trkpt>
      <trkpt lat="42.8405" lon="-0.3223">
        <ele>2426.9855957031</ele>
        <time>2015-09-07T13:50:23Z</time>
      </trkpt>
      <trkpt lat="42.84046" lon="-0.3223">
        <ele>2426.5048828125</ele>
        <time>2015-09-07T13:50:35Z</time>
      </trkpt>
      <trkpt lat="42.8404" lon="-0.32226">
        <ele>2426.9855957031</ele>
        <time>2015-09-07T13:50:49Z</time>
      </trkpt>
      <trkpt lat="42.84036" lon="-0.32225">
        <ele>2427.4660644531</ele>
        <time>2015-09-07T13:51:05Z</time>
      </trkpt>
      <trkpt lat="42.84031" lon="-0.32225">
        <ele>2428.908203125</ele>
        <time>2015-09-07T13:51:34Z</time>
      </trkpt>
      <trkpt lat="42.84031" lon="-0.32215">
        <ele>2430.8310546875</ele>
        <time>2015-09-07T13:51:50Z</time>
      </trkpt>
      <trkpt lat="42.84027" lon="-0.32206">
        <ele>2432.2729492188</ele>
        <time>2015-09-07T13:52:04Z</time>
      </trkpt>
      <trkpt lat="42.84023" lon="-0.32202">
        <ele>2432.7534179688</ele>
        <time>2015-09-07T13:52:19Z</time>
      </trkpt>
      <trkpt lat="42.84019" lon="-0.32197">
        <ele>2432.7534179688</ele>
        <time>2015-09-07T13:52:33Z</time>
      </trkpt>
      <trkpt lat="42.84015" lon="-0.3219">
        <ele>2433.2341308594</ele>
        <time>2015-09-07T13:52:46Z</time>
      </trkpt>
      <trkpt lat="42.84014" lon="-0.32186">
        <ele>2432.7534179688</ele>
        <time>2015-09-07T13:53:02Z</time>
      </trkpt>
      <trkpt lat="42.84015" lon="-0.32188">
        <ele>2432.7534179688</ele>
        <time>2015-09-07T13:53:35Z</time>
      </trkpt>
      <trkpt lat="42.84012" lon="-0.32192">
        <ele>2432.2729492188</ele>
        <time>2015-09-07T13:55:02Z</time>
      </trkpt>
      <trkpt lat="42.84011" lon="-0.32185">
        <ele>2435.6374511719</ele>
        <time>2015-09-07T13:55:14Z</time>
      </trkpt>
      <trkpt lat="42.84011" lon="-0.32184">
        <ele>2435.6374511719</ele>
        <time>2015-09-07T13:55:15Z</time>
      </trkpt>
      <trkpt lat="42.84005" lon="-0.32177">
        <ele>2438.521484375</ele>
        <time>2015-09-07T13:55:31Z</time>
      </trkpt>
      <trkpt lat="42.84002" lon="-0.32173">
        <ele>2440.9245605469</ele>
        <time>2015-09-07T13:55:40Z</time>
      </trkpt>
      <trkpt lat="42.83998" lon="-0.3217">
        <ele>2442.8471679688</ele>
        <time>2015-09-07T13:55:57Z</time>
      </trkpt>
      <trkpt lat="42.83994" lon="-0.32164">
        <ele>2445.2507324219</ele>
        <time>2015-09-07T13:56:13Z</time>
      </trkpt>
      <trkpt lat="42.83989" lon="-0.3216">
        <ele>2448.615234375</ele>
        <time>2015-09-07T13:56:26Z</time>
      </trkpt>
      <trkpt lat="42.83983" lon="-0.32158">
        <ele>2450.0573730469</ele>
        <time>2015-09-07T13:56:40Z</time>
      </trkpt>
      <trkpt lat="42.83975" lon="-0.32158">
        <ele>2453.421875</ele>
        <time>2015-09-07T13:56:53Z</time>
      </trkpt>
      <trkpt lat="42.8397" lon="-0.32156">
        <ele>2454.3830566406</ele>
        <time>2015-09-07T13:57:07Z</time>
      </trkpt>
      <trkpt lat="42.83966" lon="-0.32148">
        <ele>2453.421875</ele>
        <time>2015-09-07T13:57:22Z</time>
      </trkpt>
      <trkpt lat="42.83961" lon="-0.32142">
        <ele>2453.421875</ele>
        <time>2015-09-07T13:57:38Z</time>
      </trkpt>
      <trkpt lat="42.83966" lon="-0.32146">
        <ele>2453.9025878906</ele>
        <time>2015-09-07T13:57:54Z</time>
      </trkpt>
      <trkpt lat="42.8397" lon="-0.32145">
        <ele>2453.9025878906</ele>
        <time>2015-09-07T13:58:14Z</time>
      </trkpt>
      <trkpt lat="42.83961" lon="-0.32148">
        <ele>2452.9411621094</ele>
        <time>2015-09-07T13:58:30Z</time>
      </trkpt>
      <trkpt lat="42.83961" lon="-0.32149">
        <ele>2451.9797363281</ele>
        <time>2015-09-07T13:58:43Z</time>
      </trkpt>
      <trkpt lat="42.83961" lon="-0.32148">
        <ele>2451.9797363281</ele>
        <time>2015-09-07T13:59:21Z</time>
      </trkpt>
      <trkpt lat="42.83965" lon="-0.32149">
        <ele>2451.9797363281</ele>
        <time>2015-09-07T14:00:52Z</time>
      </trkpt>
      <trkpt lat="42.83966" lon="-0.32149">
        <ele>2451.0185546875</ele>
        <time>2015-09-07T14:01:34Z</time>
      </trkpt>
      <trkpt lat="42.83965" lon="-0.32149">
        <ele>2452.4604492188</ele>
        <time>2015-09-07T14:01:55Z</time>
      </trkpt>
      <trkpt lat="42.83965" lon="-0.32147">
        <ele>2452.9411621094</ele>
        <time>2015-09-07T14:02:15Z</time>
      </trkpt>
      <trkpt lat="42.83966" lon="-0.3214">
        <ele>2452.4604492188</ele>
        <time>2015-09-07T14:02:29Z</time>
      </trkpt>
      <trkpt lat="42.83963" lon="-0.32136">
        <ele>2451.0185546875</ele>
        <time>2015-09-07T14:02:44Z</time>
      </trkpt>
      <trkpt lat="42.83961" lon="-0.32132">
        <ele>2449.5766601562</ele>
        <time>2015-09-07T14:02:58Z</time>
      </trkpt>
      <trkpt lat="42.83957" lon="-0.32125">
        <ele>2446.6926269531</ele>
        <time>2015-09-07T14:03:11Z</time>
      </trkpt>
      <trkpt lat="42.83956" lon="-0.32116">
        <ele>2443.3278808594</ele>
        <time>2015-09-07T14:03:27Z</time>
      </trkpt>
      <trkpt lat="42.83957" lon="-0.3211">
        <ele>2442.8471679688</ele>
        <time>2015-09-07T14:03:40Z</time>
      </trkpt>
      <trkpt lat="42.83951" lon="-0.32104">
        <ele>2439.001953125</ele>
        <time>2015-09-07T14:03:55Z</time>
      </trkpt>
      <trkpt lat="42.83948" lon="-0.32096">
        <ele>2436.1181640625</ele>
        <time>2015-09-07T14:04:11Z</time>
      </trkpt>
      <trkpt lat="42.83944" lon="-0.32089">
        <ele>2433.2341308594</ele>
        <time>2015-09-07T14:04:22Z</time>
      </trkpt>
      <trkpt lat="42.83941" lon="-0.32081">
        <ele>2431.7922363281</ele>
        <time>2015-09-07T14:04:33Z</time>
      </trkpt>
      <trkpt lat="42.83939" lon="-0.32073">
        <ele>2429.3889160156</ele>
        <time>2015-09-07T14:04:50Z</time>
      </trkpt>
      <trkpt lat="42.83942" lon="-0.32066">
        <ele>2427.9467773438</ele>
        <time>2015-09-07T14:05:10Z</time>
      </trkpt>
      <trkpt lat="42.83947" lon="-0.32063">
        <ele>2426.0241699219</ele>
        <time>2015-09-07T14:05:26Z</time>
      </trkpt>
      <trkpt lat="42.8395" lon="-0.32057">
        <ele>2424.5822753906</ele>
        <time>2015-09-07T14:05:42Z</time>
      </trkpt>
      <trkpt lat="42.83951" lon="-0.32052">
        <ele>2423.6208496094</ele>
        <time>2015-09-07T14:05:57Z</time>
      </trkpt>
      <trkpt lat="42.83955" lon="-0.32045">
        <ele>2420.7370605469</ele>
        <time>2015-09-07T14:06:13Z</time>
      </trkpt>
      <trkpt lat="42.83953" lon="-0.32036">
        <ele>2417.8530273438</ele>
        <time>2015-09-07T14:06:28Z</time>
      </trkpt>
      <trkpt lat="42.83951" lon="-0.32037">
        <ele>2417.3723144531</ele>
        <time>2015-09-07T14:06:41Z</time>
      </trkpt>
      <trkpt lat="42.83948" lon="-0.32033">
        <ele>2414.9692382812</ele>
        <time>2015-09-07T14:06:57Z</time>
      </trkpt>
      <trkpt lat="42.83949" lon="-0.32027">
        <ele>2413.0466308594</ele>
        <time>2015-09-07T14:07:14Z</time>
      </trkpt>
      <trkpt lat="42.83945" lon="-0.3203">
        <ele>2411.6044921875</ele>
        <time>2015-09-07T14:07:31Z</time>
      </trkpt>
      <trkpt lat="42.83944" lon="-0.32028">
        <ele>2408.7204589844</ele>
        <time>2015-09-07T14:07:40Z</time>
      </trkpt>
      <trkpt lat="42.83943" lon="-0.32027">
        <ele>2407.7592773438</ele>
        <time>2015-09-07T14:07:42Z</time>
      </trkpt>
      <trkpt lat="42.83944" lon="-0.32019">
        <ele>2405.3559570312</ele>
        <time>2015-09-07T14:07:59Z</time>
      </trkpt>
      <trkpt lat="42.83941" lon="-0.32021">
        <ele>2403.4333496094</ele>
        <time>2015-09-07T14:08:15Z</time>
      </trkpt>
      <trkpt lat="42.8394" lon="-0.32018">
        <ele>2401.5107421875</ele>
        <time>2015-09-07T14:08:30Z</time>
      </trkpt>
      <trkpt lat="42.8394" lon="-0.32009">
        <ele>2400.0688476562</ele>
        <time>2015-09-07T14:08:59Z</time>
      </trkpt>
      <trkpt lat="42.83938" lon="-0.32005">
        <ele>2398.1459960938</ele>
        <time>2015-09-07T14:09:15Z</time>
      </trkpt>
      <trkpt lat="42.8394" lon="-0.32">
        <ele>2396.2236328125</ele>
        <time>2015-09-07T14:09:30Z</time>
      </trkpt>
      <trkpt lat="42.83943" lon="-0.31999">
        <ele>2393.8200683594</ele>
        <time>2015-09-07T14:09:45Z</time>
      </trkpt>
      <trkpt lat="42.83943" lon="-0.31996">
        <ele>2391.4167480469</ele>
        <time>2015-09-07T14:09:56Z</time>
      </trkpt>
      <trkpt lat="42.83943" lon="-0.31994">
        <ele>2390.4553222656</ele>
        <time>2015-09-07T14:10:01Z</time>
      </trkpt>
      <trkpt lat="42.83946" lon="-0.3199">
        <ele>2389.0134277344</ele>
        <time>2015-09-07T14:10:15Z</time>
      </trkpt>
      <trkpt lat="42.83946" lon="-0.31985">
        <ele>2385.6489257812</ele>
        <time>2015-09-07T14:10:29Z</time>
      </trkpt>
      <trkpt lat="42.83948" lon="-0.31978">
        <ele>2383.7263183594</ele>
        <time>2015-09-07T14:10:42Z</time>
      </trkpt>
      <trkpt lat="42.83952" lon="-0.31972">
        <ele>2382.7648925781</ele>
        <time>2015-09-07T14:10:51Z</time>
      </trkpt>
      <trkpt lat="42.83954" lon="-0.3197">
        <ele>2381.3229980469</ele>
        <time>2015-09-07T14:10:55Z</time>
      </trkpt>
      <trkpt lat="42.83959" lon="-0.31966">
        <ele>2379.880859375</ele>
        <time>2015-09-07T14:11:09Z</time>
      </trkpt>
      <trkpt lat="42.83962" lon="-0.31962">
        <ele>2376.9970703125</ele>
        <time>2015-09-07T14:11:18Z</time>
      </trkpt>
      <trkpt lat="42.83969" lon="-0.31955">
        <ele>2376.5163574219</ele>
        <time>2015-09-07T14:11:34Z</time>
      </trkpt>
      <trkpt lat="42.83971" lon="-0.31952">
        <ele>2375.07421875</ele>
        <time>2015-09-07T14:11:48Z</time>
      </trkpt>
      <trkpt lat="42.83968" lon="-0.31946">
        <ele>2373.6323242188</ele>
        <time>2015-09-07T14:12:05Z</time>
      </trkpt>
      <trkpt lat="42.8397" lon="-0.31942">
        <ele>2370.2678222656</ele>
        <time>2015-09-07T14:12:17Z</time>
      </trkpt>
      <trkpt lat="42.83968" lon="-0.31938">
        <ele>2368.8259277344</ele>
        <time>2015-09-07T14:12:32Z</time>
      </trkpt>
      <trkpt lat="42.8397" lon="-0.31933">
        <ele>2366.4226074219</ele>
        <time>2015-09-07T14:12:49Z</time>
      </trkpt>
      <trkpt lat="42.83975" lon="-0.31933">
        <ele>2364.9807128906</ele>
        <time>2015-09-07T14:13:04Z</time>
      </trkpt>
      <trkpt lat="42.83982" lon="-0.31937">
        <ele>2365.4614257812</ele>
        <time>2015-09-07T14:13:25Z</time>
      </trkpt>
      <trkpt lat="42.83979" lon="-0.31928">
        <ele>2362.0964355469</ele>
        <time>2015-09-07T14:13:41Z</time>
      </trkpt>
      <trkpt lat="42.83981" lon="-0.31915">
        <ele>2358.7319335938</ele>
        <time>2015-09-07T14:13:56Z</time>
      </trkpt>
      <trkpt lat="42.83987" lon="-0.31909">
        <ele>2356.3286132812</ele>
        <time>2015-09-07T14:14:14Z</time>
      </trkpt>
      <trkpt lat="42.83988" lon="-0.31904">
        <ele>2355.8479003906</ele>
        <time>2015-09-07T14:14:27Z</time>
      </trkpt>
      <trkpt lat="42.8399" lon="-0.31897">
        <ele>2352.4833984375</ele>
        <time>2015-09-07T14:14:39Z</time>
      </trkpt>
      <trkpt lat="42.83996" lon="-0.31892">
        <ele>2350.5607910156</ele>
        <time>2015-09-07T14:14:51Z</time>
      </trkpt>
      <trkpt lat="42.84" lon="-0.31882">
        <ele>2348.1574707031</ele>
        <time>2015-09-07T14:15:09Z</time>
      </trkpt>
      <trkpt lat="42.84001" lon="-0.31879">
        <ele>2347.6767578125</ele>
        <time>2015-09-07T14:15:13Z</time>
      </trkpt>
      <trkpt lat="42.84004" lon="-0.3187">
        <ele>2345.7541503906</ele>
        <time>2015-09-07T14:15:26Z</time>
      </trkpt>
      <trkpt lat="42.84008" lon="-0.31861">
        <ele>2345.2734375</ele>
        <time>2015-09-07T14:15:44Z</time>
      </trkpt>
      <trkpt lat="42.8401" lon="-0.3186">
        <ele>2342.3896484375</ele>
        <time>2015-09-07T14:15:48Z</time>
      </trkpt>
      <trkpt lat="42.84011" lon="-0.31852">
        <ele>2340.9475097656</ele>
        <time>2015-09-07T14:16:01Z</time>
      </trkpt>
      <trkpt lat="42.84012" lon="-0.31855">
        <ele>2339.5056152344</ele>
        <time>2015-09-07T14:16:19Z</time>
      </trkpt>
      <trkpt lat="42.84009" lon="-0.31854">
        <ele>2337.5830078125</ele>
        <time>2015-09-07T14:16:50Z</time>
      </trkpt>
      <trkpt lat="42.84004" lon="-0.31858">
        <ele>2334.69921875</ele>
        <time>2015-09-07T14:17:08Z</time>
      </trkpt>
      <trkpt lat="42.84001" lon="-0.31852">
        <ele>2334.69921875</ele>
        <time>2015-09-07T14:17:25Z</time>
      </trkpt>
      <trkpt lat="42.84001" lon="-0.31854">
        <ele>2331.8149414062</ele>
        <time>2015-09-07T14:17:32Z</time>
      </trkpt>
      <trkpt lat="42.84" lon="-0.31848">
        <ele>2329.4116210938</ele>
        <time>2015-09-07T14:17:45Z</time>
      </trkpt>
      <trkpt lat="42.84001" lon="-0.3184">
        <ele>2326.5278320312</ele>
        <time>2015-09-07T14:17:57Z</time>
      </trkpt>
      <trkpt lat="42.83998" lon="-0.3184">
        <ele>2324.1245117188</ele>
        <time>2015-09-07T14:18:13Z</time>
      </trkpt>
      <trkpt lat="42.83995" lon="-0.31839">
        <ele>2321.7211914062</ele>
        <time>2015-09-07T14:18:28Z</time>
      </trkpt>
      <trkpt lat="42.83992" lon="-0.31839">
        <ele>2320.279296875</ele>
        <time>2015-09-07T14:18:43Z</time>
      </trkpt>
      <trkpt lat="42.83991" lon="-0.31837">
        <ele>2318.3566894531</ele>
        <time>2015-09-07T14:18:50Z</time>
      </trkpt>
      <trkpt lat="42.83991" lon="-0.31831">
        <ele>2314.9919433594</ele>
        <time>2015-09-07T14:19:04Z</time>
      </trkpt>
      <trkpt lat="42.83992" lon="-0.31824">
        <ele>2313.5498046875</ele>
        <time>2015-09-07T14:19:20Z</time>
      </trkpt>
      <trkpt lat="42.83992" lon="-0.31821">
        <ele>2313.0693359375</ele>
        <time>2015-09-07T14:19:33Z</time>
      </trkpt>
      <trkpt lat="42.83989" lon="-0.31819">
        <ele>2309.7045898438</ele>
        <time>2015-09-07T14:19:47Z</time>
      </trkpt>
      <trkpt lat="42.83987" lon="-0.31815">
        <ele>2306.3400878906</ele>
        <time>2015-09-07T14:20:03Z</time>
      </trkpt>
      <trkpt lat="42.83986" lon="-0.31811">
        <ele>2305.37890625</ele>
        <time>2015-09-07T14:20:19Z</time>
      </trkpt>
      <trkpt lat="42.83983" lon="-0.3181">
        <ele>2304.4174804688</ele>
        <time>2015-09-07T14:20:46Z</time>
      </trkpt>
      <trkpt lat="42.83982" lon="-0.31812">
        <ele>2302.4948730469</ele>
        <time>2015-09-07T14:21:17Z</time>
      </trkpt>
      <trkpt lat="42.83979" lon="-0.31811">
        <ele>2298.6494140625</ele>
        <time>2015-09-07T14:21:31Z</time>
      </trkpt>
      <trkpt lat="42.83978" lon="-0.31812">
        <ele>2297.6882324219</ele>
        <time>2015-09-07T14:21:48Z</time>
      </trkpt>
      <trkpt lat="42.83974" lon="-0.31813">
        <ele>2295.2849121094</ele>
        <time>2015-09-07T14:22:03Z</time>
      </trkpt>
      <trkpt lat="42.83973" lon="-0.31807">
        <ele>2294.8041992188</ele>
        <time>2015-09-07T14:22:23Z</time>
      </trkpt>
      <trkpt lat="42.83968" lon="-0.31805">
        <ele>2294.3234863281</ele>
        <time>2015-09-07T14:22:40Z</time>
      </trkpt>
      <trkpt lat="42.83968" lon="-0.31799">
        <ele>2290.958984375</ele>
        <time>2015-09-07T14:22:53Z</time>
      </trkpt>
      <trkpt lat="42.83969" lon="-0.31793">
        <ele>2289.0363769531</ele>
        <time>2015-09-07T14:23:07Z</time>
      </trkpt>
      <trkpt lat="42.83965" lon="-0.31788">
        <ele>2286.1525878906</ele>
        <time>2015-09-07T14:23:22Z</time>
      </trkpt>
      <trkpt lat="42.83966" lon="-0.31777">
        <ele>2284.2299804688</ele>
        <time>2015-09-07T14:23:37Z</time>
      </trkpt>
      <trkpt lat="42.83964" lon="-0.31776">
        <ele>2282.7875976562</ele>
        <time>2015-09-07T14:23:51Z</time>
      </trkpt>
      <trkpt lat="42.8396" lon="-0.31774">
        <ele>2279.9038085938</ele>
        <time>2015-09-07T14:24:10Z</time>
      </trkpt>
      <trkpt lat="42.83955" lon="-0.31774">
        <ele>2277.5004882812</ele>
        <time>2015-09-07T14:24:28Z</time>
      </trkpt>
      <trkpt lat="42.83952" lon="-0.31777">
        <ele>2277.5004882812</ele>
        <time>2015-09-07T14:24:45Z</time>
      </trkpt>
      <trkpt lat="42.83951" lon="-0.31772">
        <ele>2275.0971679688</ele>
        <time>2015-09-07T14:24:57Z</time>
      </trkpt>
      <trkpt lat="42.83948" lon="-0.31767">
        <ele>2272.2133789062</ele>
        <time>2015-09-07T14:25:08Z</time>
      </trkpt>
      <trkpt lat="42.83942" lon="-0.31764">
        <ele>2270.771484375</ele>
        <time>2015-09-07T14:25:24Z</time>
      </trkpt>
      <trkpt lat="42.83936" lon="-0.31764">
        <ele>2268.8488769531</ele>
        <time>2015-09-07T14:25:40Z</time>
      </trkpt>
      <trkpt lat="42.83932" lon="-0.31764">
        <ele>2265.9645996094</ele>
        <time>2015-09-07T14:25:48Z</time>
      </trkpt>
      <trkpt lat="42.83923" lon="-0.31761">
        <ele>2265.0034179688</ele>
        <time>2015-09-07T14:26:02Z</time>
      </trkpt>
      <trkpt lat="42.83914" lon="-0.3176">
        <ele>2264.5227050781</ele>
        <time>2015-09-07T14:26:18Z</time>
      </trkpt>
      <trkpt lat="42.83904" lon="-0.31754">
        <ele>2263.0808105469</ele>
        <time>2015-09-07T14:26:33Z</time>
      </trkpt>
      <trkpt lat="42.83895" lon="-0.3175">
        <ele>2262.1193847656</ele>
        <time>2015-09-07T14:26:48Z</time>
      </trkpt>
      <trkpt lat="42.83887" lon="-0.31747">
        <ele>2262.1193847656</ele>
        <time>2015-09-07T14:27:03Z</time>
      </trkpt>
      <trkpt lat="42.83885" lon="-0.31747">
        <ele>2261.158203125</ele>
        <time>2015-09-07T14:27:15Z</time>
      </trkpt>
      <trkpt lat="42.8388" lon="-0.31749">
        <ele>2262.1193847656</ele>
        <time>2015-09-07T14:27:32Z</time>
      </trkpt>
      <trkpt lat="42.83877" lon="-0.31746">
        <ele>2261.158203125</ele>
        <time>2015-09-07T14:27:43Z</time>
      </trkpt>
      <trkpt lat="42.8387" lon="-0.31743">
        <ele>2261.6389160156</ele>
        <time>2015-09-07T14:27:57Z</time>
      </trkpt>
      <trkpt lat="42.83865" lon="-0.31742">
        <ele>2261.158203125</ele>
        <time>2015-09-07T14:28:14Z</time>
      </trkpt>
      <trkpt lat="42.83858" lon="-0.31738">
        <ele>2261.158203125</ele>
        <time>2015-09-07T14:28:31Z</time>
      </trkpt>
      <trkpt lat="42.83851" lon="-0.31734">
        <ele>2261.6389160156</ele>
        <time>2015-09-07T14:28:48Z</time>
      </trkpt>
      <trkpt lat="42.83846" lon="-0.31725">
        <ele>2260.6774902344</ele>
        <time>2015-09-07T14:29:03Z</time>
      </trkpt>
      <trkpt lat="42.83842" lon="-0.3172">
        <ele>2261.158203125</ele>
        <time>2015-09-07T14:29:16Z</time>
      </trkpt>
      <trkpt lat="42.83839" lon="-0.31719">
        <ele>2261.6389160156</ele>
        <time>2015-09-07T14:29:33Z</time>
      </trkpt>
      <trkpt lat="42.83837" lon="-0.31718">
        <ele>2260.6774902344</ele>
        <time>2015-09-07T14:29:51Z</time>
      </trkpt>
      <trkpt lat="42.83837" lon="-0.31711">
        <ele>2259.7160644531</ele>
        <time>2015-09-07T14:30:06Z</time>
      </trkpt>
      <trkpt lat="42.83834" lon="-0.31708">
        <ele>2259.2355957031</ele>
        <time>2015-09-07T14:30:18Z</time>
      </trkpt>
      <trkpt lat="42.83828" lon="-0.31702">
        <ele>2258.7548828125</ele>
        <time>2015-09-07T14:30:32Z</time>
      </trkpt>
      <trkpt lat="42.83821" lon="-0.31696">
        <ele>2259.7160644531</ele>
        <time>2015-09-07T14:30:48Z</time>
      </trkpt>
      <trkpt lat="42.83818" lon="-0.31691">
        <ele>2259.7160644531</ele>
        <time>2015-09-07T14:31:02Z</time>
      </trkpt>
      <trkpt lat="42.83819" lon="-0.31685">
        <ele>2260.1967773438</ele>
        <time>2015-09-07T14:31:14Z</time>
      </trkpt>
      <trkpt lat="42.83817" lon="-0.31677">
        <ele>2257.7937011719</ele>
        <time>2015-09-07T14:31:28Z</time>
      </trkpt>
      <trkpt lat="42.83813" lon="-0.31671">
        <ele>2257.7937011719</ele>
        <time>2015-09-07T14:31:44Z</time>
      </trkpt>
      <trkpt lat="42.8381" lon="-0.31664">
        <ele>2257.7937011719</ele>
        <time>2015-09-07T14:31:59Z</time>
      </trkpt>
      <trkpt lat="42.83808" lon="-0.31662">
        <ele>2256.8322753906</ele>
        <time>2015-09-07T14:32:13Z</time>
      </trkpt>
      <trkpt lat="42.83805" lon="-0.31654">
        <ele>2255.8708496094</ele>
        <time>2015-09-07T14:32:29Z</time>
      </trkpt>
      <trkpt lat="42.83801" lon="-0.31649">
        <ele>2255.8708496094</ele>
        <time>2015-09-07T14:32:45Z</time>
      </trkpt>
      <trkpt lat="42.83796" lon="-0.31642">
        <ele>2255.8708496094</ele>
        <time>2015-09-07T14:33:00Z</time>
      </trkpt>
      <trkpt lat="42.83794" lon="-0.31637">
        <ele>2254.4289550781</ele>
        <time>2015-09-07T14:33:16Z</time>
      </trkpt>
      <trkpt lat="42.83791" lon="-0.3163">
        <ele>2254.4289550781</ele>
        <time>2015-09-07T14:33:32Z</time>
      </trkpt>
      <trkpt lat="42.83787" lon="-0.3162">
        <ele>2252.5063476562</ele>
        <time>2015-09-07T14:33:46Z</time>
      </trkpt>
      <trkpt lat="42.8378" lon="-0.31609">
        <ele>2253.4677734375</ele>
        <time>2015-09-07T14:34:03Z</time>
      </trkpt>
      <trkpt lat="42.83776" lon="-0.31599">
        <ele>2253.4677734375</ele>
        <time>2015-09-07T14:34:17Z</time>
      </trkpt>
      <trkpt lat="42.83778" lon="-0.31587">
        <ele>2252.9870605469</ele>
        <time>2015-09-07T14:34:35Z</time>
      </trkpt>
      <trkpt lat="42.83779" lon="-0.31568">
        <ele>2252.0256347656</ele>
        <time>2015-09-07T14:34:54Z</time>
      </trkpt>
      <trkpt lat="42.83778" lon="-0.31557">
        <ele>2251.0642089844</ele>
        <time>2015-09-07T14:35:12Z</time>
      </trkpt>
      <trkpt lat="42.83774" lon="-0.31544">
        <ele>2250.5834960938</ele>
        <time>2015-09-07T14:35:27Z</time>
      </trkpt>
      <trkpt lat="42.83763" lon="-0.31526">
        <ele>2249.1416015625</ele>
        <time>2015-09-07T14:35:46Z</time>
      </trkpt>
      <trkpt lat="42.83753" lon="-0.31507">
        <ele>2250.1030273438</ele>
        <time>2015-09-07T14:36:05Z</time>
      </trkpt>
      <trkpt lat="42.83745" lon="-0.31494">
        <ele>2251.0642089844</ele>
        <time>2015-09-07T14:36:23Z</time>
      </trkpt>
      <trkpt lat="42.8375" lon="-0.31494">
        <ele>2250.1030273438</ele>
        <time>2015-09-07T14:36:43Z</time>
      </trkpt>
      <trkpt lat="42.8376" lon="-0.315">
        <ele>2249.6223144531</ele>
        <time>2015-09-07T14:37:00Z</time>
      </trkpt>
      <trkpt lat="42.83763" lon="-0.31502">
        <ele>2249.1416015625</ele>
        <time>2015-09-07T14:37:33Z</time>
      </trkpt>
      <trkpt lat="42.83761" lon="-0.31503">
        <ele>2249.1416015625</ele>
        <time>2015-09-07T14:37:51Z</time>
      </trkpt>
      <trkpt lat="42.83762" lon="-0.31502">
        <ele>2248.6608886719</ele>
        <time>2015-09-07T14:38:14Z</time>
      </trkpt>
      <trkpt lat="42.83762" lon="-0.31501">
        <ele>2249.6223144531</ele>
        <time>2015-09-07T14:38:46Z</time>
      </trkpt>
      <trkpt lat="42.83763" lon="-0.315">
        <ele>2249.6223144531</ele>
        <time>2015-09-07T14:39:17Z</time>
      </trkpt>
      <trkpt lat="42.83761" lon="-0.315">
        <ele>2249.6223144531</ele>
        <time>2015-09-07T14:40:10Z</time>
      </trkpt>
      <trkpt lat="42.83762" lon="-0.31501">
        <ele>2249.1416015625</ele>
        <time>2015-09-07T14:40:48Z</time>
      </trkpt>
      <trkpt lat="42.83763" lon="-0.31503">
        <ele>2248.1801757812</ele>
        <time>2015-09-07T14:41:13Z</time>
      </trkpt>
      <trkpt lat="42.83761" lon="-0.31504">
        <ele>2248.6608886719</ele>
        <time>2015-09-07T14:41:32Z</time>
      </trkpt>
      <trkpt lat="42.83761" lon="-0.31499">
        <ele>2249.1416015625</ele>
        <time>2015-09-07T14:42:11Z</time>
      </trkpt>
      <trkpt lat="42.8376" lon="-0.31501">
        <ele>2249.1416015625</ele>
        <time>2015-09-07T14:42:56Z</time>
      </trkpt>
      <trkpt lat="42.83759" lon="-0.31497">
        <ele>2247.6997070312</ele>
        <time>2015-09-07T14:43:27Z</time>
      </trkpt>
      <trkpt lat="42.83756" lon="-0.31495">
        <ele>2248.1801757812</ele>
        <time>2015-09-07T14:43:43Z</time>
      </trkpt>
      <trkpt lat="42.83742" lon="-0.31486">
        <ele>2250.1030273438</ele>
        <time>2015-09-07T14:44:02Z</time>
      </trkpt>
      <trkpt lat="42.83727" lon="-0.31478">
        <ele>2249.6223144531</ele>
        <time>2015-09-07T14:44:20Z</time>
      </trkpt>
      <trkpt lat="42.83725" lon="-0.31478">
        <ele>2249.6223144531</ele>
        <time>2015-09-07T14:44:22Z</time>
      </trkpt>
      <trkpt lat="42.83702" lon="-0.31496">
        <ele>2247.6997070312</ele>
        <time>2015-09-07T14:44:45Z</time>
      </trkpt>
      <trkpt lat="42.8369" lon="-0.3151">
        <ele>2246.73828125</ele>
        <time>2015-09-07T14:45:03Z</time>
      </trkpt>
      <trkpt lat="42.83677" lon="-0.31526">
        <ele>2245.2963867188</ele>
        <time>2015-09-07T14:45:21Z</time>
      </trkpt>
      <trkpt lat="42.83669" lon="-0.31541">
        <ele>2243.8544921875</ele>
        <time>2015-09-07T14:45:37Z</time>
      </trkpt>
      <trkpt lat="42.83668" lon="-0.31542">
        <ele>2244.3349609375</ele>
        <time>2015-09-07T14:45:38Z</time>
      </trkpt>
      <trkpt lat="42.83656" lon="-0.31561">
        <ele>2243.8544921875</ele>
        <time>2015-09-07T14:45:55Z</time>
      </trkpt>
      <trkpt lat="42.83654" lon="-0.31564">
        <ele>2244.8156738281</ele>
        <time>2015-09-07T14:45:58Z</time>
      </trkpt>
      <trkpt lat="42.83635" lon="-0.31581">
        <ele>2245.2963867188</ele>
        <time>2015-09-07T14:46:19Z</time>
      </trkpt>
      <trkpt lat="42.83623" lon="-0.31594">
        <ele>2244.8156738281</ele>
        <time>2015-09-07T14:46:31Z</time>
      </trkpt>
      <trkpt lat="42.83619" lon="-0.316">
        <ele>2244.8156738281</ele>
        <time>2015-09-07T14:46:36Z</time>
      </trkpt>
      <trkpt lat="42.83601" lon="-0.31616">
        <ele>2244.3349609375</ele>
        <time>2015-09-07T14:46:54Z</time>
      </trkpt>
      <trkpt lat="42.83588" lon="-0.31629">
        <ele>2243.3737792969</ele>
        <time>2015-09-07T14:47:08Z</time>
      </trkpt>
      <trkpt lat="42.83571" lon="-0.31652">
        <ele>2244.3349609375</ele>
        <time>2015-09-07T14:47:28Z</time>
      </trkpt>
      <trkpt lat="42.83564" lon="-0.31664">
        <ele>2245.2963867188</ele>
        <time>2015-09-07T14:47:43Z</time>
      </trkpt>
      <trkpt lat="42.8355" lon="-0.31681">
        <ele>2245.2963867188</ele>
        <time>2015-09-07T14:48:01Z</time>
      </trkpt>
      <trkpt lat="42.83542" lon="-0.31687">
        <ele>2245.2963867188</ele>
        <time>2015-09-07T14:48:15Z</time>
      </trkpt>
      <trkpt lat="42.8353" lon="-0.31699">
        <ele>2245.7770996094</ele>
        <time>2015-09-07T14:48:38Z</time>
      </trkpt>
      <trkpt lat="42.83513" lon="-0.31713">
        <ele>2244.8156738281</ele>
        <time>2015-09-07T14:48:57Z</time>
      </trkpt>
      <trkpt lat="42.835" lon="-0.31722">
        <ele>2244.8156738281</ele>
        <time>2015-09-07T14:49:13Z</time>
      </trkpt>
      <trkpt lat="42.83488" lon="-0.31733">
        <ele>2245.7770996094</ele>
        <time>2015-09-07T14:49:28Z</time>
      </trkpt>
      <trkpt lat="42.83483" lon="-0.31736">
        <ele>2245.2963867188</ele>
        <time>2015-09-07T14:49:33Z</time>
      </trkpt>
      <trkpt lat="42.8347" lon="-0.31739">
        <ele>2246.73828125</ele>
        <time>2015-09-07T14:49:50Z</time>
      </trkpt>
      <trkpt lat="42.83452" lon="-0.31746">
        <ele>2247.6997070312</ele>
        <time>2015-09-07T14:50:07Z</time>
      </trkpt>
      <trkpt lat="42.83445" lon="-0.31748">
        <ele>2248.6608886719</ele>
        <time>2015-09-07T14:50:19Z</time>
      </trkpt>
      <trkpt lat="42.8344" lon="-0.31744">
        <ele>2248.1801757812</ele>
        <time>2015-09-07T14:50:24Z</time>
      </trkpt>
      <trkpt lat="42.83437" lon="-0.31722">
        <ele>2247.6997070312</ele>
        <time>2015-09-07T14:50:40Z</time>
      </trkpt>
      <trkpt lat="42.83438" lon="-0.31711">
        <ele>2247.2189941406</ele>
        <time>2015-09-07T14:50:50Z</time>
      </trkpt>
      <trkpt lat="42.83446" lon="-0.31678">
        <ele>2247.2189941406</ele>
        <time>2015-09-07T14:51:12Z</time>
      </trkpt>
      <trkpt lat="42.83444" lon="-0.31654">
        <ele>2248.1801757812</ele>
        <time>2015-09-07T14:51:28Z</time>
      </trkpt>
      <trkpt lat="42.83443" lon="-0.31647">
        <ele>2250.1030273438</ele>
        <time>2015-09-07T14:51:34Z</time>
      </trkpt>
      <trkpt lat="42.83447" lon="-0.31636">
        <ele>2248.6608886719</ele>
        <time>2015-09-07T14:51:42Z</time>
      </trkpt>
      <trkpt lat="42.83452" lon="-0.31625">
        <ele>2248.1801757812</ele>
        <time>2015-09-07T14:51:51Z</time>
      </trkpt>
      <trkpt lat="42.83452" lon="-0.31618">
        <ele>2249.1416015625</ele>
        <time>2015-09-07T14:51:56Z</time>
      </trkpt>
      <trkpt lat="42.83443" lon="-0.31606">
        <ele>2248.1801757812</ele>
        <time>2015-09-07T14:52:12Z</time>
      </trkpt>
      <trkpt lat="42.83441" lon="-0.31599">
        <ele>2247.2189941406</ele>
        <time>2015-09-07T14:52:27Z</time>
      </trkpt>
      <trkpt lat="42.83444" lon="-0.31572">
        <ele>2246.2578125</ele>
        <time>2015-09-07T14:52:45Z</time>
      </trkpt>
      <trkpt lat="42.83442" lon="-0.31548">
        <ele>2245.7770996094</ele>
        <time>2015-09-07T14:53:02Z</time>
      </trkpt>
      <trkpt lat="42.83442" lon="-0.31536">
        <ele>2242.4125976562</ele>
        <time>2015-09-07T14:53:18Z</time>
      </trkpt>
      <trkpt lat="42.83444" lon="-0.31529">
        <ele>2241.9318847656</ele>
        <time>2015-09-07T14:53:37Z</time>
      </trkpt>
      <trkpt lat="42.83438" lon="-0.31536">
        <ele>2240.0092773438</ele>
        <time>2015-09-07T14:53:50Z</time>
      </trkpt>
      <trkpt lat="42.83434" lon="-0.3154">
        <ele>2238.5673828125</ele>
        <time>2015-09-07T14:54:02Z</time>
      </trkpt>
      <trkpt lat="42.83431" lon="-0.31539">
        <ele>2237.1252441406</ele>
        <time>2015-09-07T14:54:16Z</time>
      </trkpt>
      <trkpt lat="42.83425" lon="-0.31542">
        <ele>2234.7219238281</ele>
        <time>2015-09-07T14:54:29Z</time>
      </trkpt>
      <trkpt lat="42.83414" lon="-0.31539">
        <ele>2232.3186035156</ele>
        <time>2015-09-07T14:54:49Z</time>
      </trkpt>
      <trkpt lat="42.83406" lon="-0.31532">
        <ele>2229.4345703125</ele>
        <time>2015-09-07T14:55:04Z</time>
      </trkpt>
      <trkpt lat="42.83394" lon="-0.31535">
        <ele>2227.5119628906</ele>
        <time>2015-09-07T14:55:24Z</time>
      </trkpt>
      <trkpt lat="42.83385" lon="-0.31536">
        <ele>2225.1086425781</ele>
        <time>2015-09-07T14:55:38Z</time>
      </trkpt>
      <trkpt lat="42.83384" lon="-0.31535">
        <ele>2224.6281738281</ele>
        <time>2015-09-07T14:55:39Z</time>
      </trkpt>
      <trkpt lat="42.83388" lon="-0.31521">
        <ele>2221.744140625</ele>
        <time>2015-09-07T14:55:56Z</time>
      </trkpt>
      <trkpt lat="42.83393" lon="-0.31506">
        <ele>2220.3022460938</ele>
        <time>2015-09-07T14:56:12Z</time>
      </trkpt>
      <trkpt lat="42.83393" lon="-0.31505">
        <ele>2219.3408203125</ele>
        <time>2015-09-07T14:56:13Z</time>
      </trkpt>
      <trkpt lat="42.83404" lon="-0.31491">
        <ele>2216.9375</ele>
        <time>2015-09-07T14:56:30Z</time>
      </trkpt>
      <trkpt lat="42.8341" lon="-0.31481">
        <ele>2216.4567871094</ele>
        <time>2015-09-07T14:56:40Z</time>
      </trkpt>
      <trkpt lat="42.83409" lon="-0.3147">
        <ele>2215.9760742188</ele>
        <time>2015-09-07T14:56:49Z</time>
      </trkpt>
      <trkpt lat="42.83406" lon="-0.31457">
        <ele>2213.5727539062</ele>
        <time>2015-09-07T14:57:05Z</time>
      </trkpt>
      <trkpt lat="42.83402" lon="-0.31457">
        <ele>2210.6889648438</ele>
        <time>2015-09-07T14:57:22Z</time>
      </trkpt>
      <trkpt lat="42.83399" lon="-0.31451">
        <ele>2208.7663574219</ele>
        <time>2015-09-07T14:57:34Z</time>
      </trkpt>
      <trkpt lat="42.83398" lon="-0.31446">
        <ele>2206.3630371094</ele>
        <time>2015-09-07T14:57:50Z</time>
      </trkpt>
      <trkpt lat="42.83399" lon="-0.31438">
        <ele>2205.4018554688</ele>
        <time>2015-09-07T14:58:04Z</time>
      </trkpt>
      <trkpt lat="42.8339" lon="-0.31445">
        <ele>2202.517578125</ele>
        <time>2015-09-07T14:58:24Z</time>
      </trkpt>
      <trkpt lat="42.83387" lon="-0.31446">
        <ele>2201.0756835938</ele>
        <time>2015-09-07T14:58:28Z</time>
      </trkpt>
      <trkpt lat="42.83379" lon="-0.3145">
        <ele>2199.6337890625</ele>
        <time>2015-09-07T14:58:41Z</time>
      </trkpt>
      <trkpt lat="42.83377" lon="-0.31452">
        <ele>2198.1916503906</ele>
        <time>2015-09-07T14:58:44Z</time>
      </trkpt>
      <trkpt lat="42.8337" lon="-0.3146">
        <ele>2197.7111816406</ele>
        <time>2015-09-07T14:59:02Z</time>
      </trkpt>
      <trkpt lat="42.83369" lon="-0.31467">
        <ele>2195.7885742188</ele>
        <time>2015-09-07T14:59:13Z</time>
      </trkpt>
      <trkpt lat="42.83358" lon="-0.31484">
        <ele>2193.8659667969</ele>
        <time>2015-09-07T14:59:33Z</time>
      </trkpt>
      <trkpt lat="42.83357" lon="-0.31485">
        <ele>2193.8659667969</ele>
        <time>2015-09-07T14:59:34Z</time>
      </trkpt>
      <trkpt lat="42.83351" lon="-0.3149">
        <ele>2194.3464355469</ele>
        <time>2015-09-07T14:59:49Z</time>
      </trkpt>
      <trkpt lat="42.83349" lon="-0.31498">
        <ele>2192.9045410156</ele>
        <time>2015-09-07T14:59:58Z</time>
      </trkpt>
      <trkpt lat="42.83341" lon="-0.31515">
        <ele>2193.8659667969</ele>
        <time>2015-09-07T15:00:12Z</time>
      </trkpt>
      <trkpt lat="42.83337" lon="-0.31533">
        <ele>2193.8659667969</ele>
        <time>2015-09-07T15:00:31Z</time>
      </trkpt>
      <trkpt lat="42.83337" lon="-0.31535">
        <ele>2194.3464355469</ele>
        <time>2015-09-07T15:00:54Z</time>
      </trkpt>
      <trkpt lat="42.83337" lon="-0.31535">
        <ele>2194.8271484375</ele>
        <time>2015-09-07T15:01:14Z</time>
      </trkpt>
      <trkpt lat="42.83337" lon="-0.31534">
        <ele>2193.8659667969</ele>
        <time>2015-09-07T15:01:17Z</time>
      </trkpt>
    </trkseg>
  </trk>
</gpx>